<?xml version="1.0" encoding="UTF-8" standalone="no" ?>
<gpx xmlns="http://www.topografix.com/GPX/1/1" xmlns:xsi="http://www.w3.org/2001/XMLSchema-instance" xsi:schemaLocation="http://www.topografix.com/GPX/1/1 http://www.topografix.com/GPX/1/1/gpx.xsd" version="1.1" creator="VisuGPX - https://www.visugpx.com">
  <metadata>
    <name>9344423-riviere surtarl  jonte dourbie</name>
  </metadata>
  <trk>
    <name><![CDATA[9344423-riviere surtarl  jonte dourbie]]></name>
    <trkseg>
      <trkpt lat="44.18837" lon="3.13065">
        <ele>383</ele>
        <time>2019-05-22T20:15:53Z</time>
      </trkpt>
      <trkpt lat="44.18823" lon="3.13125">
        <ele>381</ele>
        <time>2019-05-22T20:16:01Z</time>
      </trkpt>
      <trkpt lat="44.18883" lon="3.13379">
        <ele>381</ele>
        <time>2019-05-22T20:16:35Z</time>
      </trkpt>
      <trkpt lat="44.18892" lon="3.13423">
        <ele>381</ele>
        <time>2019-05-22T20:16:41Z</time>
      </trkpt>
      <trkpt lat="44.18945" lon="3.13636">
        <ele>380</ele>
        <time>2019-05-22T20:17:10Z</time>
      </trkpt>
      <trkpt lat="44.1902" lon="3.13959">
        <ele>377</ele>
        <time>2019-05-22T20:17:53Z</time>
      </trkpt>
      <trkpt lat="44.19035" lon="3.14018">
        <ele>378</ele>
        <time>2019-05-22T20:18:01Z</time>
      </trkpt>
      <trkpt lat="44.19057" lon="3.14122">
        <ele>380</ele>
        <time>2019-05-22T20:18:15Z</time>
      </trkpt>
      <trkpt lat="44.19061" lon="3.14163">
        <ele>381</ele>
        <time>2019-05-22T20:18:20Z</time>
      </trkpt>
      <trkpt lat="44.19064" lon="3.14259">
        <ele>383</ele>
        <time>2019-05-22T20:18:32Z</time>
      </trkpt>
      <trkpt lat="44.19076" lon="3.14332">
        <ele>384</ele>
        <time>2019-05-22T20:18:42Z</time>
      </trkpt>
      <trkpt lat="44.19128" lon="3.14623">
        <ele>388</ele>
        <time>2019-05-22T20:19:20Z</time>
      </trkpt>
      <trkpt lat="44.19132" lon="3.1466">
        <ele>387</ele>
        <time>2019-05-22T20:19:25Z</time>
      </trkpt>
      <trkpt lat="44.19132" lon="3.14729">
        <ele>389</ele>
        <time>2019-05-22T20:19:34Z</time>
      </trkpt>
      <trkpt lat="44.19129" lon="3.14763">
        <ele>389</ele>
        <time>2019-05-22T20:19:38Z</time>
      </trkpt>
      <trkpt lat="44.19114" lon="3.14825">
        <ele>388</ele>
        <time>2019-05-22T20:19:47Z</time>
      </trkpt>
      <trkpt lat="44.19058" lon="3.15028">
        <ele>389</ele>
        <time>2019-05-22T20:20:14Z</time>
      </trkpt>
      <trkpt lat="44.1904" lon="3.15087">
        <ele>390</ele>
        <time>2019-05-22T20:20:22Z</time>
      </trkpt>
      <trkpt lat="44.18993" lon="3.1521">
        <ele>391</ele>
        <time>2019-05-22T20:20:40Z</time>
      </trkpt>
      <trkpt lat="44.18968" lon="3.15296">
        <ele>394</ele>
        <time>2019-05-22T20:20:52Z</time>
      </trkpt>
      <trkpt lat="44.18947" lon="3.15379">
        <ele>393</ele>
        <time>2019-05-22T20:21:03Z</time>
      </trkpt>
      <trkpt lat="44.1894" lon="3.15423">
        <ele>392</ele>
        <time>2019-05-22T20:21:09Z</time>
      </trkpt>
      <trkpt lat="44.1894" lon="3.15449">
        <ele>392</ele>
        <time>2019-05-22T20:21:12Z</time>
      </trkpt>
      <trkpt lat="44.18944" lon="3.15485">
        <ele>392</ele>
        <time>2019-05-22T20:21:17Z</time>
      </trkpt>
      <trkpt lat="44.18958" lon="3.15534">
        <ele>393</ele>
        <time>2019-05-22T20:21:24Z</time>
      </trkpt>
      <trkpt lat="44.18971" lon="3.1556">
        <ele>393</ele>
        <time>2019-05-22T20:21:28Z</time>
      </trkpt>
      <trkpt lat="44.1899" lon="3.15588">
        <ele>394</ele>
        <time>2019-05-22T20:21:33Z</time>
      </trkpt>
      <trkpt lat="44.19008" lon="3.15604">
        <ele>395</ele>
        <time>2019-05-22T20:21:37Z</time>
      </trkpt>
      <trkpt lat="44.19057" lon="3.15639">
        <ele>397</ele>
        <time>2019-05-22T20:21:46Z</time>
      </trkpt>
      <trkpt lat="44.1908" lon="3.15648">
        <ele>397</ele>
        <time>2019-05-22T20:21:51Z</time>
      </trkpt>
      <trkpt lat="44.19108" lon="3.15652">
        <ele>397</ele>
        <time>2019-05-22T20:21:56Z</time>
      </trkpt>
      <trkpt lat="44.19148" lon="3.15648">
        <ele>400</ele>
        <time>2019-05-22T20:22:03Z</time>
      </trkpt>
      <trkpt lat="44.19203" lon="3.15638">
        <ele>404</ele>
        <time>2019-05-22T20:22:13Z</time>
      </trkpt>
      <trkpt lat="44.19239" lon="3.15628">
        <ele>406</ele>
        <time>2019-05-22T20:22:19Z</time>
      </trkpt>
      <trkpt lat="44.19289" lon="3.15607">
        <ele>405</ele>
        <time>2019-05-22T20:22:28Z</time>
      </trkpt>
      <trkpt lat="44.19314" lon="3.15598">
        <ele>403</ele>
        <time>2019-05-22T20:22:33Z</time>
      </trkpt>
      <trkpt lat="44.19326" lon="3.15588">
        <ele>403</ele>
        <time>2019-05-22T20:22:36Z</time>
      </trkpt>
      <trkpt lat="44.19467" lon="3.15431">
        <ele>409</ele>
        <time>2019-05-22T20:23:08Z</time>
      </trkpt>
      <trkpt lat="44.19484" lon="3.15416">
        <ele>407</ele>
        <time>2019-05-22T20:23:11Z</time>
      </trkpt>
      <trkpt lat="44.19507" lon="3.15401">
        <ele>405</ele>
        <time>2019-05-22T20:23:16Z</time>
      </trkpt>
      <trkpt lat="44.19528" lon="3.1539">
        <ele>405</ele>
        <time>2019-05-22T20:23:20Z</time>
      </trkpt>
      <trkpt lat="44.19588" lon="3.15371">
        <ele>400</ele>
        <time>2019-05-22T20:23:31Z</time>
      </trkpt>
      <trkpt lat="44.19627" lon="3.15366">
        <ele>401</ele>
        <time>2019-05-22T20:23:38Z</time>
      </trkpt>
      <trkpt lat="44.19722" lon="3.15379">
        <ele>397</ele>
        <time>2019-05-22T20:23:55Z</time>
      </trkpt>
      <trkpt lat="44.19771" lon="3.15378">
        <ele>395</ele>
        <time>2019-05-22T20:24:03Z</time>
      </trkpt>
      <trkpt lat="44.19847" lon="3.15367">
        <ele>393</ele>
        <time>2019-05-22T20:24:17Z</time>
      </trkpt>
      <trkpt lat="44.19877" lon="3.15364">
        <ele>395</ele>
        <time>2019-05-22T20:24:22Z</time>
      </trkpt>
      <trkpt lat="44.19903" lon="3.15366">
        <ele>395</ele>
        <time>2019-05-22T20:24:27Z</time>
      </trkpt>
      <trkpt lat="44.19933" lon="3.15372">
        <ele>397</ele>
        <time>2019-05-22T20:24:32Z</time>
      </trkpt>
      <trkpt lat="44.19965" lon="3.15385">
        <ele>399</ele>
        <time>2019-05-22T20:24:38Z</time>
      </trkpt>
      <trkpt lat="44.20003" lon="3.15415">
        <ele>400</ele>
        <time>2019-05-22T20:24:46Z</time>
      </trkpt>
      <trkpt lat="44.20029" lon="3.15448">
        <ele>400</ele>
        <time>2019-05-22T20:24:52Z</time>
      </trkpt>
      <trkpt lat="44.20052" lon="3.15486">
        <ele>400</ele>
        <time>2019-05-22T20:24:59Z</time>
      </trkpt>
      <trkpt lat="44.20066" lon="3.15516">
        <ele>399</ele>
        <time>2019-05-22T20:25:03Z</time>
      </trkpt>
      <trkpt lat="44.20075" lon="3.15542">
        <ele>398</ele>
        <time>2019-05-22T20:25:07Z</time>
      </trkpt>
      <trkpt lat="44.20098" lon="3.15619">
        <ele>394</ele>
        <time>2019-05-22T20:25:17Z</time>
      </trkpt>
      <trkpt lat="44.20109" lon="3.15648">
        <ele>393</ele>
        <time>2019-05-22T20:25:22Z</time>
      </trkpt>
      <trkpt lat="44.20119" lon="3.15667">
        <ele>392</ele>
        <time>2019-05-22T20:25:25Z</time>
      </trkpt>
      <trkpt lat="44.2013" lon="3.15681">
        <ele>392</ele>
        <time>2019-05-22T20:25:27Z</time>
      </trkpt>
      <trkpt lat="44.2014" lon="3.15689">
        <ele>392</ele>
        <time>2019-05-22T20:25:29Z</time>
      </trkpt>
      <trkpt lat="44.20154" lon="3.15698">
        <ele>392</ele>
        <time>2019-05-22T20:25:32Z</time>
      </trkpt>
      <trkpt lat="44.20173" lon="3.15703">
        <ele>393</ele>
        <time>2019-05-22T20:25:36Z</time>
      </trkpt>
      <trkpt lat="44.20271" lon="3.15705">
        <ele>392</ele>
        <time>2019-05-22T20:25:53Z</time>
      </trkpt>
      <trkpt lat="44.2029" lon="3.15707">
        <ele>392</ele>
        <time>2019-05-22T20:25:56Z</time>
      </trkpt>
      <trkpt lat="44.20302" lon="3.15711">
        <ele>391</ele>
        <time>2019-05-22T20:25:59Z</time>
      </trkpt>
      <trkpt lat="44.20316" lon="3.1572">
        <ele>391</ele>
        <time>2019-05-22T20:26:01Z</time>
      </trkpt>
      <trkpt lat="44.20328" lon="3.15732">
        <ele>390</ele>
        <time>2019-05-22T20:26:04Z</time>
      </trkpt>
      <trkpt lat="44.20336" lon="3.15744">
        <ele>389</ele>
        <time>2019-05-22T20:26:06Z</time>
      </trkpt>
      <trkpt lat="44.20344" lon="3.15769">
        <ele>388</ele>
        <time>2019-05-22T20:26:10Z</time>
      </trkpt>
      <trkpt lat="44.20363" lon="3.15874">
        <ele>389</ele>
        <time>2019-05-22T20:26:23Z</time>
      </trkpt>
      <trkpt lat="44.20363" lon="3.15885">
        <ele>390</ele>
        <time>2019-05-22T20:26:25Z</time>
      </trkpt>
      <trkpt lat="44.20361" lon="3.15894">
        <ele>390</ele>
        <time>2019-05-22T20:26:26Z</time>
      </trkpt>
      <trkpt lat="44.20355" lon="3.15904">
        <ele>390</ele>
        <time>2019-05-22T20:26:28Z</time>
      </trkpt>
      <trkpt lat="44.20349" lon="3.15912">
        <ele>390</ele>
        <time>2019-05-22T20:26:29Z</time>
      </trkpt>
      <trkpt lat="44.20145" lon="3.16001">
        <ele>389</ele>
        <time>2019-05-22T20:27:07Z</time>
      </trkpt>
      <trkpt lat="44.20127" lon="3.16014">
        <ele>389</ele>
        <time>2019-05-22T20:27:11Z</time>
      </trkpt>
      <trkpt lat="44.20111" lon="3.16042">
        <ele>391</ele>
        <time>2019-05-22T20:27:15Z</time>
      </trkpt>
      <trkpt lat="44.201" lon="3.16086">
        <ele>393</ele>
        <time>2019-05-22T20:27:21Z</time>
      </trkpt>
      <trkpt lat="44.20096" lon="3.16117">
        <ele>396</ele>
        <time>2019-05-22T20:27:25Z</time>
      </trkpt>
      <trkpt lat="44.20096" lon="3.16144">
        <ele>399</ele>
        <time>2019-05-22T20:27:29Z</time>
      </trkpt>
      <trkpt lat="44.20102" lon="3.16228">
        <ele>404</ele>
        <time>2019-05-22T20:27:39Z</time>
      </trkpt>
      <trkpt lat="44.20105" lon="3.16359">
        <ele>397</ele>
        <time>2019-05-22T20:27:56Z</time>
      </trkpt>
      <trkpt lat="44.20109" lon="3.1645">
        <ele>397</ele>
        <time>2019-05-22T20:28:08Z</time>
      </trkpt>
      <trkpt lat="44.20124" lon="3.16576">
        <ele>401</ele>
        <time>2019-05-22T20:28:24Z</time>
      </trkpt>
      <trkpt lat="44.20124" lon="3.16627">
        <ele>400</ele>
        <time>2019-05-22T20:28:31Z</time>
      </trkpt>
      <trkpt lat="44.20121" lon="3.16727">
        <ele>396</ele>
        <time>2019-05-22T20:28:43Z</time>
      </trkpt>
      <trkpt lat="44.20124" lon="3.16791">
        <ele>395</ele>
        <time>2019-05-22T20:28:52Z</time>
      </trkpt>
      <trkpt lat="44.2014" lon="3.16934">
        <ele>398</ele>
        <time>2019-05-22T20:29:10Z</time>
      </trkpt>
      <trkpt lat="44.20156" lon="3.17032">
        <ele>395</ele>
        <time>2019-05-22T20:29:23Z</time>
      </trkpt>
      <trkpt lat="44.20161" lon="3.17098">
        <ele>392</ele>
        <time>2019-05-22T20:29:31Z</time>
      </trkpt>
      <trkpt lat="44.20179" lon="3.17203">
        <ele>392</ele>
        <time>2019-05-22T20:29:45Z</time>
      </trkpt>
      <trkpt lat="44.20181" lon="3.17246">
        <ele>389</ele>
        <time>2019-05-22T20:29:51Z</time>
      </trkpt>
      <trkpt lat="44.2018" lon="3.17308">
        <ele>388</ele>
        <time>2019-05-22T20:29:58Z</time>
      </trkpt>
      <trkpt lat="44.20178" lon="3.17327">
        <ele>388</ele>
        <time>2019-05-22T20:30:01Z</time>
      </trkpt>
      <trkpt lat="44.20173" lon="3.1735">
        <ele>390</ele>
        <time>2019-05-22T20:30:04Z</time>
      </trkpt>
      <trkpt lat="44.20167" lon="3.17365">
        <ele>390</ele>
        <time>2019-05-22T20:30:06Z</time>
      </trkpt>
      <trkpt lat="44.2015" lon="3.17392">
        <ele>391</ele>
        <time>2019-05-22T20:30:11Z</time>
      </trkpt>
      <trkpt lat="44.20135" lon="3.17426">
        <ele>392</ele>
        <time>2019-05-22T20:30:16Z</time>
      </trkpt>
      <trkpt lat="44.20123" lon="3.17462">
        <ele>392</ele>
        <time>2019-05-22T20:30:21Z</time>
      </trkpt>
      <trkpt lat="44.20108" lon="3.17527">
        <ele>392</ele>
        <time>2019-05-22T20:30:30Z</time>
      </trkpt>
      <trkpt lat="44.20105" lon="3.17559">
        <ele>393</ele>
        <time>2019-05-22T20:30:34Z</time>
      </trkpt>
      <trkpt lat="44.20104" lon="3.17611">
        <ele>395</ele>
        <time>2019-05-22T20:30:40Z</time>
      </trkpt>
      <trkpt lat="44.20098" lon="3.1766">
        <ele>395</ele>
        <time>2019-05-22T20:30:47Z</time>
      </trkpt>
      <trkpt lat="44.20081" lon="3.17766">
        <ele>395</ele>
        <time>2019-05-22T20:31:01Z</time>
      </trkpt>
      <trkpt lat="44.20068" lon="3.17807">
        <ele>397</ele>
        <time>2019-05-22T20:31:06Z</time>
      </trkpt>
      <trkpt lat="44.20029" lon="3.17897">
        <ele>397</ele>
        <time>2019-05-22T20:31:20Z</time>
      </trkpt>
      <trkpt lat="44.19995" lon="3.17993">
        <ele>397</ele>
        <time>2019-05-22T20:31:33Z</time>
      </trkpt>
      <trkpt lat="44.19982" lon="3.18037">
        <ele>397</ele>
        <time>2019-05-22T20:31:39Z</time>
      </trkpt>
      <trkpt lat="44.19975" lon="3.18077">
        <ele>398</ele>
        <time>2019-05-22T20:31:45Z</time>
      </trkpt>
      <trkpt lat="44.19973" lon="3.18109">
        <ele>398</ele>
        <time>2019-05-22T20:31:49Z</time>
      </trkpt>
      <trkpt lat="44.19973" lon="3.18146">
        <ele>399</ele>
        <time>2019-05-22T20:31:54Z</time>
      </trkpt>
      <trkpt lat="44.19978" lon="3.1821">
        <ele>402</ele>
        <time>2019-05-22T20:32:02Z</time>
      </trkpt>
      <trkpt lat="44.19977" lon="3.18241">
        <ele>403</ele>
        <time>2019-05-22T20:32:06Z</time>
      </trkpt>
      <trkpt lat="44.19972" lon="3.18274">
        <ele>403</ele>
        <time>2019-05-22T20:32:10Z</time>
      </trkpt>
      <trkpt lat="44.19963" lon="3.18309">
        <ele>403</ele>
        <time>2019-05-22T20:32:15Z</time>
      </trkpt>
      <trkpt lat="44.19947" lon="3.18348">
        <ele>402</ele>
        <time>2019-05-22T20:32:20Z</time>
      </trkpt>
      <trkpt lat="44.1993" lon="3.18387">
        <ele>403</ele>
        <time>2019-05-22T20:32:26Z</time>
      </trkpt>
      <trkpt lat="44.19908" lon="3.18424">
        <ele>403</ele>
        <time>2019-05-22T20:32:32Z</time>
      </trkpt>
      <trkpt lat="44.19873" lon="3.18464">
        <ele>403</ele>
        <time>2019-05-22T20:32:40Z</time>
      </trkpt>
      <trkpt lat="44.19697" lon="3.18584">
        <ele>397</ele>
        <time>2019-05-22T20:33:15Z</time>
      </trkpt>
      <trkpt lat="44.19679" lon="3.18603">
        <ele>397</ele>
        <time>2019-05-22T20:33:19Z</time>
      </trkpt>
      <trkpt lat="44.19669" lon="3.18618">
        <ele>398</ele>
        <time>2019-05-22T20:33:22Z</time>
      </trkpt>
      <trkpt lat="44.1965" lon="3.18657">
        <ele>399</ele>
        <time>2019-05-22T20:33:28Z</time>
      </trkpt>
      <trkpt lat="44.19642" lon="3.18686">
        <ele>399</ele>
        <time>2019-05-22T20:33:32Z</time>
      </trkpt>
      <trkpt lat="44.19638" lon="3.18706">
        <ele>398</ele>
        <time>2019-05-22T20:33:35Z</time>
      </trkpt>
      <trkpt lat="44.19637" lon="3.18735">
        <ele>399</ele>
        <time>2019-05-22T20:33:38Z</time>
      </trkpt>
      <trkpt lat="44.19639" lon="3.18769">
        <ele>398</ele>
        <time>2019-05-22T20:33:43Z</time>
      </trkpt>
      <trkpt lat="44.19644" lon="3.18792">
        <ele>397</ele>
        <time>2019-05-22T20:33:46Z</time>
      </trkpt>
      <trkpt lat="44.19656" lon="3.18822">
        <ele>396</ele>
        <time>2019-05-22T20:33:50Z</time>
      </trkpt>
      <trkpt lat="44.1967" lon="3.18843">
        <ele>395</ele>
        <time>2019-05-22T20:33:54Z</time>
      </trkpt>
      <trkpt lat="44.19686" lon="3.18857">
        <ele>395</ele>
        <time>2019-05-22T20:33:57Z</time>
      </trkpt>
      <trkpt lat="44.1974" lon="3.18882">
        <ele>396</ele>
        <time>2019-05-22T20:34:07Z</time>
      </trkpt>
      <trkpt lat="44.19763" lon="3.18897">
        <ele>395</ele>
        <time>2019-05-22T20:34:12Z</time>
      </trkpt>
      <trkpt lat="44.19774" lon="3.18907">
        <ele>395</ele>
        <time>2019-05-22T20:34:14Z</time>
      </trkpt>
      <trkpt lat="44.19792" lon="3.18933">
        <ele>394</ele>
        <time>2019-05-22T20:34:19Z</time>
      </trkpt>
      <trkpt lat="44.19866" lon="3.19079">
        <ele>397</ele>
        <time>2019-05-22T20:34:41Z</time>
      </trkpt>
      <trkpt lat="44.19877" lon="3.19115">
        <ele>397</ele>
        <time>2019-05-22T20:34:46Z</time>
      </trkpt>
      <trkpt lat="44.19879" lon="3.19155">
        <ele>396</ele>
        <time>2019-05-22T20:34:52Z</time>
      </trkpt>
      <trkpt lat="44.19875" lon="3.19228">
        <ele>397</ele>
        <time>2019-05-22T20:35:01Z</time>
      </trkpt>
      <trkpt lat="44.1987" lon="3.19261">
        <ele>397</ele>
        <time>2019-05-22T20:35:05Z</time>
      </trkpt>
      <trkpt lat="44.19859" lon="3.19315">
        <ele>399</ele>
        <time>2019-05-22T20:35:12Z</time>
      </trkpt>
      <trkpt lat="44.19769" lon="3.19545">
        <ele>400</ele>
        <time>2019-05-22T20:35:46Z</time>
      </trkpt>
      <trkpt lat="44.19759" lon="3.19577">
        <ele>399</ele>
        <time>2019-05-22T20:35:50Z</time>
      </trkpt>
      <trkpt lat="44.1972" lon="3.19732">
        <ele>397</ele>
        <time>2019-05-22T20:36:11Z</time>
      </trkpt>
      <trkpt lat="44.19707" lon="3.19773">
        <ele>398</ele>
        <time>2019-05-22T20:36:17Z</time>
      </trkpt>
      <trkpt lat="44.1969" lon="3.19808">
        <ele>399</ele>
        <time>2019-05-22T20:36:22Z</time>
      </trkpt>
      <trkpt lat="44.19559" lon="3.20029">
        <ele>396</ele>
        <time>2019-05-22T20:36:59Z</time>
      </trkpt>
      <trkpt lat="44.19547" lon="3.20065">
        <ele>398</ele>
        <time>2019-05-22T20:37:04Z</time>
      </trkpt>
      <trkpt lat="44.19531" lon="3.20146">
        <ele>400</ele>
        <time>2019-05-22T20:37:15Z</time>
      </trkpt>
      <trkpt lat="44.19508" lon="3.20229">
        <ele>399</ele>
        <time>2019-05-22T20:37:26Z</time>
      </trkpt>
      <trkpt lat="44.19485" lon="3.20368">
        <ele>399</ele>
        <time>2019-05-22T20:37:44Z</time>
      </trkpt>
      <trkpt lat="44.19469" lon="3.20426">
        <ele>398</ele>
        <time>2019-05-22T20:37:52Z</time>
      </trkpt>
      <trkpt lat="44.19451" lon="3.20468">
        <ele>396</ele>
        <time>2019-05-22T20:37:58Z</time>
      </trkpt>
      <trkpt lat="44.19446" lon="3.2049">
        <ele>395</ele>
        <time>2019-05-22T20:38:01Z</time>
      </trkpt>
      <trkpt lat="44.19457" lon="3.20594">
        <ele>397</ele>
        <time>2019-05-22T20:38:15Z</time>
      </trkpt>
      <trkpt lat="44.19456" lon="3.20636">
        <ele>398</ele>
        <time>2019-05-22T20:38:20Z</time>
      </trkpt>
      <trkpt lat="44.19451" lon="3.20673">
        <ele>398</ele>
        <time>2019-05-22T20:38:25Z</time>
      </trkpt>
      <trkpt lat="44.19449" lon="3.20704">
        <ele>399</ele>
        <time>2019-05-22T20:38:29Z</time>
      </trkpt>
      <trkpt lat="44.19455" lon="3.20754">
        <ele>401</ele>
        <time>2019-05-22T20:38:35Z</time>
      </trkpt>
      <trkpt lat="44.19449" lon="3.20772">
        <ele>400</ele>
        <time>2019-05-22T20:38:38Z</time>
      </trkpt>
      <trkpt lat="44.19438" lon="3.20788">
        <ele>397</ele>
        <time>2019-05-22T20:38:41Z</time>
      </trkpt>
      <trkpt lat="44.19424" lon="3.20801">
        <ele>394</ele>
        <time>2019-05-22T20:38:44Z</time>
      </trkpt>
      <trkpt lat="44.19337" lon="3.20845">
        <ele>407</ele>
        <time>2019-05-22T20:39:00Z</time>
      </trkpt>
      <trkpt lat="44.19327" lon="3.20848">
        <ele>410</ele>
        <time>2019-05-22T20:39:02Z</time>
      </trkpt>
      <trkpt lat="44.1932" lon="3.20843">
        <ele>411</ele>
        <time>2019-05-22T20:39:03Z</time>
      </trkpt>
      <trkpt lat="44.19295" lon="3.20793">
        <ele>409</ele>
        <time>2019-05-22T20:39:11Z</time>
      </trkpt>
      <trkpt lat="44.19282" lon="3.20772">
        <ele>408</ele>
        <time>2019-05-22T20:39:15Z</time>
      </trkpt>
      <trkpt lat="44.19236" lon="3.20721">
        <ele>407</ele>
        <time>2019-05-22T20:39:25Z</time>
      </trkpt>
      <trkpt lat="44.19223" lon="3.20699">
        <ele>405</ele>
        <time>2019-05-22T20:39:29Z</time>
      </trkpt>
      <trkpt lat="44.19185" lon="3.20622">
        <ele>401</ele>
        <time>2019-05-22T20:39:41Z</time>
      </trkpt>
      <trkpt lat="44.19178" lon="3.20612">
        <ele>401</ele>
        <time>2019-05-22T20:39:43Z</time>
      </trkpt>
      <trkpt lat="44.19167" lon="3.20605">
        <ele>401</ele>
        <time>2019-05-22T20:39:45Z</time>
      </trkpt>
      <trkpt lat="44.19109" lon="3.20622">
        <ele>400</ele>
        <time>2019-05-22T20:39:55Z</time>
      </trkpt>
      <trkpt lat="44.19089" lon="3.20632">
        <ele>400</ele>
        <time>2019-05-22T20:39:59Z</time>
      </trkpt>
      <trkpt lat="44.1908" lon="3.20649">
        <ele>400</ele>
        <time>2019-05-22T20:40:02Z</time>
      </trkpt>
      <trkpt lat="44.19075" lon="3.20706">
        <ele>400</ele>
        <time>2019-05-22T20:40:09Z</time>
      </trkpt>
      <trkpt lat="44.19069" lon="3.20722">
        <ele>400</ele>
        <time>2019-05-22T20:40:11Z</time>
      </trkpt>
      <trkpt lat="44.19066" lon="3.20751">
        <ele>399</ele>
        <time>2019-05-22T20:40:15Z</time>
      </trkpt>
      <trkpt lat="44.19068" lon="3.2076">
        <ele>400</ele>
        <time>2019-05-22T20:40:16Z</time>
      </trkpt>
      <trkpt lat="44.19066" lon="3.20764">
        <ele>400</ele>
        <time>2019-05-22T20:40:17Z</time>
      </trkpt>
      <trkpt lat="44.19063" lon="3.20781">
        <ele>401</ele>
        <time>2019-05-22T20:40:19Z</time>
      </trkpt>
      <trkpt lat="44.19061" lon="3.20808">
        <ele>402</ele>
        <time>2019-05-22T20:40:23Z</time>
      </trkpt>
      <trkpt lat="44.19055" lon="3.20858">
        <ele>403</ele>
        <time>2019-05-22T20:40:29Z</time>
      </trkpt>
      <trkpt lat="44.19052" lon="3.20903">
        <ele>404</ele>
        <time>2019-05-22T20:40:35Z</time>
      </trkpt>
      <trkpt lat="44.19022" lon="3.21243">
        <ele>414</ele>
        <time>2019-05-22T20:41:19Z</time>
      </trkpt>
      <trkpt lat="44.19014" lon="3.21318">
        <ele>414</ele>
        <time>2019-05-22T20:41:28Z</time>
      </trkpt>
      <trkpt lat="44.19011" lon="3.21402">
        <ele>414</ele>
        <time>2019-05-22T20:41:39Z</time>
      </trkpt>
      <trkpt lat="44.19019" lon="3.21468">
        <ele>414</ele>
        <time>2019-05-22T20:41:47Z</time>
      </trkpt>
      <trkpt lat="44.19029" lon="3.21506">
        <ele>416</ele>
        <time>2019-05-22T20:41:53Z</time>
      </trkpt>
      <trkpt lat="44.19041" lon="3.21543">
        <ele>419</ele>
        <time>2019-05-22T20:41:58Z</time>
      </trkpt>
      <trkpt lat="44.19061" lon="3.21594">
        <ele>422</ele>
        <time>2019-05-22T20:42:05Z</time>
      </trkpt>
      <trkpt lat="44.19077" lon="3.21629">
        <ele>421</ele>
        <time>2019-05-22T20:42:11Z</time>
      </trkpt>
      <trkpt lat="44.19094" lon="3.21673">
        <ele>420</ele>
        <time>2019-05-22T20:42:17Z</time>
      </trkpt>
      <trkpt lat="44.19151" lon="3.21801">
        <ele>431</ele>
        <time>2019-05-22T20:42:36Z</time>
      </trkpt>
      <trkpt lat="44.19156" lon="3.21836">
        <ele>430</ele>
        <time>2019-05-22T20:42:41Z</time>
      </trkpt>
      <trkpt lat="44.19151" lon="3.21959">
        <ele>431</ele>
        <time>2019-05-22T20:42:56Z</time>
      </trkpt>
      <trkpt lat="44.19152" lon="3.22216">
        <ele>425</ele>
        <time>2019-05-22T20:43:29Z</time>
      </trkpt>
      <trkpt lat="44.19155" lon="3.22235">
        <ele>423</ele>
        <time>2019-05-22T20:43:32Z</time>
      </trkpt>
      <trkpt lat="44.19163" lon="3.22246">
        <ele>423</ele>
        <time>2019-05-22T20:43:34Z</time>
      </trkpt>
      <trkpt lat="44.19198" lon="3.22261">
        <ele>436</ele>
        <time>2019-05-22T20:43:40Z</time>
      </trkpt>
      <trkpt lat="44.19206" lon="3.22268">
        <ele>439</ele>
        <time>2019-05-22T20:43:42Z</time>
      </trkpt>
      <trkpt lat="44.19209" lon="3.22281">
        <ele>441</ele>
        <time>2019-05-22T20:43:44Z</time>
      </trkpt>
      <trkpt lat="44.19209" lon="3.22297">
        <ele>441</ele>
        <time>2019-05-22T20:43:46Z</time>
      </trkpt>
      <trkpt lat="44.19197" lon="3.22334">
        <ele>436</ele>
        <time>2019-05-22T20:43:51Z</time>
      </trkpt>
      <trkpt lat="44.19194" lon="3.22377">
        <ele>438</ele>
        <time>2019-05-22T20:43:56Z</time>
      </trkpt>
      <trkpt lat="44.19194" lon="3.22436">
        <ele>442</ele>
        <time>2019-05-22T20:44:04Z</time>
      </trkpt>
      <trkpt lat="44.19197" lon="3.22474">
        <ele>444</ele>
        <time>2019-05-22T20:44:09Z</time>
      </trkpt>
      <trkpt lat="44.19203" lon="3.225">
        <ele>448</ele>
        <time>2019-05-22T20:44:12Z</time>
      </trkpt>
      <trkpt lat="44.19222" lon="3.22546">
        <ele>457</ele>
        <time>2019-05-22T20:44:19Z</time>
      </trkpt>
      <trkpt lat="44.19224" lon="3.2256">
        <ele>457</ele>
        <time>2019-05-22T20:44:21Z</time>
      </trkpt>
      <trkpt lat="44.19224" lon="3.22571">
        <ele>457</ele>
        <time>2019-05-22T20:44:22Z</time>
      </trkpt>
      <trkpt lat="44.1922" lon="3.22582">
        <ele>455</ele>
        <time>2019-05-22T20:44:24Z</time>
      </trkpt>
      <trkpt lat="44.1919" lon="3.2262">
        <ele>451</ele>
        <time>2019-05-22T20:44:31Z</time>
      </trkpt>
      <trkpt lat="44.19172" lon="3.22646">
        <ele>450</ele>
        <time>2019-05-22T20:44:36Z</time>
      </trkpt>
      <trkpt lat="44.19155" lon="3.22685">
        <ele>452</ele>
        <time>2019-05-22T20:44:41Z</time>
      </trkpt>
      <trkpt lat="44.19126" lon="3.22774">
        <ele>454</ele>
        <time>2019-05-22T20:44:54Z</time>
      </trkpt>
      <trkpt lat="44.19116" lon="3.22822">
        <ele>454</ele>
        <time>2019-05-22T20:45:00Z</time>
      </trkpt>
      <trkpt lat="44.19115" lon="3.22842">
        <ele>455</ele>
        <time>2019-05-22T20:45:03Z</time>
      </trkpt>
      <trkpt lat="44.19122" lon="3.22883">
        <ele>464</ele>
        <time>2019-05-22T20:45:08Z</time>
      </trkpt>
      <trkpt lat="44.19123" lon="3.22901">
        <ele>466</ele>
        <time>2019-05-22T20:45:11Z</time>
      </trkpt>
      <trkpt lat="44.19122" lon="3.22922">
        <ele>467</ele>
        <time>2019-05-22T20:45:13Z</time>
      </trkpt>
      <trkpt lat="44.19111" lon="3.23045">
        <ele>472</ele>
        <time>2019-05-22T20:45:29Z</time>
      </trkpt>
      <trkpt lat="44.19107" lon="3.23139">
        <ele>474</ele>
        <time>2019-05-22T20:45:41Z</time>
      </trkpt>
      <trkpt lat="44.19107" lon="3.23162">
        <ele>475</ele>
        <time>2019-05-22T20:45:44Z</time>
      </trkpt>
      <trkpt lat="44.1912" lon="3.23215">
        <ele>482</ele>
        <time>2019-05-22T20:45:51Z</time>
      </trkpt>
      <trkpt lat="44.19122" lon="3.2324">
        <ele>483</ele>
        <time>2019-05-22T20:45:54Z</time>
      </trkpt>
      <trkpt lat="44.19119" lon="3.23355">
        <ele>485</ele>
        <time>2019-05-22T20:46:09Z</time>
      </trkpt>
      <trkpt lat="44.19122" lon="3.23395">
        <ele>488</ele>
        <time>2019-05-22T20:46:14Z</time>
      </trkpt>
      <trkpt lat="44.1914" lon="3.23551">
        <ele>492</ele>
        <time>2019-05-22T20:46:34Z</time>
      </trkpt>
      <trkpt lat="44.19144" lon="3.23571">
        <ele>493</ele>
        <time>2019-05-22T20:46:37Z</time>
      </trkpt>
      <trkpt lat="44.19152" lon="3.23592">
        <ele>496</ele>
        <time>2019-05-22T20:46:40Z</time>
      </trkpt>
      <trkpt lat="44.19157" lon="3.23614">
        <ele>498</ele>
        <time>2019-05-22T20:46:43Z</time>
      </trkpt>
      <trkpt lat="44.1916" lon="3.23633">
        <ele>498</ele>
        <time>2019-05-22T20:46:45Z</time>
      </trkpt>
      <trkpt lat="44.1916" lon="3.23654">
        <ele>497</ele>
        <time>2019-05-22T20:46:48Z</time>
      </trkpt>
      <trkpt lat="44.19162" lon="3.23673">
        <ele>497</ele>
        <time>2019-05-22T20:46:51Z</time>
      </trkpt>
      <trkpt lat="44.19166" lon="3.23691">
        <ele>499</ele>
        <time>2019-05-22T20:46:53Z</time>
      </trkpt>
      <trkpt lat="44.1917" lon="3.23703">
        <ele>502</ele>
        <time>2019-05-22T20:46:55Z</time>
      </trkpt>
      <trkpt lat="44.19181" lon="3.23753">
        <ele>507</ele>
        <time>2019-05-22T20:47:01Z</time>
      </trkpt>
      <trkpt lat="44.19195" lon="3.23799">
        <ele>507</ele>
        <time>2019-05-22T20:47:08Z</time>
      </trkpt>
      <trkpt lat="44.192" lon="3.23846">
        <ele>501</ele>
        <time>2019-05-22T20:47:14Z</time>
      </trkpt>
      <trkpt lat="44.19204" lon="3.23862">
        <ele>501</ele>
        <time>2019-05-22T20:47:16Z</time>
      </trkpt>
      <trkpt lat="44.19211" lon="3.23884">
        <ele>501</ele>
        <time>2019-05-22T20:47:19Z</time>
      </trkpt>
      <trkpt lat="44.1923" lon="3.23927">
        <ele>503</ele>
        <time>2019-05-22T20:47:25Z</time>
      </trkpt>
      <trkpt lat="44.19245" lon="3.23954">
        <ele>505</ele>
        <time>2019-05-22T20:47:30Z</time>
      </trkpt>
      <trkpt lat="44.19259" lon="3.23975">
        <ele>507</ele>
        <time>2019-05-22T20:47:33Z</time>
      </trkpt>
      <trkpt lat="44.19291" lon="3.24007">
        <ele>516</ele>
        <time>2019-05-22T20:47:40Z</time>
      </trkpt>
      <trkpt lat="44.19306" lon="3.24026">
        <ele>519</ele>
        <time>2019-05-22T20:47:44Z</time>
      </trkpt>
      <trkpt lat="44.19319" lon="3.24048">
        <ele>520</ele>
        <time>2019-05-22T20:47:48Z</time>
      </trkpt>
      <trkpt lat="44.19344" lon="3.24101">
        <ele>517</ele>
        <time>2019-05-22T20:47:56Z</time>
      </trkpt>
      <trkpt lat="44.19358" lon="3.24118">
        <ele>518</ele>
        <time>2019-05-22T20:47:59Z</time>
      </trkpt>
      <trkpt lat="44.19377" lon="3.24134">
        <ele>521</ele>
        <time>2019-05-22T20:48:03Z</time>
      </trkpt>
      <trkpt lat="44.19411" lon="3.24159">
        <ele>528</ele>
        <time>2019-05-22T20:48:10Z</time>
      </trkpt>
      <trkpt lat="44.19451" lon="3.24197">
        <ele>536</ele>
        <time>2019-05-22T20:48:18Z</time>
      </trkpt>
      <trkpt lat="44.19474" lon="3.24224">
        <ele>541</ele>
        <time>2019-05-22T20:48:24Z</time>
      </trkpt>
      <trkpt lat="44.1949" lon="3.24254">
        <ele>542</ele>
        <time>2019-05-22T20:48:29Z</time>
      </trkpt>
      <trkpt lat="44.195" lon="3.24281">
        <ele>542</ele>
        <time>2019-05-22T20:48:32Z</time>
      </trkpt>
      <trkpt lat="44.19511" lon="3.24321">
        <ele>539</ele>
        <time>2019-05-22T20:48:38Z</time>
      </trkpt>
      <trkpt lat="44.19526" lon="3.24425">
        <ele>536</ele>
        <time>2019-05-22T20:48:51Z</time>
      </trkpt>
      <trkpt lat="44.19533" lon="3.24443">
        <ele>535</ele>
        <time>2019-05-22T20:48:54Z</time>
      </trkpt>
      <trkpt lat="44.19544" lon="3.24457">
        <ele>537</ele>
        <time>2019-05-22T20:48:57Z</time>
      </trkpt>
      <trkpt lat="44.19592" lon="3.2449">
        <ele>547</ele>
        <time>2019-05-22T20:49:06Z</time>
      </trkpt>
      <trkpt lat="44.19603" lon="3.24504">
        <ele>549</ele>
        <time>2019-05-22T20:49:09Z</time>
      </trkpt>
      <trkpt lat="44.19611" lon="3.24522">
        <ele>551</ele>
        <time>2019-05-22T20:49:12Z</time>
      </trkpt>
      <trkpt lat="44.19614" lon="3.24542">
        <ele>551</ele>
        <time>2019-05-22T20:49:14Z</time>
      </trkpt>
      <trkpt lat="44.19615" lon="3.24624">
        <ele>542</ele>
        <time>2019-05-22T20:49:25Z</time>
      </trkpt>
      <trkpt lat="44.19614" lon="3.24754">
        <ele>503</ele>
        <time>2019-05-22T20:49:41Z</time>
      </trkpt>
      <trkpt lat="44.19615" lon="3.24775">
        <ele>497</ele>
        <time>2019-05-22T20:49:44Z</time>
      </trkpt>
      <trkpt lat="44.1962" lon="3.24791">
        <ele>497</ele>
        <time>2019-05-22T20:49:46Z</time>
      </trkpt>
      <trkpt lat="44.19629" lon="3.24801">
        <ele>500</ele>
        <time>2019-05-22T20:49:48Z</time>
      </trkpt>
      <trkpt lat="44.19641" lon="3.24802">
        <ele>509</ele>
        <time>2019-05-22T20:49:50Z</time>
      </trkpt>
      <trkpt lat="44.19693" lon="3.24788">
        <ele>540</ele>
        <time>2019-05-22T20:50:00Z</time>
      </trkpt>
      <trkpt lat="44.19708" lon="3.24788">
        <ele>544</ele>
        <time>2019-05-22T20:50:02Z</time>
      </trkpt>
      <trkpt lat="44.1972" lon="3.24793">
        <ele>546</ele>
        <time>2019-05-22T20:50:05Z</time>
      </trkpt>
      <trkpt lat="44.19732" lon="3.24805">
        <ele>546</ele>
        <time>2019-05-22T20:50:07Z</time>
      </trkpt>
      <trkpt lat="44.19738" lon="3.2482">
        <ele>545</ele>
        <time>2019-05-22T20:50:10Z</time>
      </trkpt>
      <trkpt lat="44.19752" lon="3.24874">
        <ele>541</ele>
        <time>2019-05-22T20:50:17Z</time>
      </trkpt>
      <trkpt lat="44.1976" lon="3.24892">
        <ele>542</ele>
        <time>2019-05-22T20:50:20Z</time>
      </trkpt>
      <trkpt lat="44.19774" lon="3.24913">
        <ele>545</ele>
        <time>2019-05-22T20:50:23Z</time>
      </trkpt>
      <trkpt lat="44.19798" lon="3.24941">
        <ele>549</ele>
        <time>2019-05-22T20:50:29Z</time>
      </trkpt>
      <trkpt lat="44.19808" lon="3.24961">
        <ele>549</ele>
        <time>2019-05-22T20:50:32Z</time>
      </trkpt>
      <trkpt lat="44.19816" lon="3.24987">
        <ele>548</ele>
        <time>2019-05-22T20:50:35Z</time>
      </trkpt>
      <trkpt lat="44.19827" lon="3.25031">
        <ele>548</ele>
        <time>2019-05-22T20:50:41Z</time>
      </trkpt>
      <trkpt lat="44.19829" lon="3.2505">
        <ele>548</ele>
        <time>2019-05-22T20:50:44Z</time>
      </trkpt>
      <trkpt lat="44.19822" lon="3.25127">
        <ele>534</ele>
        <time>2019-05-22T20:50:54Z</time>
      </trkpt>
      <trkpt lat="44.19824" lon="3.25145">
        <ele>532</ele>
        <time>2019-05-22T20:50:56Z</time>
      </trkpt>
      <trkpt lat="44.19829" lon="3.25159">
        <ele>533</ele>
        <time>2019-05-22T20:50:58Z</time>
      </trkpt>
      <trkpt lat="44.19861" lon="3.25201">
        <ele>538</ele>
        <time>2019-05-22T20:51:06Z</time>
      </trkpt>
      <trkpt lat="44.19885" lon="3.25241">
        <ele>541</ele>
        <time>2019-05-22T20:51:13Z</time>
      </trkpt>
      <trkpt lat="44.19892" lon="3.25259">
        <ele>542</ele>
        <time>2019-05-22T20:51:15Z</time>
      </trkpt>
      <trkpt lat="44.19897" lon="3.25296">
        <ele>540</ele>
        <time>2019-05-22T20:51:20Z</time>
      </trkpt>
      <trkpt lat="44.19894" lon="3.25336">
        <ele>532</ele>
        <time>2019-05-22T20:51:25Z</time>
      </trkpt>
      <trkpt lat="44.19896" lon="3.25358">
        <ele>531</ele>
        <time>2019-05-22T20:51:28Z</time>
      </trkpt>
      <trkpt lat="44.19901" lon="3.25391">
        <ele>530</ele>
        <time>2019-05-22T20:51:32Z</time>
      </trkpt>
      <trkpt lat="44.19902" lon="3.25411">
        <ele>529</ele>
        <time>2019-05-22T20:51:35Z</time>
      </trkpt>
      <trkpt lat="44.199" lon="3.25463">
        <ele>520</ele>
        <time>2019-05-22T20:51:41Z</time>
      </trkpt>
      <trkpt lat="44.19906" lon="3.25506">
        <ele>518</ele>
        <time>2019-05-22T20:51:47Z</time>
      </trkpt>
      <trkpt lat="44.19912" lon="3.25522">
        <ele>519</ele>
        <time>2019-05-22T20:51:49Z</time>
      </trkpt>
      <trkpt lat="44.19922" lon="3.25528">
        <ele>522</ele>
        <time>2019-05-22T20:51:51Z</time>
      </trkpt>
      <trkpt lat="44.19943" lon="3.25524">
        <ele>530</ele>
        <time>2019-05-22T20:51:55Z</time>
      </trkpt>
      <trkpt lat="44.19961" lon="3.25524">
        <ele>536</ele>
        <time>2019-05-22T20:51:58Z</time>
      </trkpt>
      <trkpt lat="44.19975" lon="3.25528">
        <ele>540</ele>
        <time>2019-05-22T20:52:01Z</time>
      </trkpt>
      <trkpt lat="44.19984" lon="3.25536">
        <ele>542</ele>
        <time>2019-05-22T20:52:03Z</time>
      </trkpt>
      <trkpt lat="44.19989" lon="3.25545">
        <ele>543</ele>
        <time>2019-05-22T20:52:04Z</time>
      </trkpt>
      <trkpt lat="44.1999" lon="3.25553">
        <ele>542</ele>
        <time>2019-05-22T20:52:05Z</time>
      </trkpt>
      <trkpt lat="44.19984" lon="3.25586">
        <ele>537</ele>
        <time>2019-05-22T20:52:10Z</time>
      </trkpt>
      <trkpt lat="44.19976" lon="3.25623">
        <ele>534</ele>
        <time>2019-05-22T20:52:14Z</time>
      </trkpt>
      <trkpt lat="44.19957" lon="3.25726">
        <ele>524</ele>
        <time>2019-05-22T20:52:28Z</time>
      </trkpt>
      <trkpt lat="44.19949" lon="3.25761">
        <ele>519</ele>
        <time>2019-05-22T20:52:33Z</time>
      </trkpt>
      <trkpt lat="44.19949" lon="3.25779">
        <ele>518</ele>
        <time>2019-05-22T20:52:35Z</time>
      </trkpt>
      <trkpt lat="44.19958" lon="3.25825">
        <ele>522</ele>
        <time>2019-05-22T20:52:41Z</time>
      </trkpt>
      <trkpt lat="44.19959" lon="3.25848">
        <ele>519</ele>
        <time>2019-05-22T20:52:44Z</time>
      </trkpt>
      <trkpt lat="44.19966" lon="3.25882">
        <ele>515</ele>
        <time>2019-05-22T20:52:49Z</time>
      </trkpt>
      <trkpt lat="44.19976" lon="3.25901">
        <ele>516</ele>
        <time>2019-05-22T20:52:52Z</time>
      </trkpt>
      <trkpt lat="44.20012" lon="3.25937">
        <ele>525</ele>
        <time>2019-05-22T20:52:59Z</time>
      </trkpt>
      <trkpt lat="44.20025" lon="3.25957">
        <ele>527</ele>
        <time>2019-05-22T20:53:03Z</time>
      </trkpt>
      <trkpt lat="44.20034" lon="3.25978">
        <ele>526</ele>
        <time>2019-05-22T20:53:06Z</time>
      </trkpt>
      <trkpt lat="44.20039" lon="3.26001">
        <ele>523</ele>
        <time>2019-05-22T20:53:09Z</time>
      </trkpt>
      <trkpt lat="44.20047" lon="3.26081">
        <ele>511</ele>
        <time>2019-05-22T20:53:19Z</time>
      </trkpt>
      <trkpt lat="44.20053" lon="3.26096">
        <ele>512</ele>
        <time>2019-05-22T20:53:22Z</time>
      </trkpt>
      <trkpt lat="44.20082" lon="3.26132">
        <ele>522</ele>
        <time>2019-05-22T20:53:28Z</time>
      </trkpt>
      <trkpt lat="44.20089" lon="3.26145">
        <ele>524</ele>
        <time>2019-05-22T20:53:31Z</time>
      </trkpt>
      <trkpt lat="44.20092" lon="3.26154">
        <ele>525</ele>
        <time>2019-05-22T20:53:32Z</time>
      </trkpt>
      <trkpt lat="44.20092" lon="3.26165">
        <ele>523</ele>
        <time>2019-05-22T20:53:33Z</time>
      </trkpt>
      <trkpt lat="44.20091" lon="3.26182">
        <ele>522</ele>
        <time>2019-05-22T20:53:35Z</time>
      </trkpt>
      <trkpt lat="44.20078" lon="3.26244">
        <ele>515</ele>
        <time>2019-05-22T20:53:44Z</time>
      </trkpt>
      <trkpt lat="44.20077" lon="3.26262">
        <ele>513</ele>
        <time>2019-05-22T20:53:46Z</time>
      </trkpt>
      <trkpt lat="44.20077" lon="3.26282">
        <ele>511</ele>
        <time>2019-05-22T20:53:48Z</time>
      </trkpt>
      <trkpt lat="44.20081" lon="3.26301">
        <ele>511</ele>
        <time>2019-05-22T20:53:51Z</time>
      </trkpt>
      <trkpt lat="44.20126" lon="3.26395">
        <ele>519</ele>
        <time>2019-05-22T20:54:05Z</time>
      </trkpt>
      <trkpt lat="44.20137" lon="3.26422">
        <ele>520</ele>
        <time>2019-05-22T20:54:09Z</time>
      </trkpt>
      <trkpt lat="44.20142" lon="3.26441">
        <ele>519</ele>
        <time>2019-05-22T20:54:12Z</time>
      </trkpt>
      <trkpt lat="44.20142" lon="3.26461">
        <ele>514</ele>
        <time>2019-05-22T20:54:15Z</time>
      </trkpt>
      <trkpt lat="44.20135" lon="3.26511">
        <ele>498</ele>
        <time>2019-05-22T20:54:21Z</time>
      </trkpt>
      <trkpt lat="44.20134" lon="3.26532">
        <ele>492</ele>
        <time>2019-05-22T20:54:24Z</time>
      </trkpt>
      <trkpt lat="44.2014" lon="3.26544">
        <ele>492</ele>
        <time>2019-05-22T20:54:26Z</time>
      </trkpt>
      <trkpt lat="44.20149" lon="3.26552">
        <ele>493</ele>
        <time>2019-05-22T20:54:27Z</time>
      </trkpt>
      <trkpt lat="44.20165" lon="3.26552">
        <ele>498</ele>
        <time>2019-05-22T20:54:30Z</time>
      </trkpt>
      <trkpt lat="44.20208" lon="3.26542">
        <ele>513</ele>
        <time>2019-05-22T20:54:38Z</time>
      </trkpt>
      <trkpt lat="44.20227" lon="3.26544">
        <ele>516</ele>
        <time>2019-05-22T20:54:41Z</time>
      </trkpt>
      <trkpt lat="44.20243" lon="3.2655">
        <ele>517</ele>
        <time>2019-05-22T20:54:44Z</time>
      </trkpt>
      <trkpt lat="44.20257" lon="3.26561">
        <ele>516</ele>
        <time>2019-05-22T20:54:47Z</time>
      </trkpt>
      <trkpt lat="44.20293" lon="3.26604">
        <ele>514</ele>
        <time>2019-05-22T20:54:56Z</time>
      </trkpt>
      <trkpt lat="44.20298" lon="3.26616">
        <ele>515</ele>
        <time>2019-05-22T20:54:57Z</time>
      </trkpt>
      <trkpt lat="44.20301" lon="3.26624">
        <ele>515</ele>
        <time>2019-05-22T20:54:59Z</time>
      </trkpt>
      <trkpt lat="44.20299" lon="3.26637">
        <ele>512</ele>
        <time>2019-05-22T20:55:00Z</time>
      </trkpt>
      <trkpt lat="44.20292" lon="3.26646">
        <ele>509</ele>
        <time>2019-05-22T20:55:02Z</time>
      </trkpt>
      <trkpt lat="44.20269" lon="3.26656">
        <ele>501</ele>
        <time>2019-05-22T20:55:06Z</time>
      </trkpt>
      <trkpt lat="44.20253" lon="3.26671">
        <ele>495</ele>
        <time>2019-05-22T20:55:10Z</time>
      </trkpt>
      <trkpt lat="44.20243" lon="3.26676">
        <ele>493</ele>
        <time>2019-05-22T20:55:12Z</time>
      </trkpt>
      <trkpt lat="44.20239" lon="3.26685">
        <ele>492</ele>
        <time>2019-05-22T20:55:13Z</time>
      </trkpt>
      <trkpt lat="44.20237" lon="3.267">
        <ele>493</ele>
        <time>2019-05-22T20:55:15Z</time>
      </trkpt>
      <trkpt lat="44.20234" lon="3.26769">
        <ele>500</ele>
        <time>2019-05-22T20:55:24Z</time>
      </trkpt>
      <trkpt lat="44.20222" lon="3.26842">
        <ele>501</ele>
        <time>2019-05-22T20:55:33Z</time>
      </trkpt>
      <trkpt lat="44.2021" lon="3.26886">
        <ele>497</ele>
        <time>2019-05-22T20:55:39Z</time>
      </trkpt>
      <trkpt lat="44.2021" lon="3.26886">
        <ele>497</ele>
        <time>2019-05-22T20:55:39Z</time>
      </trkpt>
      <trkpt lat="44.20204" lon="3.26903">
        <ele>495</ele>
        <time>2019-05-22T20:55:42Z</time>
      </trkpt>
      <trkpt lat="44.20182" lon="3.27017">
        <ele>490</ele>
        <time>2019-05-22T20:55:57Z</time>
      </trkpt>
      <trkpt lat="44.20176" lon="3.27098">
        <ele>490</ele>
        <time>2019-05-22T20:56:07Z</time>
      </trkpt>
      <trkpt lat="44.20166" lon="3.27146">
        <ele>485</ele>
        <time>2019-05-22T20:56:14Z</time>
      </trkpt>
      <trkpt lat="44.20164" lon="3.27198">
        <ele>489</ele>
        <time>2019-05-22T20:56:20Z</time>
      </trkpt>
      <trkpt lat="44.20156" lon="3.27226">
        <ele>491</ele>
        <time>2019-05-22T20:56:24Z</time>
      </trkpt>
      <trkpt lat="44.20142" lon="3.27253">
        <ele>490</ele>
        <time>2019-05-22T20:56:28Z</time>
      </trkpt>
      <trkpt lat="44.20123" lon="3.27288">
        <ele>488</ele>
        <time>2019-05-22T20:56:34Z</time>
      </trkpt>
      <trkpt lat="44.20115" lon="3.27304">
        <ele>487</ele>
        <time>2019-05-22T20:56:36Z</time>
      </trkpt>
      <trkpt lat="44.20094" lon="3.27362">
        <ele>487</ele>
        <time>2019-05-22T20:56:45Z</time>
      </trkpt>
      <trkpt lat="44.20085" lon="3.27379">
        <ele>486</ele>
        <time>2019-05-22T20:56:47Z</time>
      </trkpt>
      <trkpt lat="44.20064" lon="3.274">
        <ele>486</ele>
        <time>2019-05-22T20:56:52Z</time>
      </trkpt>
      <trkpt lat="44.20056" lon="3.27414">
        <ele>486</ele>
        <time>2019-05-22T20:56:54Z</time>
      </trkpt>
      <trkpt lat="44.20052" lon="3.2743">
        <ele>486</ele>
        <time>2019-05-22T20:56:56Z</time>
      </trkpt>
      <trkpt lat="44.20054" lon="3.27547">
        <ele>492</ele>
        <time>2019-05-22T20:57:11Z</time>
      </trkpt>
      <trkpt lat="44.20066" lon="3.2759">
        <ele>494</ele>
        <time>2019-05-22T20:57:17Z</time>
      </trkpt>
      <trkpt lat="44.20068" lon="3.27611">
        <ele>494</ele>
        <time>2019-05-22T20:57:20Z</time>
      </trkpt>
      <trkpt lat="44.20064" lon="3.27628">
        <ele>492</ele>
        <time>2019-05-22T20:57:22Z</time>
      </trkpt>
      <trkpt lat="44.20061" lon="3.27658">
        <ele>490</ele>
        <time>2019-05-22T20:57:26Z</time>
      </trkpt>
      <trkpt lat="44.20063" lon="3.27682">
        <ele>489</ele>
        <time>2019-05-22T20:57:29Z</time>
      </trkpt>
      <trkpt lat="44.2007" lon="3.27704">
        <ele>487</ele>
        <time>2019-05-22T20:57:32Z</time>
      </trkpt>
      <trkpt lat="44.20079" lon="3.27719">
        <ele>485</ele>
        <time>2019-05-22T20:57:35Z</time>
      </trkpt>
      <trkpt lat="44.20096" lon="3.27737">
        <ele>490</ele>
        <time>2019-05-22T20:57:38Z</time>
      </trkpt>
      <trkpt lat="44.20115" lon="3.27752">
        <ele>499</ele>
        <time>2019-05-22T20:57:42Z</time>
      </trkpt>
      <trkpt lat="44.20145" lon="3.27786">
        <ele>508</ele>
        <time>2019-05-22T20:57:49Z</time>
      </trkpt>
      <trkpt lat="44.20163" lon="3.2782">
        <ele>503</ele>
        <time>2019-05-22T20:57:55Z</time>
      </trkpt>
      <trkpt lat="44.20171" lon="3.27839">
        <ele>500</ele>
        <time>2019-05-22T20:57:57Z</time>
      </trkpt>
      <trkpt lat="44.20179" lon="3.27875">
        <ele>498</ele>
        <time>2019-05-22T20:58:02Z</time>
      </trkpt>
      <trkpt lat="44.20184" lon="3.27886">
        <ele>499</ele>
        <time>2019-05-22T20:58:04Z</time>
      </trkpt>
      <trkpt lat="44.2019" lon="3.27894">
        <ele>501</ele>
        <time>2019-05-22T20:58:05Z</time>
      </trkpt>
      <trkpt lat="44.20192" lon="3.27907">
        <ele>499</ele>
        <time>2019-05-22T20:58:07Z</time>
      </trkpt>
      <trkpt lat="44.2019" lon="3.2792">
        <ele>497</ele>
        <time>2019-05-22T20:58:09Z</time>
      </trkpt>
      <trkpt lat="44.20182" lon="3.27938">
        <ele>496</ele>
        <time>2019-05-22T20:58:11Z</time>
      </trkpt>
      <trkpt lat="44.20154" lon="3.27991">
        <ele>497</ele>
        <time>2019-05-22T20:58:20Z</time>
      </trkpt>
      <trkpt lat="44.20126" lon="3.28064">
        <ele>500</ele>
        <time>2019-05-22T20:58:30Z</time>
      </trkpt>
      <trkpt lat="44.20121" lon="3.28082">
        <ele>500</ele>
        <time>2019-05-22T20:58:33Z</time>
      </trkpt>
      <trkpt lat="44.20119" lon="3.28107">
        <ele>500</ele>
        <time>2019-05-22T20:58:36Z</time>
      </trkpt>
      <trkpt lat="44.2012" lon="3.28135">
        <ele>503</ele>
        <time>2019-05-22T20:58:40Z</time>
      </trkpt>
      <trkpt lat="44.20118" lon="3.28158">
        <ele>503</ele>
        <time>2019-05-22T20:58:43Z</time>
      </trkpt>
      <trkpt lat="44.20098" lon="3.28239">
        <ele>498</ele>
        <time>2019-05-22T20:58:54Z</time>
      </trkpt>
      <trkpt lat="44.20094" lon="3.2826">
        <ele>498</ele>
        <time>2019-05-22T20:58:56Z</time>
      </trkpt>
      <trkpt lat="44.20088" lon="3.28281">
        <ele>498</ele>
        <time>2019-05-22T20:58:59Z</time>
      </trkpt>
      <trkpt lat="44.2008" lon="3.28301">
        <ele>498</ele>
        <time>2019-05-22T20:59:02Z</time>
      </trkpt>
      <trkpt lat="44.20031" lon="3.28392">
        <ele>500</ele>
        <time>2019-05-22T20:59:17Z</time>
      </trkpt>
      <trkpt lat="44.20005" lon="3.28429">
        <ele>493</ele>
        <time>2019-05-22T20:59:23Z</time>
      </trkpt>
      <trkpt lat="44.19997" lon="3.28446">
        <ele>492</ele>
        <time>2019-05-22T20:59:26Z</time>
      </trkpt>
      <trkpt lat="44.19993" lon="3.2847">
        <ele>495</ele>
        <time>2019-05-22T20:59:29Z</time>
      </trkpt>
      <trkpt lat="44.19995" lon="3.28492">
        <ele>498</ele>
        <time>2019-05-22T20:59:32Z</time>
      </trkpt>
      <trkpt lat="44.2" lon="3.28514">
        <ele>498</ele>
        <time>2019-05-22T20:59:35Z</time>
      </trkpt>
      <trkpt lat="44.20018" lon="3.28566">
        <ele>504</ele>
        <time>2019-05-22T20:59:42Z</time>
      </trkpt>
      <trkpt lat="44.20024" lon="3.28597">
        <ele>506</ele>
        <time>2019-05-22T20:59:46Z</time>
      </trkpt>
      <trkpt lat="44.2003" lon="3.28649">
        <ele>507</ele>
        <time>2019-05-22T20:59:53Z</time>
      </trkpt>
      <trkpt lat="44.20032" lon="3.28695">
        <ele>508</ele>
        <time>2019-05-22T20:59:59Z</time>
      </trkpt>
      <trkpt lat="44.2003" lon="3.28741">
        <ele>508</ele>
        <time>2019-05-22T21:00:05Z</time>
      </trkpt>
      <trkpt lat="44.20026" lon="3.28783">
        <ele>503</ele>
        <time>2019-05-22T21:00:10Z</time>
      </trkpt>
      <trkpt lat="44.20025" lon="3.28823">
        <ele>500</ele>
        <time>2019-05-22T21:00:15Z</time>
      </trkpt>
      <trkpt lat="44.20029" lon="3.28847">
        <ele>499</ele>
        <time>2019-05-22T21:00:18Z</time>
      </trkpt>
      <trkpt lat="44.20041" lon="3.28866">
        <ele>500</ele>
        <time>2019-05-22T21:00:22Z</time>
      </trkpt>
      <trkpt lat="44.20065" lon="3.2889">
        <ele>503</ele>
        <time>2019-05-22T21:00:27Z</time>
      </trkpt>
      <trkpt lat="44.20136" lon="3.28948">
        <ele>499</ele>
        <time>2019-05-22T21:00:41Z</time>
      </trkpt>
      <trkpt lat="44.20146" lon="3.28952">
        <ele>498</ele>
        <time>2019-05-22T21:00:43Z</time>
      </trkpt>
      <trkpt lat="44.20156" lon="3.28951">
        <ele>500</ele>
        <time>2019-05-22T21:00:45Z</time>
      </trkpt>
      <trkpt lat="44.20167" lon="3.28946">
        <ele>502</ele>
        <time>2019-05-22T21:00:47Z</time>
      </trkpt>
      <trkpt lat="44.20176" lon="3.28939">
        <ele>505</ele>
        <time>2019-05-22T21:00:49Z</time>
      </trkpt>
      <trkpt lat="44.20185" lon="3.28936">
        <ele>506</ele>
        <time>2019-05-22T21:00:51Z</time>
      </trkpt>
      <trkpt lat="44.20195" lon="3.28935">
        <ele>507</ele>
        <time>2019-05-22T21:00:52Z</time>
      </trkpt>
      <trkpt lat="44.20205" lon="3.28937">
        <ele>507</ele>
        <time>2019-05-22T21:00:54Z</time>
      </trkpt>
      <trkpt lat="44.20219" lon="3.28936">
        <ele>508</ele>
        <time>2019-05-22T21:00:57Z</time>
      </trkpt>
      <trkpt lat="44.2024" lon="3.28931">
        <ele>510</ele>
        <time>2019-05-22T21:01:01Z</time>
      </trkpt>
      <trkpt lat="44.20259" lon="3.28932">
        <ele>512</ele>
        <time>2019-05-22T21:01:04Z</time>
      </trkpt>
      <trkpt lat="44.20277" lon="3.28938">
        <ele>512</ele>
        <time>2019-05-22T21:01:07Z</time>
      </trkpt>
      <trkpt lat="44.20373" lon="3.28997">
        <ele>501</ele>
        <time>2019-05-22T21:01:26Z</time>
      </trkpt>
      <trkpt lat="44.20394" lon="3.29008">
        <ele>502</ele>
        <time>2019-05-22T21:01:30Z</time>
      </trkpt>
      <trkpt lat="44.20419" lon="3.29015">
        <ele>505</ele>
        <time>2019-05-22T21:01:34Z</time>
      </trkpt>
      <trkpt lat="44.20481" lon="3.29016">
        <ele>508</ele>
        <time>2019-05-22T21:01:45Z</time>
      </trkpt>
      <trkpt lat="44.20521" lon="3.29009">
        <ele>511</ele>
        <time>2019-05-22T21:01:53Z</time>
      </trkpt>
      <trkpt lat="44.20539" lon="3.29003">
        <ele>513</ele>
        <time>2019-05-22T21:01:56Z</time>
      </trkpt>
      <trkpt lat="44.20555" lon="3.29001">
        <ele>513</ele>
        <time>2019-05-22T21:01:59Z</time>
      </trkpt>
      <trkpt lat="44.2057" lon="3.29004">
        <ele>512</ele>
        <time>2019-05-22T21:02:01Z</time>
      </trkpt>
      <trkpt lat="44.20582" lon="3.29012">
        <ele>510</ele>
        <time>2019-05-22T21:02:04Z</time>
      </trkpt>
      <trkpt lat="44.20622" lon="3.29061">
        <ele>505</ele>
        <time>2019-05-22T21:02:13Z</time>
      </trkpt>
      <trkpt lat="44.2063" lon="3.29075">
        <ele>503</ele>
        <time>2019-05-22T21:02:16Z</time>
      </trkpt>
      <trkpt lat="44.20637" lon="3.29091">
        <ele>503</ele>
        <time>2019-05-22T21:02:18Z</time>
      </trkpt>
      <trkpt lat="44.20641" lon="3.29109">
        <ele>505</ele>
        <time>2019-05-22T21:02:20Z</time>
      </trkpt>
      <trkpt lat="44.20641" lon="3.29154">
        <ele>508</ele>
        <time>2019-05-22T21:02:26Z</time>
      </trkpt>
      <trkpt lat="44.20645" lon="3.29185">
        <ele>508</ele>
        <time>2019-05-22T21:02:30Z</time>
      </trkpt>
      <trkpt lat="44.20657" lon="3.29237">
        <ele>505</ele>
        <time>2019-05-22T21:02:37Z</time>
      </trkpt>
      <trkpt lat="44.20666" lon="3.29261">
        <ele>503</ele>
        <time>2019-05-22T21:02:41Z</time>
      </trkpt>
      <trkpt lat="44.20679" lon="3.29281">
        <ele>507</ele>
        <time>2019-05-22T21:02:44Z</time>
      </trkpt>
      <trkpt lat="44.20708" lon="3.29311">
        <ele>514</ele>
        <time>2019-05-22T21:02:50Z</time>
      </trkpt>
      <trkpt lat="44.20723" lon="3.29329">
        <ele>513</ele>
        <time>2019-05-22T21:02:54Z</time>
      </trkpt>
      <trkpt lat="44.20735" lon="3.2935">
        <ele>513</ele>
        <time>2019-05-22T21:02:57Z</time>
      </trkpt>
      <trkpt lat="44.20744" lon="3.29373">
        <ele>511</ele>
        <time>2019-05-22T21:03:01Z</time>
      </trkpt>
      <trkpt lat="44.20753" lon="3.2943">
        <ele>504</ele>
        <time>2019-05-22T21:03:08Z</time>
      </trkpt>
      <trkpt lat="44.20753" lon="3.29451">
        <ele>506</ele>
        <time>2019-05-22T21:03:11Z</time>
      </trkpt>
      <trkpt lat="44.20732" lon="3.29559">
        <ele>514</ele>
        <time>2019-05-22T21:03:25Z</time>
      </trkpt>
      <trkpt lat="44.20727" lon="3.29588">
        <ele>516</ele>
        <time>2019-05-22T21:03:29Z</time>
      </trkpt>
      <trkpt lat="44.20721" lon="3.2965">
        <ele>519</ele>
        <time>2019-05-22T21:03:37Z</time>
      </trkpt>
      <trkpt lat="44.20703" lon="3.29759">
        <ele>518</ele>
        <time>2019-05-22T21:03:51Z</time>
      </trkpt>
      <trkpt lat="44.20701" lon="3.29785">
        <ele>517</ele>
        <time>2019-05-22T21:03:54Z</time>
      </trkpt>
      <trkpt lat="44.20694" lon="3.29933">
        <ele>519</ele>
        <time>2019-05-22T21:04:13Z</time>
      </trkpt>
      <trkpt lat="44.20695" lon="3.2996">
        <ele>520</ele>
        <time>2019-05-22T21:04:17Z</time>
      </trkpt>
      <trkpt lat="44.20714" lon="3.30037">
        <ele>532</ele>
        <time>2019-05-22T21:04:27Z</time>
      </trkpt>
      <trkpt lat="44.20713" lon="3.30061">
        <ele>533</ele>
        <time>2019-05-22T21:04:30Z</time>
      </trkpt>
      <trkpt lat="44.20717" lon="3.30087">
        <ele>536</ele>
        <time>2019-05-22T21:04:34Z</time>
      </trkpt>
      <trkpt lat="44.20713" lon="3.30118">
        <ele>535</ele>
        <time>2019-05-22T21:04:38Z</time>
      </trkpt>
      <trkpt lat="44.20695" lon="3.30169">
        <ele>526</ele>
        <time>2019-05-22T21:04:45Z</time>
      </trkpt>
      <trkpt lat="44.20689" lon="3.30196">
        <ele>525</ele>
        <time>2019-05-22T21:04:49Z</time>
      </trkpt>
      <trkpt lat="44.20688" lon="3.30221">
        <ele>527</ele>
        <time>2019-05-22T21:04:52Z</time>
      </trkpt>
      <trkpt lat="44.20689" lon="3.30284">
        <ele>530</ele>
        <time>2019-05-22T21:05:00Z</time>
      </trkpt>
      <trkpt lat="44.20684" lon="3.30315">
        <ele>528</ele>
        <time>2019-05-22T21:05:04Z</time>
      </trkpt>
      <trkpt lat="44.20675" lon="3.30351">
        <ele>526</ele>
        <time>2019-05-22T21:05:09Z</time>
      </trkpt>
      <trkpt lat="44.20669" lon="3.30381">
        <ele>527</ele>
        <time>2019-05-22T21:05:13Z</time>
      </trkpt>
      <trkpt lat="44.20659" lon="3.30477">
        <ele>536</ele>
        <time>2019-05-22T21:05:25Z</time>
      </trkpt>
      <trkpt lat="44.20647" lon="3.30549">
        <ele>542</ele>
        <time>2019-05-22T21:05:34Z</time>
      </trkpt>
      <trkpt lat="44.2064" lon="3.30587">
        <ele>544</ele>
        <time>2019-05-22T21:05:39Z</time>
      </trkpt>
      <trkpt lat="44.20613" lon="3.3069">
        <ele>538</ele>
        <time>2019-05-22T21:05:53Z</time>
      </trkpt>
      <trkpt lat="44.20608" lon="3.30718">
        <ele>538</ele>
        <time>2019-05-22T21:05:57Z</time>
      </trkpt>
      <trkpt lat="44.206" lon="3.3081">
        <ele>549</ele>
        <time>2019-05-22T21:06:09Z</time>
      </trkpt>
      <trkpt lat="44.20593" lon="3.30838">
        <ele>551</ele>
        <time>2019-05-22T21:06:13Z</time>
      </trkpt>
      <trkpt lat="44.2058" lon="3.30865">
        <ele>551</ele>
        <time>2019-05-22T21:06:17Z</time>
      </trkpt>
      <trkpt lat="44.20562" lon="3.30893">
        <ele>553</ele>
        <time>2019-05-22T21:06:22Z</time>
      </trkpt>
      <trkpt lat="44.20546" lon="3.30925">
        <ele>552</ele>
        <time>2019-05-22T21:06:27Z</time>
      </trkpt>
      <trkpt lat="44.20531" lon="3.30968">
        <ele>550</ele>
        <time>2019-05-22T21:06:33Z</time>
      </trkpt>
      <trkpt lat="44.20518" lon="3.31014">
        <ele>549</ele>
        <time>2019-05-22T21:06:39Z</time>
      </trkpt>
      <trkpt lat="44.20482" lon="3.31188">
        <ele>567</ele>
        <time>2019-05-22T21:07:02Z</time>
      </trkpt>
      <trkpt lat="44.20472" lon="3.31221">
        <ele>568</ele>
        <time>2019-05-22T21:07:07Z</time>
      </trkpt>
      <trkpt lat="44.20459" lon="3.31253">
        <ele>567</ele>
        <time>2019-05-22T21:07:11Z</time>
      </trkpt>
      <trkpt lat="44.20398" lon="3.31355">
        <ele>568</ele>
        <time>2019-05-22T21:07:28Z</time>
      </trkpt>
      <trkpt lat="44.20376" lon="3.31384">
        <ele>571</ele>
        <time>2019-05-22T21:07:34Z</time>
      </trkpt>
      <trkpt lat="44.20358" lon="3.31405">
        <ele>571</ele>
        <time>2019-05-22T21:07:38Z</time>
      </trkpt>
      <trkpt lat="44.20277" lon="3.31478">
        <ele>564</ele>
        <time>2019-05-22T21:07:55Z</time>
      </trkpt>
      <trkpt lat="44.20265" lon="3.31492">
        <ele>561</ele>
        <time>2019-05-22T21:07:58Z</time>
      </trkpt>
      <trkpt lat="44.20253" lon="3.31511">
        <ele>562</ele>
        <time>2019-05-22T21:08:01Z</time>
      </trkpt>
      <trkpt lat="44.20239" lon="3.31537">
        <ele>571</ele>
        <time>2019-05-22T21:08:05Z</time>
      </trkpt>
      <trkpt lat="44.2021" lon="3.31583">
        <ele>577</ele>
        <time>2019-05-22T21:08:13Z</time>
      </trkpt>
      <trkpt lat="44.20181" lon="3.31648">
        <ele>584</ele>
        <time>2019-05-22T21:08:23Z</time>
      </trkpt>
      <trkpt lat="44.20131" lon="3.3173">
        <ele>584</ele>
        <time>2019-05-22T21:08:37Z</time>
      </trkpt>
      <trkpt lat="44.20123" lon="3.31749">
        <ele>584</ele>
        <time>2019-05-22T21:08:39Z</time>
      </trkpt>
      <trkpt lat="44.20118" lon="3.31772">
        <ele>584</ele>
        <time>2019-05-22T21:08:42Z</time>
      </trkpt>
      <trkpt lat="44.20117" lon="3.31797">
        <ele>586</ele>
        <time>2019-05-22T21:08:46Z</time>
      </trkpt>
      <trkpt lat="44.20122" lon="3.31838">
        <ele>593</ele>
        <time>2019-05-22T21:08:51Z</time>
      </trkpt>
      <trkpt lat="44.20123" lon="3.31867">
        <ele>594</ele>
        <time>2019-05-22T21:08:55Z</time>
      </trkpt>
      <trkpt lat="44.20121" lon="3.31931">
        <ele>592</ele>
        <time>2019-05-22T21:09:03Z</time>
      </trkpt>
      <trkpt lat="44.20128" lon="3.32014">
        <ele>592</ele>
        <time>2019-05-22T21:09:13Z</time>
      </trkpt>
      <trkpt lat="44.20141" lon="3.32079">
        <ele>595</ele>
        <time>2019-05-22T21:09:22Z</time>
      </trkpt>
      <trkpt lat="44.20149" lon="3.32111">
        <ele>596</ele>
        <time>2019-05-22T21:09:26Z</time>
      </trkpt>
      <trkpt lat="44.20158" lon="3.32177">
        <ele>595</ele>
        <time>2019-05-22T21:09:35Z</time>
      </trkpt>
      <trkpt lat="44.20167" lon="3.32219">
        <ele>594</ele>
        <time>2019-05-22T21:09:41Z</time>
      </trkpt>
      <trkpt lat="44.20179" lon="3.32254">
        <ele>599</ele>
        <time>2019-05-22T21:09:46Z</time>
      </trkpt>
      <trkpt lat="44.20191" lon="3.3228">
        <ele>602</ele>
        <time>2019-05-22T21:09:49Z</time>
      </trkpt>
      <trkpt lat="44.20205" lon="3.32301">
        <ele>607</ele>
        <time>2019-05-22T21:09:53Z</time>
      </trkpt>
      <trkpt lat="44.20216" lon="3.32325">
        <ele>610</ele>
        <time>2019-05-22T21:09:57Z</time>
      </trkpt>
      <trkpt lat="44.2024" lon="3.32394">
        <ele>602</ele>
        <time>2019-05-22T21:10:07Z</time>
      </trkpt>
      <trkpt lat="44.20253" lon="3.32425">
        <ele>599</ele>
        <time>2019-05-22T21:10:11Z</time>
      </trkpt>
      <trkpt lat="44.20321" lon="3.32572">
        <ele>614</ele>
        <time>2019-05-22T21:10:33Z</time>
      </trkpt>
      <trkpt lat="44.20331" lon="3.32601">
        <ele>609</ele>
        <time>2019-05-22T21:10:38Z</time>
      </trkpt>
      <trkpt lat="44.20366" lon="3.32779">
        <ele>615</ele>
        <time>2019-05-22T21:11:01Z</time>
      </trkpt>
      <trkpt lat="44.2037" lon="3.32812">
        <ele>618</ele>
        <time>2019-05-22T21:11:05Z</time>
      </trkpt>
      <trkpt lat="44.20372" lon="3.32844">
        <ele>619</ele>
        <time>2019-05-22T21:11:09Z</time>
      </trkpt>
      <trkpt lat="44.20371" lon="3.32888">
        <ele>615</ele>
        <time>2019-05-22T21:11:15Z</time>
      </trkpt>
      <trkpt lat="44.20373" lon="3.32918">
        <ele>614</ele>
        <time>2019-05-22T21:11:19Z</time>
      </trkpt>
      <trkpt lat="44.20381" lon="3.32951">
        <ele>613</ele>
        <time>2019-05-22T21:11:23Z</time>
      </trkpt>
      <trkpt lat="44.20413" lon="3.33039">
        <ele>610</ele>
        <time>2019-05-22T21:11:36Z</time>
      </trkpt>
      <trkpt lat="44.20421" lon="3.33068">
        <ele>610</ele>
        <time>2019-05-22T21:11:40Z</time>
      </trkpt>
      <trkpt lat="44.20427" lon="3.331">
        <ele>612</ele>
        <time>2019-05-22T21:11:44Z</time>
      </trkpt>
      <trkpt lat="44.20448" lon="3.33273">
        <ele>618</ele>
        <time>2019-05-22T21:12:07Z</time>
      </trkpt>
      <trkpt lat="44.20454" lon="3.33309">
        <ele>619</ele>
        <time>2019-05-22T21:12:11Z</time>
      </trkpt>
      <trkpt lat="44.2047" lon="3.3337">
        <ele>625</ele>
        <time>2019-05-22T21:12:20Z</time>
      </trkpt>
      <trkpt lat="44.20475" lon="3.33399">
        <ele>627</ele>
        <time>2019-05-22T21:12:23Z</time>
      </trkpt>
      <trkpt lat="44.20487" lon="3.33517">
        <ele>626</ele>
        <time>2019-05-22T21:12:39Z</time>
      </trkpt>
      <trkpt lat="44.20486" lon="3.33554">
        <ele>628</ele>
        <time>2019-05-22T21:12:43Z</time>
      </trkpt>
      <trkpt lat="44.20479" lon="3.33589">
        <ele>627</ele>
        <time>2019-05-22T21:12:48Z</time>
      </trkpt>
      <trkpt lat="44.20463" lon="3.33623">
        <ele>624</ele>
        <time>2019-05-22T21:12:53Z</time>
      </trkpt>
      <trkpt lat="44.20432" lon="3.33679">
        <ele>613</ele>
        <time>2019-05-22T21:13:02Z</time>
      </trkpt>
      <trkpt lat="44.20398" lon="3.33745">
        <ele>618</ele>
        <time>2019-05-22T21:13:12Z</time>
      </trkpt>
      <trkpt lat="44.20381" lon="3.33784">
        <ele>618</ele>
        <time>2019-05-22T21:13:18Z</time>
      </trkpt>
      <trkpt lat="44.20369" lon="3.33824">
        <ele>617</ele>
        <time>2019-05-22T21:13:24Z</time>
      </trkpt>
      <trkpt lat="44.20363" lon="3.33861">
        <ele>617</ele>
        <time>2019-05-22T21:13:29Z</time>
      </trkpt>
      <trkpt lat="44.20355" lon="3.33902">
        <ele>615</ele>
        <time>2019-05-22T21:13:34Z</time>
      </trkpt>
      <trkpt lat="44.20344" lon="3.33941">
        <ele>616</ele>
        <time>2019-05-22T21:13:39Z</time>
      </trkpt>
      <trkpt lat="44.20329" lon="3.33977">
        <ele>618</ele>
        <time>2019-05-22T21:13:45Z</time>
      </trkpt>
      <trkpt lat="44.20313" lon="3.34004">
        <ele>619</ele>
        <time>2019-05-22T21:13:49Z</time>
      </trkpt>
      <trkpt lat="44.20267" lon="3.34064">
        <ele>614</ele>
        <time>2019-05-22T21:14:00Z</time>
      </trkpt>
      <trkpt lat="44.20248" lon="3.34093">
        <ele>611</ele>
        <time>2019-05-22T21:14:05Z</time>
      </trkpt>
      <trkpt lat="44.20232" lon="3.34124">
        <ele>616</ele>
        <time>2019-05-22T21:14:10Z</time>
      </trkpt>
      <trkpt lat="44.20222" lon="3.34158">
        <ele>620</ele>
        <time>2019-05-22T21:14:15Z</time>
      </trkpt>
      <trkpt lat="44.20213" lon="3.34197">
        <ele>624</ele>
        <time>2019-05-22T21:14:20Z</time>
      </trkpt>
      <trkpt lat="44.20202" lon="3.34252">
        <ele>627</ele>
        <time>2019-05-22T21:14:27Z</time>
      </trkpt>
      <trkpt lat="44.20195" lon="3.34334">
        <ele>625</ele>
        <time>2019-05-22T21:14:38Z</time>
      </trkpt>
      <trkpt lat="44.20189" lon="3.34366">
        <ele>623</ele>
        <time>2019-05-22T21:14:42Z</time>
      </trkpt>
      <trkpt lat="44.20182" lon="3.34395">
        <ele>621</ele>
        <time>2019-05-22T21:14:46Z</time>
      </trkpt>
      <trkpt lat="44.20159" lon="3.34475">
        <ele>624</ele>
        <time>2019-05-22T21:14:57Z</time>
      </trkpt>
      <trkpt lat="44.20149" lon="3.34522">
        <ele>630</ele>
        <time>2019-05-22T21:15:03Z</time>
      </trkpt>
      <trkpt lat="44.20144" lon="3.34562">
        <ele>634</ele>
        <time>2019-05-22T21:15:09Z</time>
      </trkpt>
      <trkpt lat="44.20142" lon="3.34594">
        <ele>635</ele>
        <time>2019-05-22T21:15:13Z</time>
      </trkpt>
      <trkpt lat="44.20144" lon="3.34643">
        <ele>634</ele>
        <time>2019-05-22T21:15:19Z</time>
      </trkpt>
      <trkpt lat="44.20149" lon="3.34695">
        <ele>632</ele>
        <time>2019-05-22T21:15:26Z</time>
      </trkpt>
      <trkpt lat="44.20157" lon="3.34751">
        <ele>629</ele>
        <time>2019-05-22T21:15:33Z</time>
      </trkpt>
      <trkpt lat="44.20165" lon="3.34788">
        <ele>626</ele>
        <time>2019-05-22T21:15:38Z</time>
      </trkpt>
      <trkpt lat="44.20176" lon="3.34821">
        <ele>627</ele>
        <time>2019-05-22T21:15:42Z</time>
      </trkpt>
      <trkpt lat="44.20187" lon="3.34837">
        <ele>631</ele>
        <time>2019-05-22T21:15:45Z</time>
      </trkpt>
      <trkpt lat="44.20215" lon="3.34868">
        <ele>639</ele>
        <time>2019-05-22T21:15:52Z</time>
      </trkpt>
      <trkpt lat="44.20228" lon="3.34887">
        <ele>641</ele>
        <time>2019-05-22T21:15:55Z</time>
      </trkpt>
      <trkpt lat="44.20236" lon="3.34907">
        <ele>640</ele>
        <time>2019-05-22T21:15:58Z</time>
      </trkpt>
      <trkpt lat="44.20242" lon="3.34927">
        <ele>639</ele>
        <time>2019-05-22T21:16:01Z</time>
      </trkpt>
      <trkpt lat="44.20242" lon="3.34951">
        <ele>636</ele>
        <time>2019-05-22T21:16:04Z</time>
      </trkpt>
      <trkpt lat="44.20238" lon="3.3498">
        <ele>631</ele>
        <time>2019-05-22T21:16:08Z</time>
      </trkpt>
      <trkpt lat="44.2023" lon="3.35007">
        <ele>627</ele>
        <time>2019-05-22T21:16:11Z</time>
      </trkpt>
      <trkpt lat="44.20217" lon="3.35038">
        <ele>626</ele>
        <time>2019-05-22T21:16:16Z</time>
      </trkpt>
      <trkpt lat="44.20204" lon="3.35063">
        <ele>623</ele>
        <time>2019-05-22T21:16:20Z</time>
      </trkpt>
      <trkpt lat="44.20195" lon="3.35089">
        <ele>620</ele>
        <time>2019-05-22T21:16:23Z</time>
      </trkpt>
      <trkpt lat="44.20182" lon="3.35139">
        <ele>617</ele>
        <time>2019-05-22T21:16:30Z</time>
      </trkpt>
      <trkpt lat="44.20178" lon="3.35163">
        <ele>617</ele>
        <time>2019-05-22T21:16:33Z</time>
      </trkpt>
      <trkpt lat="44.20178" lon="3.35185">
        <ele>616</ele>
        <time>2019-05-22T21:16:36Z</time>
      </trkpt>
      <trkpt lat="44.20181" lon="3.35208">
        <ele>617</ele>
        <time>2019-05-22T21:16:39Z</time>
      </trkpt>
      <trkpt lat="44.20205" lon="3.35263">
        <ele>624</ele>
        <time>2019-05-22T21:16:47Z</time>
      </trkpt>
      <trkpt lat="44.20228" lon="3.35309">
        <ele>626</ele>
        <time>2019-05-22T21:16:55Z</time>
      </trkpt>
      <trkpt lat="44.20235" lon="3.35333">
        <ele>624</ele>
        <time>2019-05-22T21:16:58Z</time>
      </trkpt>
      <trkpt lat="44.20236" lon="3.35358">
        <ele>624</ele>
        <time>2019-05-22T21:17:01Z</time>
      </trkpt>
      <trkpt lat="44.20232" lon="3.35398">
        <ele>624</ele>
        <time>2019-05-22T21:17:06Z</time>
      </trkpt>
      <trkpt lat="44.20224" lon="3.35437">
        <ele>626</ele>
        <time>2019-05-22T21:17:11Z</time>
      </trkpt>
      <trkpt lat="44.20213" lon="3.35476">
        <ele>629</ele>
        <time>2019-05-22T21:17:17Z</time>
      </trkpt>
      <trkpt lat="44.20195" lon="3.35516">
        <ele>627</ele>
        <time>2019-05-22T21:17:23Z</time>
      </trkpt>
      <trkpt lat="44.20161" lon="3.35577">
        <ele>623</ele>
        <time>2019-05-22T21:17:33Z</time>
      </trkpt>
      <trkpt lat="44.20152" lon="3.35601">
        <ele>625</ele>
        <time>2019-05-22T21:17:36Z</time>
      </trkpt>
      <trkpt lat="44.20147" lon="3.35634">
        <ele>626</ele>
        <time>2019-05-22T21:17:40Z</time>
      </trkpt>
      <trkpt lat="44.20144" lon="3.35687">
        <ele>627</ele>
        <time>2019-05-22T21:17:47Z</time>
      </trkpt>
      <trkpt lat="44.20153" lon="3.35801">
        <ele>630</ele>
        <time>2019-05-22T21:18:02Z</time>
      </trkpt>
      <trkpt lat="44.2016" lon="3.3585">
        <ele>630</ele>
        <time>2019-05-22T21:18:08Z</time>
      </trkpt>
      <trkpt lat="44.20186" lon="3.35969">
        <ele>637</ele>
        <time>2019-05-22T21:18:24Z</time>
      </trkpt>
      <trkpt lat="44.20192" lon="3.36015">
        <ele>640</ele>
        <time>2019-05-22T21:18:30Z</time>
      </trkpt>
      <trkpt lat="44.20192" lon="3.36037">
        <ele>640</ele>
        <time>2019-05-22T21:18:33Z</time>
      </trkpt>
      <trkpt lat="44.20183" lon="3.361">
        <ele>636</ele>
        <time>2019-05-22T21:18:41Z</time>
      </trkpt>
      <trkpt lat="44.20186" lon="3.36128">
        <ele>639</ele>
        <time>2019-05-22T21:18:45Z</time>
      </trkpt>
      <trkpt lat="44.20203" lon="3.36204">
        <ele>646</ele>
        <time>2019-05-22T21:18:55Z</time>
      </trkpt>
      <trkpt lat="44.20204" lon="3.36239">
        <ele>645</ele>
        <time>2019-05-22T21:18:59Z</time>
      </trkpt>
      <trkpt lat="44.20202" lon="3.36278">
        <ele>645</ele>
        <time>2019-05-22T21:19:04Z</time>
      </trkpt>
      <trkpt lat="44.20195" lon="3.36323">
        <ele>643</ele>
        <time>2019-05-22T21:19:10Z</time>
      </trkpt>
      <trkpt lat="44.20195" lon="3.36363">
        <ele>643</ele>
        <time>2019-05-22T21:19:15Z</time>
      </trkpt>
      <trkpt lat="44.20202" lon="3.36464">
        <ele>645</ele>
        <time>2019-05-22T21:19:28Z</time>
      </trkpt>
      <trkpt lat="44.20201" lon="3.36579">
        <ele>649</ele>
        <time>2019-05-22T21:19:43Z</time>
      </trkpt>
      <trkpt lat="44.2018" lon="3.36801">
        <ele>652</ele>
        <time>2019-05-22T21:20:11Z</time>
      </trkpt>
      <trkpt lat="44.20161" lon="3.36873">
        <ele>653</ele>
        <time>2019-05-22T21:20:21Z</time>
      </trkpt>
      <trkpt lat="44.20131" lon="3.3695">
        <ele>654</ele>
        <time>2019-05-22T21:20:32Z</time>
      </trkpt>
      <trkpt lat="44.20126" lon="3.36975">
        <ele>654</ele>
        <time>2019-05-22T21:20:36Z</time>
      </trkpt>
      <trkpt lat="44.20117" lon="3.37047">
        <ele>658</ele>
        <time>2019-05-22T21:20:45Z</time>
      </trkpt>
      <trkpt lat="44.20107" lon="3.37082">
        <ele>657</ele>
        <time>2019-05-22T21:20:50Z</time>
      </trkpt>
      <trkpt lat="44.20097" lon="3.3711">
        <ele>653</ele>
        <time>2019-05-22T21:20:54Z</time>
      </trkpt>
      <trkpt lat="44.20088" lon="3.37144">
        <ele>651</ele>
        <time>2019-05-22T21:20:58Z</time>
      </trkpt>
      <trkpt lat="44.20083" lon="3.37177">
        <ele>651</ele>
        <time>2019-05-22T21:21:03Z</time>
      </trkpt>
      <trkpt lat="44.20082" lon="3.3721">
        <ele>655</ele>
        <time>2019-05-22T21:21:07Z</time>
      </trkpt>
      <trkpt lat="44.20078" lon="3.37243">
        <ele>658</ele>
        <time>2019-05-22T21:21:11Z</time>
      </trkpt>
      <trkpt lat="44.20072" lon="3.37277">
        <ele>663</ele>
        <time>2019-05-22T21:21:16Z</time>
      </trkpt>
      <trkpt lat="44.20062" lon="3.37308">
        <ele>665</ele>
        <time>2019-05-22T21:21:20Z</time>
      </trkpt>
      <trkpt lat="44.20047" lon="3.37338">
        <ele>663</ele>
        <time>2019-05-22T21:21:25Z</time>
      </trkpt>
      <trkpt lat="44.20035" lon="3.37367">
        <ele>662</ele>
        <time>2019-05-22T21:21:29Z</time>
      </trkpt>
      <trkpt lat="44.20021" lon="3.37405">
        <ele>661</ele>
        <time>2019-05-22T21:21:34Z</time>
      </trkpt>
      <trkpt lat="44.20008" lon="3.37474">
        <ele>660</ele>
        <time>2019-05-22T21:21:43Z</time>
      </trkpt>
      <trkpt lat="44.20006" lon="3.37502">
        <ele>661</ele>
        <time>2019-05-22T21:21:47Z</time>
      </trkpt>
      <trkpt lat="44.20008" lon="3.37617">
        <ele>664</ele>
        <time>2019-05-22T21:22:02Z</time>
      </trkpt>
      <trkpt lat="44.20005" lon="3.37713">
        <ele>663</ele>
        <time>2019-05-22T21:22:14Z</time>
      </trkpt>
      <trkpt lat="44.20008" lon="3.37811">
        <ele>666</ele>
        <time>2019-05-22T21:22:26Z</time>
      </trkpt>
      <trkpt lat="44.20005" lon="3.37858">
        <ele>666</ele>
        <time>2019-05-22T21:22:32Z</time>
      </trkpt>
      <trkpt lat="44.19992" lon="3.37954">
        <ele>668</ele>
        <time>2019-05-22T21:22:45Z</time>
      </trkpt>
      <trkpt lat="44.19988" lon="3.38006">
        <ele>669</ele>
        <time>2019-05-22T21:22:52Z</time>
      </trkpt>
      <trkpt lat="44.19988" lon="3.38056">
        <ele>670</ele>
        <time>2019-05-22T21:22:58Z</time>
      </trkpt>
      <trkpt lat="44.20004" lon="3.38241">
        <ele>671</ele>
        <time>2019-05-22T21:23:22Z</time>
      </trkpt>
      <trkpt lat="44.2001" lon="3.38347">
        <ele>671</ele>
        <time>2019-05-22T21:23:35Z</time>
      </trkpt>
      <trkpt lat="44.20008" lon="3.38398">
        <ele>670</ele>
        <time>2019-05-22T21:23:42Z</time>
      </trkpt>
      <trkpt lat="44.20002" lon="3.38448">
        <ele>671</ele>
        <time>2019-05-22T21:23:48Z</time>
      </trkpt>
      <trkpt lat="44.19994" lon="3.38497">
        <ele>675</ele>
        <time>2019-05-22T21:23:55Z</time>
      </trkpt>
      <trkpt lat="44.19981" lon="3.38543">
        <ele>679</ele>
        <time>2019-05-22T21:24:01Z</time>
      </trkpt>
      <trkpt lat="44.19965" lon="3.38589">
        <ele>680</ele>
        <time>2019-05-22T21:24:08Z</time>
      </trkpt>
      <trkpt lat="44.19931" lon="3.38672">
        <ele>677</ele>
        <time>2019-05-22T21:24:20Z</time>
      </trkpt>
      <trkpt lat="44.19892" lon="3.38804">
        <ele>686</ele>
        <time>2019-05-22T21:24:38Z</time>
      </trkpt>
      <trkpt lat="44.19879" lon="3.38838">
        <ele>688</ele>
        <time>2019-05-22T21:24:43Z</time>
      </trkpt>
      <trkpt lat="44.19862" lon="3.3887">
        <ele>687</ele>
        <time>2019-05-22T21:24:48Z</time>
      </trkpt>
      <trkpt lat="44.19814" lon="3.38934">
        <ele>679</ele>
        <time>2019-05-22T21:25:00Z</time>
      </trkpt>
      <trkpt lat="44.1978" lon="3.39005">
        <ele>684</ele>
        <time>2019-05-22T21:25:11Z</time>
      </trkpt>
      <trkpt lat="44.19751" lon="3.3905">
        <ele>680</ele>
        <time>2019-05-22T21:25:18Z</time>
      </trkpt>
      <trkpt lat="44.19728" lon="3.39077">
        <ele>680</ele>
        <time>2019-05-22T21:25:24Z</time>
      </trkpt>
      <trkpt lat="44.19701" lon="3.39104">
        <ele>679</ele>
        <time>2019-05-22T21:25:30Z</time>
      </trkpt>
      <trkpt lat="44.19657" lon="3.39151">
        <ele>677</ele>
        <time>2019-05-22T21:25:39Z</time>
      </trkpt>
      <trkpt lat="44.19627" lon="3.39189">
        <ele>679</ele>
        <time>2019-05-22T21:25:47Z</time>
      </trkpt>
      <trkpt lat="44.19604" lon="3.39228">
        <ele>680</ele>
        <time>2019-05-22T21:25:53Z</time>
      </trkpt>
      <trkpt lat="44.19594" lon="3.39252">
        <ele>679</ele>
        <time>2019-05-22T21:25:57Z</time>
      </trkpt>
      <trkpt lat="44.19587" lon="3.39279">
        <ele>679</ele>
        <time>2019-05-22T21:26:00Z</time>
      </trkpt>
      <trkpt lat="44.19583" lon="3.39317">
        <ele>681</ele>
        <time>2019-05-22T21:26:05Z</time>
      </trkpt>
      <trkpt lat="44.19585" lon="3.39404">
        <ele>683</ele>
        <time>2019-05-22T21:26:16Z</time>
      </trkpt>
      <trkpt lat="44.19597" lon="3.39512">
        <ele>688</ele>
        <time>2019-05-22T21:26:30Z</time>
      </trkpt>
      <trkpt lat="44.19596" lon="3.39544">
        <ele>688</ele>
        <time>2019-05-22T21:26:34Z</time>
      </trkpt>
      <trkpt lat="44.19589" lon="3.39579">
        <ele>685</ele>
        <time>2019-05-22T21:26:39Z</time>
      </trkpt>
      <trkpt lat="44.19575" lon="3.39622">
        <ele>686</ele>
        <time>2019-05-22T21:26:45Z</time>
      </trkpt>
      <trkpt lat="44.1956" lon="3.39649">
        <ele>687</ele>
        <time>2019-05-22T21:26:49Z</time>
      </trkpt>
      <trkpt lat="44.19472" lon="3.39774">
        <ele>685</ele>
        <time>2019-05-22T21:27:12Z</time>
      </trkpt>
      <trkpt lat="44.19461" lon="3.39798">
        <ele>687</ele>
        <time>2019-05-22T21:27:15Z</time>
      </trkpt>
      <trkpt lat="44.19457" lon="3.39822">
        <ele>690</ele>
        <time>2019-05-22T21:27:19Z</time>
      </trkpt>
      <trkpt lat="44.19457" lon="3.39852">
        <ele>692</ele>
        <time>2019-05-22T21:27:22Z</time>
      </trkpt>
      <trkpt lat="44.19468" lon="3.40031">
        <ele>697</ele>
        <time>2019-05-22T21:27:45Z</time>
      </trkpt>
      <trkpt lat="44.19468" lon="3.40056">
        <ele>700</ele>
        <time>2019-05-22T21:27:48Z</time>
      </trkpt>
      <trkpt lat="44.19463" lon="3.40076">
        <ele>700</ele>
        <time>2019-05-22T21:27:51Z</time>
      </trkpt>
      <trkpt lat="44.19455" lon="3.40093">
        <ele>698</ele>
        <time>2019-05-22T21:27:54Z</time>
      </trkpt>
      <trkpt lat="44.19397" lon="3.40174">
        <ele>687</ele>
        <time>2019-05-22T21:28:08Z</time>
      </trkpt>
      <trkpt lat="44.19375" lon="3.40211">
        <ele>690</ele>
        <time>2019-05-22T21:28:14Z</time>
      </trkpt>
      <trkpt lat="44.19364" lon="3.40238">
        <ele>690</ele>
        <time>2019-05-22T21:28:18Z</time>
      </trkpt>
      <trkpt lat="44.19356" lon="3.40271">
        <ele>691</ele>
        <time>2019-05-22T21:28:23Z</time>
      </trkpt>
      <trkpt lat="44.19352" lon="3.40305">
        <ele>693</ele>
        <time>2019-05-22T21:28:27Z</time>
      </trkpt>
      <trkpt lat="44.19351" lon="3.40365">
        <ele>696</ele>
        <time>2019-05-22T21:28:35Z</time>
      </trkpt>
      <trkpt lat="44.19357" lon="3.40444">
        <ele>700</ele>
        <time>2019-05-22T21:28:45Z</time>
      </trkpt>
      <trkpt lat="44.19356" lon="3.4049">
        <ele>699</ele>
        <time>2019-05-22T21:28:51Z</time>
      </trkpt>
      <trkpt lat="44.19359" lon="3.40528">
        <ele>701</ele>
        <time>2019-05-22T21:28:56Z</time>
      </trkpt>
      <trkpt lat="44.19363" lon="3.40562">
        <ele>703</ele>
        <time>2019-05-22T21:29:00Z</time>
      </trkpt>
      <trkpt lat="44.19365" lon="3.40627">
        <ele>703</ele>
        <time>2019-05-22T21:29:09Z</time>
      </trkpt>
      <trkpt lat="44.19363" lon="3.40653">
        <ele>701</ele>
        <time>2019-05-22T21:29:12Z</time>
      </trkpt>
      <trkpt lat="44.19354" lon="3.40701">
        <ele>698</ele>
        <time>2019-05-22T21:29:18Z</time>
      </trkpt>
      <trkpt lat="44.19344" lon="3.40717">
        <ele>693</ele>
        <time>2019-05-22T21:29:21Z</time>
      </trkpt>
      <trkpt lat="44.19304" lon="3.40768">
        <ele>693</ele>
        <time>2019-05-22T21:29:31Z</time>
      </trkpt>
      <trkpt lat="44.19276" lon="3.408">
        <ele>695</ele>
        <time>2019-05-22T21:29:37Z</time>
      </trkpt>
      <trkpt lat="44.19224" lon="3.40852">
        <ele>695</ele>
        <time>2019-05-22T21:29:48Z</time>
      </trkpt>
      <trkpt lat="44.19196" lon="3.40897">
        <ele>699</ele>
        <time>2019-05-22T21:29:56Z</time>
      </trkpt>
      <trkpt lat="44.19178" lon="3.40933">
        <ele>697</ele>
        <time>2019-05-22T21:30:02Z</time>
      </trkpt>
      <trkpt lat="44.19097" lon="3.41118">
        <ele>697</ele>
        <time>2019-05-22T21:30:29Z</time>
      </trkpt>
      <trkpt lat="44.19087" lon="3.41154">
        <ele>695</ele>
        <time>2019-05-22T21:30:34Z</time>
      </trkpt>
      <trkpt lat="44.19083" lon="3.4119">
        <ele>697</ele>
        <time>2019-05-22T21:30:39Z</time>
      </trkpt>
      <trkpt lat="44.1905" lon="3.41324">
        <ele>702</ele>
        <time>2019-05-22T21:30:57Z</time>
      </trkpt>
      <trkpt lat="44.19033" lon="3.41372">
        <ele>701</ele>
        <time>2019-05-22T21:31:04Z</time>
      </trkpt>
      <trkpt lat="44.1899" lon="3.41468">
        <ele>698</ele>
        <time>2019-05-22T21:31:18Z</time>
      </trkpt>
      <trkpt lat="44.1897" lon="3.41524">
        <ele>703</ele>
        <time>2019-05-22T21:31:26Z</time>
      </trkpt>
      <trkpt lat="44.18958" lon="3.41551">
        <ele>704</ele>
        <time>2019-05-22T21:31:30Z</time>
      </trkpt>
      <trkpt lat="44.18938" lon="3.41569">
        <ele>701</ele>
        <time>2019-05-22T21:31:34Z</time>
      </trkpt>
      <trkpt lat="44.18938" lon="3.41569">
        <ele>701</ele>
        <time>2019-05-22T21:31:34Z</time>
      </trkpt>
      <trkpt lat="44.18917" lon="3.41589">
        <ele>697</ele>
        <time>2019-05-22T21:31:39Z</time>
      </trkpt>
      <trkpt lat="44.18901" lon="3.41595">
        <ele>700</ele>
        <time>2019-05-22T21:31:42Z</time>
      </trkpt>
      <trkpt lat="44.18746" lon="3.41599">
        <ele>702</ele>
        <time>2019-05-22T21:32:09Z</time>
      </trkpt>
      <trkpt lat="44.18727" lon="3.41605">
        <ele>703</ele>
        <time>2019-05-22T21:32:13Z</time>
      </trkpt>
      <trkpt lat="44.18719" lon="3.4161">
        <ele>703</ele>
        <time>2019-05-22T21:32:15Z</time>
      </trkpt>
      <trkpt lat="44.18713" lon="3.41619">
        <ele>705</ele>
        <time>2019-05-22T21:32:16Z</time>
      </trkpt>
      <trkpt lat="44.18695" lon="3.41667">
        <ele>708</ele>
        <time>2019-05-22T21:32:23Z</time>
      </trkpt>
      <trkpt lat="44.18679" lon="3.417">
        <ele>708</ele>
        <time>2019-05-22T21:32:28Z</time>
      </trkpt>
      <trkpt lat="44.18667" lon="3.4173">
        <ele>707</ele>
        <time>2019-05-22T21:32:32Z</time>
      </trkpt>
      <trkpt lat="44.18564" lon="3.42102">
        <ele>715</ele>
        <time>2019-05-22T21:33:23Z</time>
      </trkpt>
      <trkpt lat="44.18552" lon="3.42135">
        <ele>717</ele>
        <time>2019-05-22T21:33:28Z</time>
      </trkpt>
      <trkpt lat="44.18529" lon="3.4219">
        <ele>718</ele>
        <time>2019-05-22T21:33:36Z</time>
      </trkpt>
      <trkpt lat="44.18517" lon="3.42213">
        <ele>717</ele>
        <time>2019-05-22T21:33:40Z</time>
      </trkpt>
      <trkpt lat="44.18505" lon="3.4223">
        <ele>715</ele>
        <time>2019-05-22T21:33:43Z</time>
      </trkpt>
      <trkpt lat="44.18445" lon="3.42298">
        <ele>716</ele>
        <time>2019-05-22T21:33:57Z</time>
      </trkpt>
      <trkpt lat="44.18307" lon="3.42401">
        <ele>707</ele>
        <time>2019-05-22T21:34:24Z</time>
      </trkpt>
      <trkpt lat="44.18262" lon="3.42444">
        <ele>706</ele>
        <time>2019-05-22T21:34:34Z</time>
      </trkpt>
      <trkpt lat="44.18244" lon="3.42464">
        <ele>706</ele>
        <time>2019-05-22T21:34:38Z</time>
      </trkpt>
      <trkpt lat="44.18186" lon="3.42537">
        <ele>705</ele>
        <time>2019-05-22T21:34:52Z</time>
      </trkpt>
      <trkpt lat="44.18144" lon="3.42582">
        <ele>703</ele>
        <time>2019-05-22T21:35:02Z</time>
      </trkpt>
      <trkpt lat="44.18129" lon="3.42604">
        <ele>707</ele>
        <time>2019-05-22T21:35:05Z</time>
      </trkpt>
      <trkpt lat="44.18086" lon="3.42686">
        <ele>703</ele>
        <time>2019-05-22T21:35:18Z</time>
      </trkpt>
      <trkpt lat="44.18059" lon="3.42751">
        <ele>705</ele>
        <time>2019-05-22T21:35:28Z</time>
      </trkpt>
      <trkpt lat="44.18038" lon="3.4282">
        <ele>706</ele>
        <time>2019-05-22T21:35:38Z</time>
      </trkpt>
      <trkpt lat="44.18033" lon="3.42826">
        <ele>705</ele>
        <time>2019-05-22T21:35:39Z</time>
      </trkpt>
      <trkpt lat="44.17996" lon="3.42824">
        <ele>705</ele>
        <time>2019-05-22T21:35:45Z</time>
      </trkpt>
      <trkpt lat="44.17989" lon="3.42829">
        <ele>706</ele>
        <time>2019-05-22T21:35:47Z</time>
      </trkpt>
      <trkpt lat="44.17972" lon="3.42847">
        <ele>707</ele>
        <time>2019-05-22T21:35:51Z</time>
      </trkpt>
      <trkpt lat="44.17967" lon="3.42856">
        <ele>706</ele>
        <time>2019-05-22T21:35:52Z</time>
      </trkpt>
      <trkpt lat="44.17959" lon="3.42859">
        <ele>707</ele>
        <time>2019-05-22T21:35:53Z</time>
      </trkpt>
      <trkpt lat="44.17931" lon="3.42882">
        <ele>708</ele>
        <time>2019-05-22T21:35:59Z</time>
      </trkpt>
      <trkpt lat="44.17914" lon="3.42886">
        <ele>709</ele>
        <time>2019-05-22T21:36:02Z</time>
      </trkpt>
      <trkpt lat="44.17892" lon="3.42888">
        <ele>708</ele>
        <time>2019-05-22T21:36:06Z</time>
      </trkpt>
      <trkpt lat="44.17886" lon="3.42887">
        <ele>708</ele>
        <time>2019-05-22T21:36:07Z</time>
      </trkpt>
      <trkpt lat="44.17856" lon="3.42867">
        <ele>710</ele>
        <time>2019-05-22T21:36:13Z</time>
      </trkpt>
      <trkpt lat="44.17855" lon="3.42857">
        <ele>711</ele>
        <time>2019-05-22T21:36:15Z</time>
      </trkpt>
      <trkpt lat="44.17832" lon="3.42841">
        <ele>711</ele>
        <time>2019-05-22T21:36:19Z</time>
      </trkpt>
      <trkpt lat="44.17813" lon="3.42839">
        <ele>711</ele>
        <time>2019-05-22T21:36:22Z</time>
      </trkpt>
      <trkpt lat="44.1779" lon="3.42826">
        <ele>712</ele>
        <time>2019-05-22T21:36:27Z</time>
      </trkpt>
      <trkpt lat="44.17779" lon="3.42832">
        <ele>710</ele>
        <time>2019-05-22T21:36:29Z</time>
      </trkpt>
      <trkpt lat="44.17776" lon="3.42837">
        <ele>710</ele>
        <time>2019-05-22T21:36:30Z</time>
      </trkpt>
      <trkpt lat="44.17769" lon="3.42836">
        <ele>710</ele>
        <time>2019-05-22T21:36:31Z</time>
      </trkpt>
      <trkpt lat="44.17745" lon="3.42838">
        <ele>709</ele>
        <time>2019-05-22T21:36:35Z</time>
      </trkpt>
      <trkpt lat="44.17725" lon="3.42843">
        <ele>709</ele>
        <time>2019-05-22T21:36:39Z</time>
      </trkpt>
      <trkpt lat="44.17702" lon="3.42854">
        <ele>709</ele>
        <time>2019-05-22T21:36:43Z</time>
      </trkpt>
      <trkpt lat="44.17661" lon="3.42884">
        <ele>709</ele>
        <time>2019-05-22T21:36:52Z</time>
      </trkpt>
      <trkpt lat="44.1762" lon="3.42905">
        <ele>711</ele>
        <time>2019-05-22T21:36:59Z</time>
      </trkpt>
      <trkpt lat="44.17417" lon="3.42955">
        <ele>718</ele>
        <time>2019-05-22T21:37:36Z</time>
      </trkpt>
      <trkpt lat="44.17401" lon="3.42964">
        <ele>718</ele>
        <time>2019-05-22T21:37:39Z</time>
      </trkpt>
      <trkpt lat="44.174" lon="3.42959">
        <ele>719</ele>
        <time>2019-05-22T21:37:40Z</time>
      </trkpt>
      <trkpt lat="44.17394" lon="3.42952">
        <ele>720</ele>
        <time>2019-05-22T21:37:41Z</time>
      </trkpt>
      <trkpt lat="44.17386" lon="3.42953">
        <ele>721</ele>
        <time>2019-05-22T21:37:43Z</time>
      </trkpt>
      <trkpt lat="44.17381" lon="3.4296">
        <ele>720</ele>
        <time>2019-05-22T21:37:44Z</time>
      </trkpt>
      <trkpt lat="44.1738" lon="3.42965">
        <ele>719</ele>
        <time>2019-05-22T21:37:44Z</time>
      </trkpt>
      <trkpt lat="44.17372" lon="3.42965">
        <ele>720</ele>
        <time>2019-05-22T21:37:46Z</time>
      </trkpt>
      <trkpt lat="44.17352" lon="3.42972">
        <ele>720</ele>
        <time>2019-05-22T21:37:50Z</time>
      </trkpt>
      <trkpt lat="44.17308" lon="3.43001">
        <ele>725</ele>
        <time>2019-05-22T21:37:58Z</time>
      </trkpt>
      <trkpt lat="44.17297" lon="3.4301">
        <ele>726</ele>
        <time>2019-05-22T21:38:00Z</time>
      </trkpt>
      <trkpt lat="44.17266" lon="3.43058">
        <ele>724</ele>
        <time>2019-05-22T21:38:09Z</time>
      </trkpt>
      <trkpt lat="44.17257" lon="3.43066">
        <ele>724</ele>
        <time>2019-05-22T21:38:11Z</time>
      </trkpt>
      <trkpt lat="44.17246" lon="3.43072">
        <ele>725</ele>
        <time>2019-05-22T21:38:13Z</time>
      </trkpt>
      <trkpt lat="44.17192" lon="3.43094">
        <ele>731</ele>
        <time>2019-05-22T21:38:23Z</time>
      </trkpt>
      <trkpt lat="44.17117" lon="3.43109">
        <ele>742</ele>
        <time>2019-05-22T21:38:36Z</time>
      </trkpt>
      <trkpt lat="44.17109" lon="3.43115">
        <ele>742</ele>
        <time>2019-05-22T21:38:38Z</time>
      </trkpt>
      <trkpt lat="44.17092" lon="3.43135">
        <ele>739</ele>
        <time>2019-05-22T21:38:42Z</time>
      </trkpt>
      <trkpt lat="44.17063" lon="3.43155">
        <ele>736</ele>
        <time>2019-05-22T21:38:48Z</time>
      </trkpt>
      <trkpt lat="44.17053" lon="3.43159">
        <ele>736</ele>
        <time>2019-05-22T21:38:49Z</time>
      </trkpt>
      <trkpt lat="44.1704" lon="3.43158">
        <ele>737</ele>
        <time>2019-05-22T21:38:52Z</time>
      </trkpt>
      <trkpt lat="44.17032" lon="3.43154">
        <ele>739</ele>
        <time>2019-05-22T21:38:53Z</time>
      </trkpt>
      <trkpt lat="44.17018" lon="3.43137">
        <ele>744</ele>
        <time>2019-05-22T21:38:57Z</time>
      </trkpt>
      <trkpt lat="44.17012" lon="3.43133">
        <ele>746</ele>
        <time>2019-05-22T21:38:58Z</time>
      </trkpt>
      <trkpt lat="44.17002" lon="3.43133">
        <ele>746</ele>
        <time>2019-05-22T21:38:59Z</time>
      </trkpt>
      <trkpt lat="44.16997" lon="3.43136">
        <ele>747</ele>
        <time>2019-05-22T21:39:00Z</time>
      </trkpt>
      <trkpt lat="44.1699" lon="3.43146">
        <ele>747</ele>
        <time>2019-05-22T21:39:02Z</time>
      </trkpt>
      <trkpt lat="44.16979" lon="3.43172">
        <ele>746</ele>
        <time>2019-05-22T21:39:06Z</time>
      </trkpt>
      <trkpt lat="44.16971" lon="3.43185">
        <ele>746</ele>
        <time>2019-05-22T21:39:08Z</time>
      </trkpt>
      <trkpt lat="44.1696" lon="3.43197">
        <ele>746</ele>
        <time>2019-05-22T21:39:11Z</time>
      </trkpt>
      <trkpt lat="44.16948" lon="3.43208">
        <ele>747</ele>
        <time>2019-05-22T21:39:13Z</time>
      </trkpt>
      <trkpt lat="44.16803" lon="3.43315">
        <ele>758</ele>
        <time>2019-05-22T21:39:43Z</time>
      </trkpt>
      <trkpt lat="44.1678" lon="3.43325">
        <ele>760</ele>
        <time>2019-05-22T21:39:47Z</time>
      </trkpt>
      <trkpt lat="44.16725" lon="3.4334">
        <ele>769</ele>
        <time>2019-05-22T21:39:57Z</time>
      </trkpt>
      <trkpt lat="44.16691" lon="3.43357">
        <ele>773</ele>
        <time>2019-05-22T21:40:03Z</time>
      </trkpt>
      <trkpt lat="44.16664" lon="3.43374">
        <ele>774</ele>
        <time>2019-05-22T21:40:08Z</time>
      </trkpt>
      <trkpt lat="44.16586" lon="3.43443">
        <ele>777</ele>
        <time>2019-05-22T21:40:25Z</time>
      </trkpt>
      <trkpt lat="44.16574" lon="3.4345">
        <ele>778</ele>
        <time>2019-05-22T21:40:27Z</time>
      </trkpt>
      <trkpt lat="44.16561" lon="3.43452">
        <ele>780</ele>
        <time>2019-05-22T21:40:30Z</time>
      </trkpt>
      <trkpt lat="44.16537" lon="3.43446">
        <ele>787</ele>
        <time>2019-05-22T21:40:34Z</time>
      </trkpt>
      <trkpt lat="44.16528" lon="3.43449">
        <ele>789</ele>
        <time>2019-05-22T21:40:36Z</time>
      </trkpt>
      <trkpt lat="44.16522" lon="3.43457">
        <ele>788</ele>
        <time>2019-05-22T21:40:37Z</time>
      </trkpt>
      <trkpt lat="44.16515" lon="3.43475">
        <ele>784</ele>
        <time>2019-05-22T21:40:40Z</time>
      </trkpt>
      <trkpt lat="44.16498" lon="3.43504">
        <ele>781</ele>
        <time>2019-05-22T21:40:44Z</time>
      </trkpt>
      <trkpt lat="44.16488" lon="3.43516">
        <ele>781</ele>
        <time>2019-05-22T21:40:47Z</time>
      </trkpt>
      <trkpt lat="44.16473" lon="3.43529">
        <ele>783</ele>
        <time>2019-05-22T21:40:50Z</time>
      </trkpt>
      <trkpt lat="44.16344" lon="3.43575">
        <ele>802</ele>
        <time>2019-05-22T21:41:14Z</time>
      </trkpt>
      <trkpt lat="44.16297" lon="3.43599">
        <ele>801</ele>
        <time>2019-05-22T21:41:22Z</time>
      </trkpt>
      <trkpt lat="44.16271" lon="3.43605">
        <ele>802</ele>
        <time>2019-05-22T21:41:27Z</time>
      </trkpt>
      <trkpt lat="44.16252" lon="3.43604">
        <ele>803</ele>
        <time>2019-05-22T21:41:31Z</time>
      </trkpt>
      <trkpt lat="44.16241" lon="3.43594">
        <ele>803</ele>
        <time>2019-05-22T21:41:33Z</time>
      </trkpt>
      <trkpt lat="44.16232" lon="3.4358">
        <ele>803</ele>
        <time>2019-05-22T21:41:35Z</time>
      </trkpt>
      <trkpt lat="44.16208" lon="3.43505">
        <ele>809</ele>
        <time>2019-05-22T21:41:46Z</time>
      </trkpt>
      <trkpt lat="44.1618" lon="3.4345">
        <ele>811</ele>
        <time>2019-05-22T21:41:54Z</time>
      </trkpt>
      <trkpt lat="44.16172" lon="3.43428">
        <ele>812</ele>
        <time>2019-05-22T21:41:58Z</time>
      </trkpt>
      <trkpt lat="44.16165" lon="3.43392">
        <ele>816</ele>
        <time>2019-05-22T21:42:02Z</time>
      </trkpt>
      <trkpt lat="44.16154" lon="3.43359">
        <ele>818</ele>
        <time>2019-05-22T21:42:07Z</time>
      </trkpt>
      <trkpt lat="44.16126" lon="3.43293">
        <ele>823</ele>
        <time>2019-05-22T21:42:17Z</time>
      </trkpt>
      <trkpt lat="44.16075" lon="3.43182">
        <ele>829</ele>
        <time>2019-05-22T21:42:34Z</time>
      </trkpt>
      <trkpt lat="44.16049" lon="3.43119">
        <ele>839</ele>
        <time>2019-05-22T21:42:43Z</time>
      </trkpt>
      <trkpt lat="44.16027" lon="3.43083">
        <ele>839</ele>
        <time>2019-05-22T21:42:49Z</time>
      </trkpt>
      <trkpt lat="44.15945" lon="3.42971">
        <ele>849</ele>
        <time>2019-05-22T21:43:09Z</time>
      </trkpt>
      <trkpt lat="44.15929" lon="3.42935">
        <ele>855</ele>
        <time>2019-05-22T21:43:15Z</time>
      </trkpt>
      <trkpt lat="44.15919" lon="3.42932">
        <ele>853</ele>
        <time>2019-05-22T21:43:17Z</time>
      </trkpt>
      <trkpt lat="44.15892" lon="3.42939">
        <ele>851</ele>
        <time>2019-05-22T21:43:21Z</time>
      </trkpt>
      <trkpt lat="44.15869" lon="3.42941">
        <ele>852</ele>
        <time>2019-05-22T21:43:26Z</time>
      </trkpt>
      <trkpt lat="44.15802" lon="3.42935">
        <ele>859</ele>
        <time>2019-05-22T21:43:37Z</time>
      </trkpt>
      <trkpt lat="44.15763" lon="3.42935">
        <ele>863</ele>
        <time>2019-05-22T21:43:44Z</time>
      </trkpt>
      <trkpt lat="44.15693" lon="3.42927">
        <ele>869</ele>
        <time>2019-05-22T21:43:57Z</time>
      </trkpt>
      <trkpt lat="44.1568" lon="3.42929">
        <ele>869</ele>
        <time>2019-05-22T21:43:59Z</time>
      </trkpt>
      <trkpt lat="44.15669" lon="3.42938">
        <ele>870</ele>
        <time>2019-05-22T21:44:01Z</time>
      </trkpt>
      <trkpt lat="44.15665" lon="3.42949">
        <ele>870</ele>
        <time>2019-05-22T21:44:03Z</time>
      </trkpt>
      <trkpt lat="44.15667" lon="3.4296">
        <ele>870</ele>
        <time>2019-05-22T21:44:05Z</time>
      </trkpt>
      <trkpt lat="44.15673" lon="3.42972">
        <ele>869</ele>
        <time>2019-05-22T21:44:06Z</time>
      </trkpt>
      <trkpt lat="44.15698" lon="3.43008">
        <ele>865</ele>
        <time>2019-05-22T21:44:13Z</time>
      </trkpt>
      <trkpt lat="44.15708" lon="3.43031">
        <ele>867</ele>
        <time>2019-05-22T21:44:16Z</time>
      </trkpt>
      <trkpt lat="44.15719" lon="3.43065">
        <ele>869</ele>
        <time>2019-05-22T21:44:21Z</time>
      </trkpt>
      <trkpt lat="44.15727" lon="3.43099">
        <ele>871</ele>
        <time>2019-05-22T21:44:26Z</time>
      </trkpt>
      <trkpt lat="44.1573" lon="3.43134">
        <ele>875</ele>
        <time>2019-05-22T21:44:30Z</time>
      </trkpt>
      <trkpt lat="44.15728" lon="3.43187">
        <ele>882</ele>
        <time>2019-05-22T21:44:37Z</time>
      </trkpt>
      <trkpt lat="44.15729" lon="3.43208">
        <ele>883</ele>
        <time>2019-05-22T21:44:39Z</time>
      </trkpt>
      <trkpt lat="44.15732" lon="3.43224">
        <ele>884</ele>
        <time>2019-05-22T21:44:42Z</time>
      </trkpt>
      <trkpt lat="44.15763" lon="3.4328">
        <ele>880</ele>
        <time>2019-05-22T21:44:51Z</time>
      </trkpt>
      <trkpt lat="44.15772" lon="3.43306">
        <ele>880</ele>
        <time>2019-05-22T21:44:54Z</time>
      </trkpt>
      <trkpt lat="44.15778" lon="3.43332">
        <ele>881</ele>
        <time>2019-05-22T21:44:58Z</time>
      </trkpt>
      <trkpt lat="44.15782" lon="3.4336">
        <ele>883</ele>
        <time>2019-05-22T21:45:01Z</time>
      </trkpt>
      <trkpt lat="44.15789" lon="3.43455">
        <ele>888</ele>
        <time>2019-05-22T21:45:14Z</time>
      </trkpt>
      <trkpt lat="44.15788" lon="3.43532">
        <ele>892</ele>
        <time>2019-05-22T21:45:23Z</time>
      </trkpt>
      <trkpt lat="44.15796" lon="3.43624">
        <ele>885</ele>
        <time>2019-05-22T21:45:35Z</time>
      </trkpt>
      <trkpt lat="44.15795" lon="3.43634">
        <ele>884</ele>
        <time>2019-05-22T21:45:37Z</time>
      </trkpt>
      <trkpt lat="44.15789" lon="3.43642">
        <ele>884</ele>
        <time>2019-05-22T21:45:38Z</time>
      </trkpt>
      <trkpt lat="44.15778" lon="3.43646">
        <ele>885</ele>
        <time>2019-05-22T21:45:40Z</time>
      </trkpt>
      <trkpt lat="44.15766" lon="3.43644">
        <ele>887</ele>
        <time>2019-05-22T21:45:42Z</time>
      </trkpt>
      <trkpt lat="44.15748" lon="3.43638">
        <ele>891</ele>
        <time>2019-05-22T21:45:46Z</time>
      </trkpt>
      <trkpt lat="44.15719" lon="3.43631">
        <ele>896</ele>
        <time>2019-05-22T21:45:51Z</time>
      </trkpt>
      <trkpt lat="44.15688" lon="3.4363">
        <ele>901</ele>
        <time>2019-05-22T21:45:56Z</time>
      </trkpt>
      <trkpt lat="44.1566" lon="3.43632">
        <ele>904</ele>
        <time>2019-05-22T21:46:01Z</time>
      </trkpt>
      <trkpt lat="44.15637" lon="3.43639">
        <ele>905</ele>
        <time>2019-05-22T21:46:05Z</time>
      </trkpt>
      <trkpt lat="44.15588" lon="3.43679">
        <ele>901</ele>
        <time>2019-05-22T21:46:16Z</time>
      </trkpt>
      <trkpt lat="44.15559" lon="3.43691">
        <ele>904</ele>
        <time>2019-05-22T21:46:21Z</time>
      </trkpt>
      <trkpt lat="44.15445" lon="3.43712">
        <ele>922</ele>
        <time>2019-05-22T21:46:41Z</time>
      </trkpt>
      <trkpt lat="44.15393" lon="3.43729">
        <ele>928</ele>
        <time>2019-05-22T21:46:51Z</time>
      </trkpt>
      <trkpt lat="44.15376" lon="3.4374">
        <ele>928</ele>
        <time>2019-05-22T21:46:54Z</time>
      </trkpt>
      <trkpt lat="44.15363" lon="3.43755">
        <ele>927</ele>
        <time>2019-05-22T21:46:57Z</time>
      </trkpt>
      <trkpt lat="44.1535" lon="3.43791">
        <ele>920</ele>
        <time>2019-05-22T21:47:02Z</time>
      </trkpt>
      <trkpt lat="44.15344" lon="3.43797">
        <ele>919</ele>
        <time>2019-05-22T21:47:04Z</time>
      </trkpt>
      <trkpt lat="44.15337" lon="3.43797">
        <ele>920</ele>
        <time>2019-05-22T21:47:05Z</time>
      </trkpt>
      <trkpt lat="44.15333" lon="3.43792">
        <ele>923</ele>
        <time>2019-05-22T21:47:06Z</time>
      </trkpt>
      <trkpt lat="44.15331" lon="3.43781">
        <ele>926</ele>
        <time>2019-05-22T21:47:07Z</time>
      </trkpt>
      <trkpt lat="44.15334" lon="3.43771">
        <ele>928</ele>
        <time>2019-05-22T21:47:09Z</time>
      </trkpt>
      <trkpt lat="44.1537" lon="3.43725">
        <ele>933</ele>
        <time>2019-05-22T21:47:17Z</time>
      </trkpt>
      <trkpt lat="44.15399" lon="3.43682">
        <ele>938</ele>
        <time>2019-05-22T21:47:25Z</time>
      </trkpt>
      <trkpt lat="44.15411" lon="3.4367">
        <ele>938</ele>
        <time>2019-05-22T21:47:28Z</time>
      </trkpt>
      <trkpt lat="44.15429" lon="3.43659">
        <ele>938</ele>
        <time>2019-05-22T21:47:31Z</time>
      </trkpt>
      <trkpt lat="44.15451" lon="3.43649">
        <ele>936</ele>
        <time>2019-05-22T21:47:35Z</time>
      </trkpt>
      <trkpt lat="44.15474" lon="3.43634">
        <ele>936</ele>
        <time>2019-05-22T21:47:40Z</time>
      </trkpt>
      <trkpt lat="44.15527" lon="3.43578">
        <ele>941</ele>
        <time>2019-05-22T21:47:52Z</time>
      </trkpt>
      <trkpt lat="44.15567" lon="3.4354">
        <ele>941</ele>
        <time>2019-05-22T21:48:00Z</time>
      </trkpt>
      <trkpt lat="44.15576" lon="3.43525">
        <ele>942</ele>
        <time>2019-05-22T21:48:03Z</time>
      </trkpt>
      <trkpt lat="44.15582" lon="3.43507">
        <ele>944</ele>
        <time>2019-05-22T21:48:05Z</time>
      </trkpt>
      <trkpt lat="44.15582" lon="3.43483">
        <ele>946</ele>
        <time>2019-05-22T21:48:08Z</time>
      </trkpt>
      <trkpt lat="44.15578" lon="3.43463">
        <ele>948</ele>
        <time>2019-05-22T21:48:11Z</time>
      </trkpt>
      <trkpt lat="44.1557" lon="3.4345">
        <ele>949</ele>
        <time>2019-05-22T21:48:13Z</time>
      </trkpt>
      <trkpt lat="44.15558" lon="3.4344">
        <ele>951</ele>
        <time>2019-05-22T21:48:16Z</time>
      </trkpt>
      <trkpt lat="44.15546" lon="3.43427">
        <ele>953</ele>
        <time>2019-05-22T21:48:18Z</time>
      </trkpt>
      <trkpt lat="44.15529" lon="3.43393">
        <ele>954</ele>
        <time>2019-05-22T21:48:24Z</time>
      </trkpt>
      <trkpt lat="44.15478" lon="3.43316">
        <ele>957</ele>
        <time>2019-05-22T21:48:37Z</time>
      </trkpt>
      <trkpt lat="44.1545" lon="3.4328">
        <ele>957</ele>
        <time>2019-05-22T21:48:44Z</time>
      </trkpt>
      <trkpt lat="44.15415" lon="3.4325">
        <ele>958</ele>
        <time>2019-05-22T21:48:51Z</time>
      </trkpt>
      <trkpt lat="44.15376" lon="3.43226">
        <ele>963</ele>
        <time>2019-05-22T21:48:59Z</time>
      </trkpt>
      <trkpt lat="44.15299" lon="3.43192">
        <ele>971</ele>
        <time>2019-05-22T21:49:13Z</time>
      </trkpt>
      <trkpt lat="44.15269" lon="3.43176">
        <ele>974</ele>
        <time>2019-05-22T21:49:19Z</time>
      </trkpt>
      <trkpt lat="44.15231" lon="3.43148">
        <ele>981</ele>
        <time>2019-05-22T21:49:26Z</time>
      </trkpt>
      <trkpt lat="44.15186" lon="3.43105">
        <ele>992</ele>
        <time>2019-05-22T21:49:36Z</time>
      </trkpt>
      <trkpt lat="44.15176" lon="3.43086">
        <ele>993</ele>
        <time>2019-05-22T21:49:39Z</time>
      </trkpt>
      <trkpt lat="44.15171" lon="3.43072">
        <ele>995</ele>
        <time>2019-05-22T21:49:41Z</time>
      </trkpt>
      <trkpt lat="44.15171" lon="3.4306">
        <ele>995</ele>
        <time>2019-05-22T21:49:43Z</time>
      </trkpt>
      <trkpt lat="44.15176" lon="3.43045">
        <ele>993</ele>
        <time>2019-05-22T21:49:45Z</time>
      </trkpt>
      <trkpt lat="44.15184" lon="3.43026">
        <ele>990</ele>
        <time>2019-05-22T21:49:48Z</time>
      </trkpt>
      <trkpt lat="44.15194" lon="3.42987">
        <ele>986</ele>
        <time>2019-05-22T21:49:53Z</time>
      </trkpt>
      <trkpt lat="44.15197" lon="3.4296">
        <ele>986</ele>
        <time>2019-05-22T21:49:56Z</time>
      </trkpt>
      <trkpt lat="44.15196" lon="3.42938">
        <ele>988</ele>
        <time>2019-05-22T21:49:59Z</time>
      </trkpt>
      <trkpt lat="44.15191" lon="3.42914">
        <ele>990</ele>
        <time>2019-05-22T21:50:02Z</time>
      </trkpt>
      <trkpt lat="44.1518" lon="3.42887">
        <ele>992</ele>
        <time>2019-05-22T21:50:06Z</time>
      </trkpt>
      <trkpt lat="44.15099" lon="3.42734">
        <ele>1007</ele>
        <time>2019-05-22T21:50:31Z</time>
      </trkpt>
      <trkpt lat="44.15068" lon="3.42678">
        <ele>1015</ele>
        <time>2019-05-22T21:50:40Z</time>
      </trkpt>
      <trkpt lat="44.15063" lon="3.42662">
        <ele>1016</ele>
        <time>2019-05-22T21:50:42Z</time>
      </trkpt>
      <trkpt lat="44.15064" lon="3.42645">
        <ele>1017</ele>
        <time>2019-05-22T21:50:44Z</time>
      </trkpt>
      <trkpt lat="44.15069" lon="3.42633">
        <ele>1016</ele>
        <time>2019-05-22T21:50:46Z</time>
      </trkpt>
      <trkpt lat="44.15083" lon="3.42611">
        <ele>1014</ele>
        <time>2019-05-22T21:50:50Z</time>
      </trkpt>
      <trkpt lat="44.15092" lon="3.42593">
        <ele>1013</ele>
        <time>2019-05-22T21:50:52Z</time>
      </trkpt>
      <trkpt lat="44.15112" lon="3.42535">
        <ele>1014</ele>
        <time>2019-05-22T21:51:01Z</time>
      </trkpt>
      <trkpt lat="44.15152" lon="3.42456">
        <ele>1013</ele>
        <time>2019-05-22T21:51:13Z</time>
      </trkpt>
      <trkpt lat="44.15161" lon="3.42431">
        <ele>1013</ele>
        <time>2019-05-22T21:51:16Z</time>
      </trkpt>
      <trkpt lat="44.15168" lon="3.42404">
        <ele>1012</ele>
        <time>2019-05-22T21:51:20Z</time>
      </trkpt>
      <trkpt lat="44.15182" lon="3.42319">
        <ele>1009</ele>
        <time>2019-05-22T21:51:31Z</time>
      </trkpt>
      <trkpt lat="44.1519" lon="3.42252">
        <ele>1007</ele>
        <time>2019-05-22T21:51:40Z</time>
      </trkpt>
      <trkpt lat="44.15219" lon="3.42128">
        <ele>1003</ele>
        <time>2019-05-22T21:51:57Z</time>
      </trkpt>
      <trkpt lat="44.15293" lon="3.41774">
        <ele>992</ele>
        <time>2019-05-22T21:52:44Z</time>
      </trkpt>
      <trkpt lat="44.15329" lon="3.41631">
        <ele>991</ele>
        <time>2019-05-22T21:53:03Z</time>
      </trkpt>
      <trkpt lat="44.15332" lon="3.41614">
        <ele>991</ele>
        <time>2019-05-22T21:53:05Z</time>
      </trkpt>
      <trkpt lat="44.15331" lon="3.41592">
        <ele>990</ele>
        <time>2019-05-22T21:53:08Z</time>
      </trkpt>
      <trkpt lat="44.15329" lon="3.41573">
        <ele>990</ele>
        <time>2019-05-22T21:53:10Z</time>
      </trkpt>
      <trkpt lat="44.15323" lon="3.41555">
        <ele>989</ele>
        <time>2019-05-22T21:53:13Z</time>
      </trkpt>
      <trkpt lat="44.15312" lon="3.41538">
        <ele>989</ele>
        <time>2019-05-22T21:53:16Z</time>
      </trkpt>
      <trkpt lat="44.15211" lon="3.41433">
        <ele>982</ele>
        <time>2019-05-22T21:53:38Z</time>
      </trkpt>
      <trkpt lat="44.15194" lon="3.41413">
        <ele>982</ele>
        <time>2019-05-22T21:53:42Z</time>
      </trkpt>
      <trkpt lat="44.14894" lon="3.41192">
        <ele>966</ele>
        <time>2019-05-22T21:54:43Z</time>
      </trkpt>
      <trkpt lat="44.14877" lon="3.41179">
        <ele>965</ele>
        <time>2019-05-22T21:54:46Z</time>
      </trkpt>
      <trkpt lat="44.14863" lon="3.41166">
        <ele>964</ele>
        <time>2019-05-22T21:54:49Z</time>
      </trkpt>
      <trkpt lat="44.14852" lon="3.41149">
        <ele>964</ele>
        <time>2019-05-22T21:54:52Z</time>
      </trkpt>
      <trkpt lat="44.14826" lon="3.411">
        <ele>962</ele>
        <time>2019-05-22T21:55:00Z</time>
      </trkpt>
      <trkpt lat="44.14804" lon="3.41063">
        <ele>961</ele>
        <time>2019-05-22T21:55:06Z</time>
      </trkpt>
      <trkpt lat="44.14791" lon="3.41045">
        <ele>960</ele>
        <time>2019-05-22T21:55:09Z</time>
      </trkpt>
      <trkpt lat="44.14751" lon="3.41003">
        <ele>956</ele>
        <time>2019-05-22T21:55:18Z</time>
      </trkpt>
      <trkpt lat="44.14739" lon="3.40984">
        <ele>956</ele>
        <time>2019-05-22T21:55:21Z</time>
      </trkpt>
      <trkpt lat="44.14711" lon="3.40909">
        <ele>957</ele>
        <time>2019-05-22T21:55:32Z</time>
      </trkpt>
      <trkpt lat="44.14696" lon="3.40876">
        <ele>955</ele>
        <time>2019-05-22T21:55:37Z</time>
      </trkpt>
      <trkpt lat="44.14676" lon="3.40827">
        <ele>953</ele>
        <time>2019-05-22T21:55:44Z</time>
      </trkpt>
      <trkpt lat="44.14662" lon="3.408">
        <ele>953</ele>
        <time>2019-05-22T21:55:49Z</time>
      </trkpt>
      <trkpt lat="44.14629" lon="3.40748">
        <ele>952</ele>
        <time>2019-05-22T21:55:57Z</time>
      </trkpt>
      <trkpt lat="44.14598" lon="3.40672">
        <ele>951</ele>
        <time>2019-05-22T21:56:09Z</time>
      </trkpt>
      <trkpt lat="44.14585" lon="3.40645">
        <ele>949</ele>
        <time>2019-05-22T21:56:13Z</time>
      </trkpt>
      <trkpt lat="44.14567" lon="3.40622">
        <ele>949</ele>
        <time>2019-05-22T21:56:17Z</time>
      </trkpt>
      <trkpt lat="44.14556" lon="3.40613">
        <ele>949</ele>
        <time>2019-05-22T21:56:19Z</time>
      </trkpt>
      <trkpt lat="44.14526" lon="3.40605">
        <ele>947</ele>
        <time>2019-05-22T21:56:25Z</time>
      </trkpt>
      <trkpt lat="44.14474" lon="3.40609">
        <ele>947</ele>
        <time>2019-05-22T21:56:34Z</time>
      </trkpt>
      <trkpt lat="44.14417" lon="3.40617">
        <ele>950</ele>
        <time>2019-05-22T21:56:44Z</time>
      </trkpt>
      <trkpt lat="44.14395" lon="3.40616">
        <ele>952</ele>
        <time>2019-05-22T21:56:48Z</time>
      </trkpt>
      <trkpt lat="44.14375" lon="3.40606">
        <ele>954</ele>
        <time>2019-05-22T21:56:52Z</time>
      </trkpt>
      <trkpt lat="44.14299" lon="3.40548">
        <ele>959</ele>
        <time>2019-05-22T21:57:07Z</time>
      </trkpt>
      <trkpt lat="44.14281" lon="3.40539">
        <ele>960</ele>
        <time>2019-05-22T21:57:11Z</time>
      </trkpt>
      <trkpt lat="44.1425" lon="3.40535">
        <ele>962</ele>
        <time>2019-05-22T21:57:16Z</time>
      </trkpt>
      <trkpt lat="44.1419" lon="3.40539">
        <ele>965</ele>
        <time>2019-05-22T21:57:27Z</time>
      </trkpt>
      <trkpt lat="44.1417" lon="3.40537">
        <ele>966</ele>
        <time>2019-05-22T21:57:31Z</time>
      </trkpt>
      <trkpt lat="44.14056" lon="3.40504">
        <ele>968</ele>
        <time>2019-05-22T21:57:51Z</time>
      </trkpt>
      <trkpt lat="44.14041" lon="3.40502">
        <ele>969</ele>
        <time>2019-05-22T21:57:54Z</time>
      </trkpt>
      <trkpt lat="44.14025" lon="3.40505">
        <ele>969</ele>
        <time>2019-05-22T21:57:57Z</time>
      </trkpt>
      <trkpt lat="44.14017" lon="3.40511">
        <ele>970</ele>
        <time>2019-05-22T21:57:59Z</time>
      </trkpt>
      <trkpt lat="44.14005" lon="3.40526">
        <ele>971</ele>
        <time>2019-05-22T21:58:01Z</time>
      </trkpt>
      <trkpt lat="44.13999" lon="3.40547">
        <ele>973</ele>
        <time>2019-05-22T21:58:04Z</time>
      </trkpt>
      <trkpt lat="44.13991" lon="3.40586">
        <ele>976</ele>
        <time>2019-05-22T21:58:09Z</time>
      </trkpt>
      <trkpt lat="44.13985" lon="3.40602">
        <ele>977</ele>
        <time>2019-05-22T21:58:12Z</time>
      </trkpt>
      <trkpt lat="44.13978" lon="3.40611">
        <ele>978</ele>
        <time>2019-05-22T21:58:13Z</time>
      </trkpt>
      <trkpt lat="44.13971" lon="3.40614">
        <ele>978</ele>
        <time>2019-05-22T21:58:15Z</time>
      </trkpt>
      <trkpt lat="44.13957" lon="3.40613">
        <ele>979</ele>
        <time>2019-05-22T21:58:17Z</time>
      </trkpt>
      <trkpt lat="44.13951" lon="3.40609">
        <ele>979</ele>
        <time>2019-05-22T21:58:18Z</time>
      </trkpt>
      <trkpt lat="44.13951" lon="3.40609">
        <ele>979</ele>
        <time>2019-05-22T21:58:18Z</time>
      </trkpt>
      <trkpt lat="44.13938" lon="3.4059">
        <ele>979</ele>
        <time>2019-05-22T21:58:22Z</time>
      </trkpt>
      <trkpt lat="44.13902" lon="3.40528">
        <ele>978</ele>
        <time>2019-05-22T21:58:32Z</time>
      </trkpt>
      <trkpt lat="44.13891" lon="3.40518">
        <ele>978</ele>
        <time>2019-05-22T21:58:34Z</time>
      </trkpt>
      <trkpt lat="44.13878" lon="3.40518">
        <ele>979</ele>
        <time>2019-05-22T21:58:37Z</time>
      </trkpt>
      <trkpt lat="44.1387" lon="3.40521">
        <ele>979</ele>
        <time>2019-05-22T21:58:38Z</time>
      </trkpt>
      <trkpt lat="44.13855" lon="3.40536">
        <ele>980</ele>
        <time>2019-05-22T21:58:41Z</time>
      </trkpt>
      <trkpt lat="44.13782" lon="3.40638">
        <ele>989</ele>
        <time>2019-05-22T21:59:00Z</time>
      </trkpt>
      <trkpt lat="44.13773" lon="3.40648">
        <ele>990</ele>
        <time>2019-05-22T21:59:02Z</time>
      </trkpt>
      <trkpt lat="44.13764" lon="3.40655">
        <ele>991</ele>
        <time>2019-05-22T21:59:04Z</time>
      </trkpt>
      <trkpt lat="44.13756" lon="3.40658">
        <ele>991</ele>
        <time>2019-05-22T21:59:05Z</time>
      </trkpt>
      <trkpt lat="44.13739" lon="3.40657">
        <ele>993</ele>
        <time>2019-05-22T21:59:08Z</time>
      </trkpt>
      <trkpt lat="44.13733" lon="3.40653">
        <ele>994</ele>
        <time>2019-05-22T21:59:09Z</time>
      </trkpt>
      <trkpt lat="44.13718" lon="3.40638">
        <ele>995</ele>
        <time>2019-05-22T21:59:13Z</time>
      </trkpt>
      <trkpt lat="44.13663" lon="3.40533">
        <ele>995</ele>
        <time>2019-05-22T21:59:29Z</time>
      </trkpt>
      <trkpt lat="44.13649" lon="3.40508">
        <ele>996</ele>
        <time>2019-05-22T21:59:33Z</time>
      </trkpt>
      <trkpt lat="44.13638" lon="3.40495">
        <ele>996</ele>
        <time>2019-05-22T21:59:36Z</time>
      </trkpt>
      <trkpt lat="44.13621" lon="3.40483">
        <ele>996</ele>
        <time>2019-05-22T21:59:39Z</time>
      </trkpt>
      <trkpt lat="44.1351" lon="3.40445">
        <ele>1002</ele>
        <time>2019-05-22T22:00:00Z</time>
      </trkpt>
      <trkpt lat="44.13476" lon="3.40435">
        <ele>1005</ele>
        <time>2019-05-22T22:00:06Z</time>
      </trkpt>
      <trkpt lat="44.13459" lon="3.40428">
        <ele>1007</ele>
        <time>2019-05-22T22:00:09Z</time>
      </trkpt>
      <trkpt lat="44.13449" lon="3.4042">
        <ele>1007</ele>
        <time>2019-05-22T22:00:11Z</time>
      </trkpt>
      <trkpt lat="44.13444" lon="3.40412">
        <ele>1008</ele>
        <time>2019-05-22T22:00:12Z</time>
      </trkpt>
      <trkpt lat="44.13426" lon="3.40372">
        <ele>1008</ele>
        <time>2019-05-22T22:00:18Z</time>
      </trkpt>
      <trkpt lat="44.13404" lon="3.40328">
        <ele>1008</ele>
        <time>2019-05-22T22:00:25Z</time>
      </trkpt>
      <trkpt lat="44.13396" lon="3.40319">
        <ele>1008</ele>
        <time>2019-05-22T22:00:27Z</time>
      </trkpt>
      <trkpt lat="44.13377" lon="3.4031">
        <ele>1008</ele>
        <time>2019-05-22T22:00:31Z</time>
      </trkpt>
      <trkpt lat="44.13364" lon="3.40307">
        <ele>1008</ele>
        <time>2019-05-22T22:00:33Z</time>
      </trkpt>
      <trkpt lat="44.13361" lon="3.40292">
        <ele>1007</ele>
        <time>2019-05-22T22:00:35Z</time>
      </trkpt>
      <trkpt lat="44.13353" lon="3.40279">
        <ele>1006</ele>
        <time>2019-05-22T22:00:37Z</time>
      </trkpt>
      <trkpt lat="44.13343" lon="3.4027">
        <ele>1005</ele>
        <time>2019-05-22T22:00:39Z</time>
      </trkpt>
      <trkpt lat="44.13308" lon="3.40253">
        <ele>1005</ele>
        <time>2019-05-22T22:00:46Z</time>
      </trkpt>
      <trkpt lat="44.13258" lon="3.40211">
        <ele>1001</ele>
        <time>2019-05-22T22:00:56Z</time>
      </trkpt>
      <trkpt lat="44.13214" lon="3.40182">
        <ele>999</ele>
        <time>2019-05-22T22:01:05Z</time>
      </trkpt>
      <trkpt lat="44.13199" lon="3.40161">
        <ele>997</ele>
        <time>2019-05-22T22:01:09Z</time>
      </trkpt>
      <trkpt lat="44.13185" lon="3.40132">
        <ele>994</ele>
        <time>2019-05-22T22:01:13Z</time>
      </trkpt>
      <trkpt lat="44.13089" lon="3.40004">
        <ele>987</ele>
        <time>2019-05-22T22:01:37Z</time>
      </trkpt>
      <trkpt lat="44.13074" lon="3.39981">
        <ele>985</ele>
        <time>2019-05-22T22:01:41Z</time>
      </trkpt>
      <trkpt lat="44.13052" lon="3.39958">
        <ele>982</ele>
        <time>2019-05-22T22:01:46Z</time>
      </trkpt>
      <trkpt lat="44.12984" lon="3.3991">
        <ele>979</ele>
        <time>2019-05-22T22:01:59Z</time>
      </trkpt>
      <trkpt lat="44.12973" lon="3.39908">
        <ele>978</ele>
        <time>2019-05-22T22:02:01Z</time>
      </trkpt>
      <trkpt lat="44.12962" lon="3.39919">
        <ele>977</ele>
        <time>2019-05-22T22:02:04Z</time>
      </trkpt>
      <trkpt lat="44.1296" lon="3.39934">
        <ele>977</ele>
        <time>2019-05-22T22:02:06Z</time>
      </trkpt>
      <trkpt lat="44.12965" lon="3.39949">
        <ele>977</ele>
        <time>2019-05-22T22:02:08Z</time>
      </trkpt>
      <trkpt lat="44.12981" lon="3.39966">
        <ele>979</ele>
        <time>2019-05-22T22:02:11Z</time>
      </trkpt>
      <trkpt lat="44.12989" lon="3.39979">
        <ele>980</ele>
        <time>2019-05-22T22:02:13Z</time>
      </trkpt>
      <trkpt lat="44.12991" lon="3.39995">
        <ele>980</ele>
        <time>2019-05-22T22:02:15Z</time>
      </trkpt>
      <trkpt lat="44.12986" lon="3.40011">
        <ele>980</ele>
        <time>2019-05-22T22:02:18Z</time>
      </trkpt>
      <trkpt lat="44.12977" lon="3.40021">
        <ele>979</ele>
        <time>2019-05-22T22:02:20Z</time>
      </trkpt>
      <trkpt lat="44.12967" lon="3.40018">
        <ele>978</ele>
        <time>2019-05-22T22:02:22Z</time>
      </trkpt>
      <trkpt lat="44.12959" lon="3.40011">
        <ele>977</ele>
        <time>2019-05-22T22:02:23Z</time>
      </trkpt>
      <trkpt lat="44.12953" lon="3.40002">
        <ele>975</ele>
        <time>2019-05-22T22:02:25Z</time>
      </trkpt>
      <trkpt lat="44.12945" lon="3.39974">
        <ele>975</ele>
        <time>2019-05-22T22:02:29Z</time>
      </trkpt>
      <trkpt lat="44.12932" lon="3.39953">
        <ele>974</ele>
        <time>2019-05-22T22:02:32Z</time>
      </trkpt>
      <trkpt lat="44.12918" lon="3.39936">
        <ele>973</ele>
        <time>2019-05-22T22:02:35Z</time>
      </trkpt>
      <trkpt lat="44.12901" lon="3.39921">
        <ele>971</ele>
        <time>2019-05-22T22:02:39Z</time>
      </trkpt>
      <trkpt lat="44.12864" lon="3.39895">
        <ele>968</ele>
        <time>2019-05-22T22:02:46Z</time>
      </trkpt>
      <trkpt lat="44.12806" lon="3.39869">
        <ele>961</ele>
        <time>2019-05-22T22:02:57Z</time>
      </trkpt>
      <trkpt lat="44.12779" lon="3.39844">
        <ele>959</ele>
        <time>2019-05-22T22:03:03Z</time>
      </trkpt>
      <trkpt lat="44.12757" lon="3.39816">
        <ele>956</ele>
        <time>2019-05-22T22:03:08Z</time>
      </trkpt>
      <trkpt lat="44.12732" lon="3.39794">
        <ele>952</ele>
        <time>2019-05-22T22:03:14Z</time>
      </trkpt>
      <trkpt lat="44.12712" lon="3.39767">
        <ele>949</ele>
        <time>2019-05-22T22:03:19Z</time>
      </trkpt>
      <trkpt lat="44.12697" lon="3.39742">
        <ele>946</ele>
        <time>2019-05-22T22:03:23Z</time>
      </trkpt>
      <trkpt lat="44.1269" lon="3.39716">
        <ele>944</ele>
        <time>2019-05-22T22:03:26Z</time>
      </trkpt>
      <trkpt lat="44.12687" lon="3.39692">
        <ele>943</ele>
        <time>2019-05-22T22:03:29Z</time>
      </trkpt>
      <trkpt lat="44.12685" lon="3.39644">
        <ele>941</ele>
        <time>2019-05-22T22:03:36Z</time>
      </trkpt>
      <trkpt lat="44.1268" lon="3.39625">
        <ele>940</ele>
        <time>2019-05-22T22:03:38Z</time>
      </trkpt>
      <trkpt lat="44.12595" lon="3.39505">
        <ele>933</ele>
        <time>2019-05-22T22:04:00Z</time>
      </trkpt>
      <trkpt lat="44.1259" lon="3.39516">
        <ele>932</ele>
        <time>2019-05-22T22:04:01Z</time>
      </trkpt>
      <trkpt lat="44.12592" lon="3.39547">
        <ele>930</ele>
        <time>2019-05-22T22:04:05Z</time>
      </trkpt>
      <trkpt lat="44.1261" lon="3.39653">
        <ele>928</ele>
        <time>2019-05-22T22:04:19Z</time>
      </trkpt>
      <trkpt lat="44.12607" lon="3.39665">
        <ele>927</ele>
        <time>2019-05-22T22:04:21Z</time>
      </trkpt>
      <trkpt lat="44.12598" lon="3.39673">
        <ele>925</ele>
        <time>2019-05-22T22:04:23Z</time>
      </trkpt>
      <trkpt lat="44.12588" lon="3.39679">
        <ele>924</ele>
        <time>2019-05-22T22:04:25Z</time>
      </trkpt>
      <trkpt lat="44.12565" lon="3.39653">
        <ele>920</ele>
        <time>2019-05-22T22:04:30Z</time>
      </trkpt>
      <trkpt lat="44.12552" lon="3.39649">
        <ele>918</ele>
        <time>2019-05-22T22:04:32Z</time>
      </trkpt>
      <trkpt lat="44.12541" lon="3.39648">
        <ele>916</ele>
        <time>2019-05-22T22:04:34Z</time>
      </trkpt>
      <trkpt lat="44.12527" lon="3.39654">
        <ele>913</ele>
        <time>2019-05-22T22:04:37Z</time>
      </trkpt>
      <trkpt lat="44.12503" lon="3.39686">
        <ele>909</ele>
        <time>2019-05-22T22:04:43Z</time>
      </trkpt>
      <trkpt lat="44.12492" lon="3.39704">
        <ele>908</ele>
        <time>2019-05-22T22:04:46Z</time>
      </trkpt>
      <trkpt lat="44.1248" lon="3.39732">
        <ele>906</ele>
        <time>2019-05-22T22:04:50Z</time>
      </trkpt>
      <trkpt lat="44.12474" lon="3.39733">
        <ele>904</ele>
        <time>2019-05-22T22:04:51Z</time>
      </trkpt>
      <trkpt lat="44.1247" lon="3.39742">
        <ele>903</ele>
        <time>2019-05-22T22:04:52Z</time>
      </trkpt>
      <trkpt lat="44.12466" lon="3.39745">
        <ele>902</ele>
        <time>2019-05-22T22:04:53Z</time>
      </trkpt>
      <trkpt lat="44.12454" lon="3.39746">
        <ele>900</ele>
        <time>2019-05-22T22:04:55Z</time>
      </trkpt>
      <trkpt lat="44.12435" lon="3.39731">
        <ele>896</ele>
        <time>2019-05-22T22:04:59Z</time>
      </trkpt>
      <trkpt lat="44.12417" lon="3.39727">
        <ele>892</ele>
        <time>2019-05-22T22:05:02Z</time>
      </trkpt>
      <trkpt lat="44.12402" lon="3.39721">
        <ele>892</ele>
        <time>2019-05-22T22:05:05Z</time>
      </trkpt>
      <trkpt lat="44.12396" lon="3.39721">
        <ele>892</ele>
        <time>2019-05-22T22:05:06Z</time>
      </trkpt>
      <trkpt lat="44.12383" lon="3.39725">
        <ele>892</ele>
        <time>2019-05-22T22:05:09Z</time>
      </trkpt>
      <trkpt lat="44.12363" lon="3.39712">
        <ele>893</ele>
        <time>2019-05-22T22:05:13Z</time>
      </trkpt>
      <trkpt lat="44.12339" lon="3.39699">
        <ele>894</ele>
        <time>2019-05-22T22:05:17Z</time>
      </trkpt>
      <trkpt lat="44.12329" lon="3.39697">
        <ele>894</ele>
        <time>2019-05-22T22:05:19Z</time>
      </trkpt>
      <trkpt lat="44.12318" lon="3.39686">
        <ele>894</ele>
        <time>2019-05-22T22:05:21Z</time>
      </trkpt>
      <trkpt lat="44.12289" lon="3.39678">
        <ele>892</ele>
        <time>2019-05-22T22:05:27Z</time>
      </trkpt>
      <trkpt lat="44.12269" lon="3.3967">
        <ele>889</ele>
        <time>2019-05-22T22:05:30Z</time>
      </trkpt>
      <trkpt lat="44.12241" lon="3.39649">
        <ele>890</ele>
        <time>2019-05-22T22:05:36Z</time>
      </trkpt>
      <trkpt lat="44.12211" lon="3.3964">
        <ele>891</ele>
        <time>2019-05-22T22:05:41Z</time>
      </trkpt>
      <trkpt lat="44.12201" lon="3.39641">
        <ele>890</ele>
        <time>2019-05-22T22:05:43Z</time>
      </trkpt>
      <trkpt lat="44.12171" lon="3.39666">
        <ele>886</ele>
        <time>2019-05-22T22:05:49Z</time>
      </trkpt>
      <trkpt lat="44.12098" lon="3.39629">
        <ele>889</ele>
        <time>2019-05-22T22:06:03Z</time>
      </trkpt>
      <trkpt lat="44.12082" lon="3.39627">
        <ele>888</ele>
        <time>2019-05-22T22:06:06Z</time>
      </trkpt>
      <trkpt lat="44.1207" lon="3.39629">
        <ele>888</ele>
        <time>2019-05-22T22:06:08Z</time>
      </trkpt>
      <trkpt lat="44.12059" lon="3.3964">
        <ele>886</ele>
        <time>2019-05-22T22:06:11Z</time>
      </trkpt>
      <trkpt lat="44.12027" lon="3.39641">
        <ele>885</ele>
        <time>2019-05-22T22:06:16Z</time>
      </trkpt>
      <trkpt lat="44.12005" lon="3.39653">
        <ele>881</ele>
        <time>2019-05-22T22:06:21Z</time>
      </trkpt>
      <trkpt lat="44.11974" lon="3.39667">
        <ele>879</ele>
        <time>2019-05-22T22:06:26Z</time>
      </trkpt>
      <trkpt lat="44.11955" lon="3.39669">
        <ele>880</ele>
        <time>2019-05-22T22:06:30Z</time>
      </trkpt>
      <trkpt lat="44.11958" lon="3.39678">
        <ele>881</ele>
        <time>2019-05-22T22:06:31Z</time>
      </trkpt>
      <trkpt lat="44.11954" lon="3.39687">
        <ele>882</ele>
        <time>2019-05-22T22:06:32Z</time>
      </trkpt>
      <trkpt lat="44.11944" lon="3.39694">
        <ele>882</ele>
        <time>2019-05-22T22:06:34Z</time>
      </trkpt>
      <trkpt lat="44.11933" lon="3.39699">
        <ele>882</ele>
        <time>2019-05-22T22:06:36Z</time>
      </trkpt>
      <trkpt lat="44.11875" lon="3.39762">
        <ele>878</ele>
        <time>2019-05-22T22:06:50Z</time>
      </trkpt>
      <trkpt lat="44.11853" lon="3.39775">
        <ele>877</ele>
        <time>2019-05-22T22:06:54Z</time>
      </trkpt>
      <trkpt lat="44.11825" lon="3.39808">
        <ele>874</ele>
        <time>2019-05-22T22:07:00Z</time>
      </trkpt>
      <trkpt lat="44.11768" lon="3.39882">
        <ele>871</ele>
        <time>2019-05-22T22:07:14Z</time>
      </trkpt>
      <trkpt lat="44.11749" lon="3.39923">
        <ele>861</ele>
        <time>2019-05-22T22:07:20Z</time>
      </trkpt>
      <trkpt lat="44.11745" lon="3.39948">
        <ele>859</ele>
        <time>2019-05-22T22:07:24Z</time>
      </trkpt>
      <trkpt lat="44.11755" lon="3.40104">
        <ele>840</ele>
        <time>2019-05-22T22:07:44Z</time>
      </trkpt>
      <trkpt lat="44.11743" lon="3.40198">
        <ele>830</ele>
        <time>2019-05-22T22:07:56Z</time>
      </trkpt>
      <trkpt lat="44.11711" lon="3.40329">
        <ele>813</ele>
        <time>2019-05-22T22:08:14Z</time>
      </trkpt>
      <trkpt lat="44.11665" lon="3.40409">
        <ele>790</ele>
        <time>2019-05-22T22:08:27Z</time>
      </trkpt>
      <trkpt lat="44.11645" lon="3.40489">
        <ele>784</ele>
        <time>2019-05-22T22:08:38Z</time>
      </trkpt>
      <trkpt lat="44.11646" lon="3.40527">
        <ele>783</ele>
        <time>2019-05-22T22:08:42Z</time>
      </trkpt>
      <trkpt lat="44.1167" lon="3.40559">
        <ele>789</ele>
        <time>2019-05-22T22:08:48Z</time>
      </trkpt>
      <trkpt lat="44.11641" lon="3.40637">
        <ele>781</ele>
        <time>2019-05-22T22:08:59Z</time>
      </trkpt>
      <trkpt lat="44.11611" lon="3.40757">
        <ele>763</ele>
        <time>2019-05-22T22:09:16Z</time>
      </trkpt>
      <trkpt lat="44.11606" lon="3.40836">
        <ele>758</ele>
        <time>2019-05-22T22:09:26Z</time>
      </trkpt>
      <trkpt lat="44.11606" lon="3.40892">
        <ele>754</ele>
        <time>2019-05-22T22:09:33Z</time>
      </trkpt>
      <trkpt lat="44.11613" lon="3.40935">
        <ele>755</ele>
        <time>2019-05-22T22:09:39Z</time>
      </trkpt>
      <trkpt lat="44.11601" lon="3.40957">
        <ele>748</ele>
        <time>2019-05-22T22:09:42Z</time>
      </trkpt>
      <trkpt lat="44.11588" lon="3.40937">
        <ele>744</ele>
        <time>2019-05-22T22:09:46Z</time>
      </trkpt>
      <trkpt lat="44.11582" lon="3.40843">
        <ele>745</ele>
        <time>2019-05-22T22:09:58Z</time>
      </trkpt>
      <trkpt lat="44.11549" lon="3.40743">
        <ele>739</ele>
        <time>2019-05-22T22:10:12Z</time>
      </trkpt>
      <trkpt lat="44.11531" lon="3.40711">
        <ele>740</ele>
        <time>2019-05-22T22:10:17Z</time>
      </trkpt>
      <trkpt lat="44.11425" lon="3.40655">
        <ele>725</ele>
        <time>2019-05-22T22:10:37Z</time>
      </trkpt>
      <trkpt lat="44.11418" lon="3.40603">
        <ele>731</ele>
        <time>2019-05-22T22:10:44Z</time>
      </trkpt>
      <trkpt lat="44.11391" lon="3.40584">
        <ele>730</ele>
        <time>2019-05-22T22:10:49Z</time>
      </trkpt>
      <trkpt lat="44.11351" lon="3.40592">
        <ele>723</ele>
        <time>2019-05-22T22:10:56Z</time>
      </trkpt>
      <trkpt lat="44.11329" lon="3.40546">
        <ele>728</ele>
        <time>2019-05-22T22:11:03Z</time>
      </trkpt>
      <trkpt lat="44.11301" lon="3.40416">
        <ele>732</ele>
        <time>2019-05-22T22:11:21Z</time>
      </trkpt>
      <trkpt lat="44.11261" lon="3.40337">
        <ele>729</ele>
        <time>2019-05-22T22:11:33Z</time>
      </trkpt>
      <trkpt lat="44.11174" lon="3.40248">
        <ele>725</ele>
        <time>2019-05-22T22:11:52Z</time>
      </trkpt>
      <trkpt lat="44.11095" lon="3.40221">
        <ele>724</ele>
        <time>2019-05-22T22:12:07Z</time>
      </trkpt>
      <trkpt lat="44.11046" lon="3.40221">
        <ele>721</ele>
        <time>2019-05-22T22:12:16Z</time>
      </trkpt>
      <trkpt lat="44.10997" lon="3.40213">
        <ele>720</ele>
        <time>2019-05-22T22:12:24Z</time>
      </trkpt>
      <trkpt lat="44.10974" lon="3.40205">
        <ele>719</ele>
        <time>2019-05-22T22:12:29Z</time>
      </trkpt>
      <trkpt lat="44.10944" lon="3.40188">
        <ele>718</ele>
        <time>2019-05-22T22:12:34Z</time>
      </trkpt>
      <trkpt lat="44.10914" lon="3.40163">
        <ele>715</ele>
        <time>2019-05-22T22:12:41Z</time>
      </trkpt>
      <trkpt lat="44.10835" lon="3.40084">
        <ele>708</ele>
        <time>2019-05-22T22:12:58Z</time>
      </trkpt>
      <trkpt lat="44.10807" lon="3.40041">
        <ele>711</ele>
        <time>2019-05-22T22:13:05Z</time>
      </trkpt>
      <trkpt lat="44.10789" lon="3.40019">
        <ele>711</ele>
        <time>2019-05-22T22:13:10Z</time>
      </trkpt>
      <trkpt lat="44.10767" lon="3.40002">
        <ele>709</ele>
        <time>2019-05-22T22:13:14Z</time>
      </trkpt>
      <trkpt lat="44.10702" lon="3.39958">
        <ele>709</ele>
        <time>2019-05-22T22:13:27Z</time>
      </trkpt>
      <trkpt lat="44.10625" lon="3.39912">
        <ele>710</ele>
        <time>2019-05-22T22:13:42Z</time>
      </trkpt>
      <trkpt lat="44.10603" lon="3.39905">
        <ele>711</ele>
        <time>2019-05-22T22:13:46Z</time>
      </trkpt>
      <trkpt lat="44.10581" lon="3.39905">
        <ele>710</ele>
        <time>2019-05-22T22:13:50Z</time>
      </trkpt>
      <trkpt lat="44.10539" lon="3.39919">
        <ele>710</ele>
        <time>2019-05-22T22:13:57Z</time>
      </trkpt>
      <trkpt lat="44.10516" lon="3.39922">
        <ele>712</ele>
        <time>2019-05-22T22:14:02Z</time>
      </trkpt>
      <trkpt lat="44.10497" lon="3.39928">
        <ele>713</ele>
        <time>2019-05-22T22:14:05Z</time>
      </trkpt>
      <trkpt lat="44.10476" lon="3.39943">
        <ele>717</ele>
        <time>2019-05-22T22:14:09Z</time>
      </trkpt>
      <trkpt lat="44.10441" lon="3.39995">
        <ele>712</ele>
        <time>2019-05-22T22:14:18Z</time>
      </trkpt>
      <trkpt lat="44.10406" lon="3.40034">
        <ele>713</ele>
        <time>2019-05-22T22:14:26Z</time>
      </trkpt>
      <trkpt lat="44.10381" lon="3.40056">
        <ele>713</ele>
        <time>2019-05-22T22:14:32Z</time>
      </trkpt>
      <trkpt lat="44.10353" lon="3.40072">
        <ele>711</ele>
        <time>2019-05-22T22:14:37Z</time>
      </trkpt>
      <trkpt lat="44.10294" lon="3.40074">
        <ele>710</ele>
        <time>2019-05-22T22:14:47Z</time>
      </trkpt>
      <trkpt lat="44.10244" lon="3.40068">
        <ele>713</ele>
        <time>2019-05-22T22:14:56Z</time>
      </trkpt>
      <trkpt lat="44.10199" lon="3.4007">
        <ele>716</ele>
        <time>2019-05-22T22:15:04Z</time>
      </trkpt>
      <trkpt lat="44.10149" lon="3.40078">
        <ele>712</ele>
        <time>2019-05-22T22:15:13Z</time>
      </trkpt>
      <trkpt lat="44.10092" lon="3.40095">
        <ele>706</ele>
        <time>2019-05-22T22:15:24Z</time>
      </trkpt>
      <trkpt lat="44.10086" lon="3.40094">
        <ele>705</ele>
        <time>2019-05-22T22:15:25Z</time>
      </trkpt>
      <trkpt lat="44.10037" lon="3.40058">
        <ele>709</ele>
        <time>2019-05-22T22:15:35Z</time>
      </trkpt>
      <trkpt lat="44.09954" lon="3.39978">
        <ele>713</ele>
        <time>2019-05-22T22:15:53Z</time>
      </trkpt>
      <trkpt lat="44.09945" lon="3.39973">
        <ele>714</ele>
        <time>2019-05-22T22:15:54Z</time>
      </trkpt>
      <trkpt lat="44.09922" lon="3.39965">
        <ele>714</ele>
        <time>2019-05-22T22:15:59Z</time>
      </trkpt>
      <trkpt lat="44.09902" lon="3.39949">
        <ele>718</ele>
        <time>2019-05-22T22:16:03Z</time>
      </trkpt>
      <trkpt lat="44.09889" lon="3.39943">
        <ele>719</ele>
        <time>2019-05-22T22:16:05Z</time>
      </trkpt>
      <trkpt lat="44.09852" lon="3.39932">
        <ele>719</ele>
        <time>2019-05-22T22:16:12Z</time>
      </trkpt>
      <trkpt lat="44.09802" lon="3.39933">
        <ele>721</ele>
        <time>2019-05-22T22:16:21Z</time>
      </trkpt>
      <trkpt lat="44.09785" lon="3.39938">
        <ele>722</ele>
        <time>2019-05-22T22:16:24Z</time>
      </trkpt>
      <trkpt lat="44.09771" lon="3.39945">
        <ele>721</ele>
        <time>2019-05-22T22:16:26Z</time>
      </trkpt>
      <trkpt lat="44.09754" lon="3.39958">
        <ele>717</ele>
        <time>2019-05-22T22:16:30Z</time>
      </trkpt>
      <trkpt lat="44.09726" lon="3.39989">
        <ele>714</ele>
        <time>2019-05-22T22:16:36Z</time>
      </trkpt>
      <trkpt lat="44.09716" lon="3.40004">
        <ele>714</ele>
        <time>2019-05-22T22:16:39Z</time>
      </trkpt>
      <trkpt lat="44.09673" lon="3.40092">
        <ele>698</ele>
        <time>2019-05-22T22:16:52Z</time>
      </trkpt>
      <trkpt lat="44.09637" lon="3.40156">
        <ele>700</ele>
        <time>2019-05-22T22:17:03Z</time>
      </trkpt>
      <trkpt lat="44.09622" lon="3.40194">
        <ele>704</ele>
        <time>2019-05-22T22:17:08Z</time>
      </trkpt>
      <trkpt lat="44.09602" lon="3.40269">
        <ele>699</ele>
        <time>2019-05-22T22:17:19Z</time>
      </trkpt>
      <trkpt lat="44.09588" lon="3.40308">
        <ele>690</ele>
        <time>2019-05-22T22:17:24Z</time>
      </trkpt>
      <trkpt lat="44.09565" lon="3.40337">
        <ele>686</ele>
        <time>2019-05-22T22:17:30Z</time>
      </trkpt>
      <trkpt lat="44.09536" lon="3.40357">
        <ele>691</ele>
        <time>2019-05-22T22:17:35Z</time>
      </trkpt>
      <trkpt lat="44.09487" lon="3.40363">
        <ele>688</ele>
        <time>2019-05-22T22:17:44Z</time>
      </trkpt>
      <trkpt lat="44.09469" lon="3.40359">
        <ele>683</ele>
        <time>2019-05-22T22:17:47Z</time>
      </trkpt>
      <trkpt lat="44.09455" lon="3.4035">
        <ele>679</ele>
        <time>2019-05-22T22:17:50Z</time>
      </trkpt>
      <trkpt lat="44.09355" lon="3.40264">
        <ele>679</ele>
        <time>2019-05-22T22:18:11Z</time>
      </trkpt>
      <trkpt lat="44.09332" lon="3.40248">
        <ele>675</ele>
        <time>2019-05-22T22:18:16Z</time>
      </trkpt>
      <trkpt lat="44.0925" lon="3.40219">
        <ele>699</ele>
        <time>2019-05-22T22:18:31Z</time>
      </trkpt>
      <trkpt lat="44.09237" lon="3.40218">
        <ele>697</ele>
        <time>2019-05-22T22:18:33Z</time>
      </trkpt>
      <trkpt lat="44.09139" lon="3.40239">
        <ele>653</ele>
        <time>2019-05-22T22:18:51Z</time>
      </trkpt>
      <trkpt lat="44.09096" lon="3.40238">
        <ele>634</ele>
        <time>2019-05-22T22:18:58Z</time>
      </trkpt>
      <trkpt lat="44.09081" lon="3.4023">
        <ele>631</ele>
        <time>2019-05-22T22:19:01Z</time>
      </trkpt>
      <trkpt lat="44.09068" lon="3.40215">
        <ele>635</ele>
        <time>2019-05-22T22:19:04Z</time>
      </trkpt>
      <trkpt lat="44.0906" lon="3.40198">
        <ele>639</ele>
        <time>2019-05-22T22:19:07Z</time>
      </trkpt>
      <trkpt lat="44.09056" lon="3.40172">
        <ele>646</ele>
        <time>2019-05-22T22:19:10Z</time>
      </trkpt>
      <trkpt lat="44.09047" lon="3.40053">
        <ele>668</ele>
        <time>2019-05-22T22:19:25Z</time>
      </trkpt>
      <trkpt lat="44.0901" lon="3.39882">
        <ele>654</ele>
        <time>2019-05-22T22:19:48Z</time>
      </trkpt>
      <trkpt lat="44.08985" lon="3.39822">
        <ele>651</ele>
        <time>2019-05-22T22:19:57Z</time>
      </trkpt>
      <trkpt lat="44.08964" lon="3.39787">
        <ele>646</ele>
        <time>2019-05-22T22:20:03Z</time>
      </trkpt>
      <trkpt lat="44.0895" lon="3.39747">
        <ele>643</ele>
        <time>2019-05-22T22:20:09Z</time>
      </trkpt>
      <trkpt lat="44.08914" lon="3.39673">
        <ele>635</ele>
        <time>2019-05-22T22:20:20Z</time>
      </trkpt>
      <trkpt lat="44.08891" lon="3.39631">
        <ele>637</ele>
        <time>2019-05-22T22:20:27Z</time>
      </trkpt>
      <trkpt lat="44.08873" lon="3.39606">
        <ele>635</ele>
        <time>2019-05-22T22:20:31Z</time>
      </trkpt>
      <trkpt lat="44.08861" lon="3.39582">
        <ele>635</ele>
        <time>2019-05-22T22:20:35Z</time>
      </trkpt>
      <trkpt lat="44.08854" lon="3.39556">
        <ele>639</ele>
        <time>2019-05-22T22:20:39Z</time>
      </trkpt>
      <trkpt lat="44.08816" lon="3.39512">
        <ele>633</ele>
        <time>2019-05-22T22:20:47Z</time>
      </trkpt>
      <trkpt lat="44.08808" lon="3.39488">
        <ele>638</ele>
        <time>2019-05-22T22:20:51Z</time>
      </trkpt>
      <trkpt lat="44.088" lon="3.39476">
        <ele>640</ele>
        <time>2019-05-22T22:20:53Z</time>
      </trkpt>
      <trkpt lat="44.08792" lon="3.3947">
        <ele>639</ele>
        <time>2019-05-22T22:20:55Z</time>
      </trkpt>
      <trkpt lat="44.08768" lon="3.39478">
        <ele>625</ele>
        <time>2019-05-22T22:20:59Z</time>
      </trkpt>
      <trkpt lat="44.08747" lon="3.39473">
        <ele>620</ele>
        <time>2019-05-22T22:21:03Z</time>
      </trkpt>
      <trkpt lat="44.08709" lon="3.39444">
        <ele>627</ele>
        <time>2019-05-22T22:21:10Z</time>
      </trkpt>
      <trkpt lat="44.08695" lon="3.39439">
        <ele>627</ele>
        <time>2019-05-22T22:21:13Z</time>
      </trkpt>
      <trkpt lat="44.08602" lon="3.39431">
        <ele>617</ele>
        <time>2019-05-22T22:21:30Z</time>
      </trkpt>
      <trkpt lat="44.08582" lon="3.39424">
        <ele>617</ele>
        <time>2019-05-22T22:21:33Z</time>
      </trkpt>
      <trkpt lat="44.08535" lon="3.39399">
        <ele>620</ele>
        <time>2019-05-22T22:21:42Z</time>
      </trkpt>
      <trkpt lat="44.08489" lon="3.39382">
        <ele>619</ele>
        <time>2019-05-22T22:21:51Z</time>
      </trkpt>
      <trkpt lat="44.08421" lon="3.39381">
        <ele>610</ele>
        <time>2019-05-22T22:22:03Z</time>
      </trkpt>
      <trkpt lat="44.08383" lon="3.39374">
        <ele>610</ele>
        <time>2019-05-22T22:22:10Z</time>
      </trkpt>
      <trkpt lat="44.08329" lon="3.39379">
        <ele>604</ele>
        <time>2019-05-22T22:22:19Z</time>
      </trkpt>
      <trkpt lat="44.08299" lon="3.39372">
        <ele>602</ele>
        <time>2019-05-22T22:22:25Z</time>
      </trkpt>
      <trkpt lat="44.0825" lon="3.3935">
        <ele>603</ele>
        <time>2019-05-22T22:22:34Z</time>
      </trkpt>
      <trkpt lat="44.08205" lon="3.3934">
        <ele>595</ele>
        <time>2019-05-22T22:22:42Z</time>
      </trkpt>
      <trkpt lat="44.0816" lon="3.3932">
        <ele>591</ele>
        <time>2019-05-22T22:22:50Z</time>
      </trkpt>
      <trkpt lat="44.0813" lon="3.39299">
        <ele>592</ele>
        <time>2019-05-22T22:22:56Z</time>
      </trkpt>
      <trkpt lat="44.0809" lon="3.39262">
        <ele>588</ele>
        <time>2019-05-22T22:23:05Z</time>
      </trkpt>
      <trkpt lat="44.08064" lon="3.39229">
        <ele>590</ele>
        <time>2019-05-22T22:23:11Z</time>
      </trkpt>
      <trkpt lat="44.08013" lon="3.39158">
        <ele>587</ele>
        <time>2019-05-22T22:23:24Z</time>
      </trkpt>
      <trkpt lat="44.07959" lon="3.39107">
        <ele>586</ele>
        <time>2019-05-22T22:23:36Z</time>
      </trkpt>
      <trkpt lat="44.07936" lon="3.39077">
        <ele>582</ele>
        <time>2019-05-22T22:23:41Z</time>
      </trkpt>
      <trkpt lat="44.07914" lon="3.39044">
        <ele>579</ele>
        <time>2019-05-22T22:23:47Z</time>
      </trkpt>
      <trkpt lat="44.07889" lon="3.38987">
        <ele>581</ele>
        <time>2019-05-22T22:23:55Z</time>
      </trkpt>
      <trkpt lat="44.07875" lon="3.3895">
        <ele>581</ele>
        <time>2019-05-22T22:24:01Z</time>
      </trkpt>
      <trkpt lat="44.07866" lon="3.38914">
        <ele>581</ele>
        <time>2019-05-22T22:24:06Z</time>
      </trkpt>
      <trkpt lat="44.0784" lon="3.38863">
        <ele>573</ele>
        <time>2019-05-22T22:24:14Z</time>
      </trkpt>
      <trkpt lat="44.07843" lon="3.38758">
        <ele>572</ele>
        <time>2019-05-22T22:24:27Z</time>
      </trkpt>
      <trkpt lat="44.07841" lon="3.38709">
        <ele>570</ele>
        <time>2019-05-22T22:24:33Z</time>
      </trkpt>
      <trkpt lat="44.07848" lon="3.38665">
        <ele>571</ele>
        <time>2019-05-22T22:24:39Z</time>
      </trkpt>
      <trkpt lat="44.07863" lon="3.38613">
        <ele>574</ele>
        <time>2019-05-22T22:24:46Z</time>
      </trkpt>
      <trkpt lat="44.07865" lon="3.3857">
        <ele>572</ele>
        <time>2019-05-22T22:24:52Z</time>
      </trkpt>
      <trkpt lat="44.07864" lon="3.38516">
        <ele>568</ele>
        <time>2019-05-22T22:24:59Z</time>
      </trkpt>
      <trkpt lat="44.07872" lon="3.38497">
        <ele>569</ele>
        <time>2019-05-22T22:25:02Z</time>
      </trkpt>
      <trkpt lat="44.07885" lon="3.38476">
        <ele>571</ele>
        <time>2019-05-22T22:25:05Z</time>
      </trkpt>
      <trkpt lat="44.07888" lon="3.38458">
        <ele>571</ele>
        <time>2019-05-22T22:25:07Z</time>
      </trkpt>
      <trkpt lat="44.07886" lon="3.38441">
        <ele>571</ele>
        <time>2019-05-22T22:25:10Z</time>
      </trkpt>
      <trkpt lat="44.07879" lon="3.38412">
        <ele>569</ele>
        <time>2019-05-22T22:25:14Z</time>
      </trkpt>
      <trkpt lat="44.07881" lon="3.384">
        <ele>570</ele>
        <time>2019-05-22T22:25:15Z</time>
      </trkpt>
      <trkpt lat="44.07892" lon="3.38366">
        <ele>575</ele>
        <time>2019-05-22T22:25:20Z</time>
      </trkpt>
      <trkpt lat="44.07892" lon="3.38325">
        <ele>579</ele>
        <time>2019-05-22T22:25:25Z</time>
      </trkpt>
      <trkpt lat="44.07895" lon="3.38234">
        <ele>587</ele>
        <time>2019-05-22T22:25:37Z</time>
      </trkpt>
      <trkpt lat="44.07906" lon="3.38156">
        <ele>594</ele>
        <time>2019-05-22T22:25:47Z</time>
      </trkpt>
      <trkpt lat="44.07904" lon="3.38115">
        <ele>593</ele>
        <time>2019-05-22T22:25:52Z</time>
      </trkpt>
      <trkpt lat="44.07898" lon="3.38056">
        <ele>587</ele>
        <time>2019-05-22T22:26:00Z</time>
      </trkpt>
      <trkpt lat="44.07898" lon="3.38039">
        <ele>584</ele>
        <time>2019-05-22T22:26:02Z</time>
      </trkpt>
      <trkpt lat="44.07902" lon="3.38027">
        <ele>582</ele>
        <time>2019-05-22T22:26:04Z</time>
      </trkpt>
      <trkpt lat="44.07913" lon="3.38014">
        <ele>578</ele>
        <time>2019-05-22T22:26:06Z</time>
      </trkpt>
      <trkpt lat="44.07976" lon="3.37952">
        <ele>593</ele>
        <time>2019-05-22T22:26:20Z</time>
      </trkpt>
      <trkpt lat="44.07987" lon="3.37937">
        <ele>595</ele>
        <time>2019-05-22T22:26:23Z</time>
      </trkpt>
      <trkpt lat="44.0799" lon="3.37922">
        <ele>593</ele>
        <time>2019-05-22T22:26:25Z</time>
      </trkpt>
      <trkpt lat="44.07991" lon="3.37894">
        <ele>594</ele>
        <time>2019-05-22T22:26:28Z</time>
      </trkpt>
      <trkpt lat="44.07988" lon="3.37859">
        <ele>596</ele>
        <time>2019-05-22T22:26:33Z</time>
      </trkpt>
      <trkpt lat="44.07946" lon="3.37707">
        <ele>591</ele>
        <time>2019-05-22T22:26:54Z</time>
      </trkpt>
      <trkpt lat="44.0793" lon="3.37683">
        <ele>588</ele>
        <time>2019-05-22T22:26:58Z</time>
      </trkpt>
      <trkpt lat="44.07921" lon="3.37648">
        <ele>595</ele>
        <time>2019-05-22T22:27:03Z</time>
      </trkpt>
      <trkpt lat="44.07903" lon="3.37634">
        <ele>594</ele>
        <time>2019-05-22T22:27:06Z</time>
      </trkpt>
      <trkpt lat="44.07821" lon="3.37608">
        <ele>580</ele>
        <time>2019-05-22T22:27:21Z</time>
      </trkpt>
      <trkpt lat="44.0779" lon="3.37596">
        <ele>573</ele>
        <time>2019-05-22T22:27:27Z</time>
      </trkpt>
      <trkpt lat="44.07779" lon="3.37588">
        <ele>571</ele>
        <time>2019-05-22T22:27:29Z</time>
      </trkpt>
      <trkpt lat="44.0777" lon="3.37573">
        <ele>571</ele>
        <time>2019-05-22T22:27:32Z</time>
      </trkpt>
      <trkpt lat="44.07764" lon="3.37558">
        <ele>571</ele>
        <time>2019-05-22T22:27:34Z</time>
      </trkpt>
      <trkpt lat="44.07761" lon="3.37536">
        <ele>574</ele>
        <time>2019-05-22T22:27:37Z</time>
      </trkpt>
      <trkpt lat="44.07763" lon="3.37487">
        <ele>582</ele>
        <time>2019-05-22T22:27:43Z</time>
      </trkpt>
      <trkpt lat="44.07762" lon="3.37457">
        <ele>582</ele>
        <time>2019-05-22T22:27:47Z</time>
      </trkpt>
      <trkpt lat="44.07759" lon="3.37429">
        <ele>581</ele>
        <time>2019-05-22T22:27:50Z</time>
      </trkpt>
      <trkpt lat="44.07752" lon="3.3739">
        <ele>580</ele>
        <time>2019-05-22T22:27:56Z</time>
      </trkpt>
      <trkpt lat="44.07742" lon="3.37353">
        <ele>583</ele>
        <time>2019-05-22T22:28:01Z</time>
      </trkpt>
      <trkpt lat="44.07688" lon="3.37218">
        <ele>573</ele>
        <time>2019-05-22T22:28:20Z</time>
      </trkpt>
      <trkpt lat="44.07687" lon="3.37193">
        <ele>573</ele>
        <time>2019-05-22T22:28:24Z</time>
      </trkpt>
      <trkpt lat="44.07691" lon="3.37118">
        <ele>577</ele>
        <time>2019-05-22T22:28:33Z</time>
      </trkpt>
      <trkpt lat="44.07689" lon="3.37097">
        <ele>576</ele>
        <time>2019-05-22T22:28:36Z</time>
      </trkpt>
      <trkpt lat="44.07683" lon="3.3708">
        <ele>573</ele>
        <time>2019-05-22T22:28:38Z</time>
      </trkpt>
      <trkpt lat="44.07672" lon="3.37063">
        <ele>569</ele>
        <time>2019-05-22T22:28:41Z</time>
      </trkpt>
      <trkpt lat="44.07658" lon="3.37006">
        <ele>571</ele>
        <time>2019-05-22T22:28:49Z</time>
      </trkpt>
      <trkpt lat="44.07647" lon="3.36982">
        <ele>574</ele>
        <time>2019-05-22T22:28:53Z</time>
      </trkpt>
      <trkpt lat="44.07588" lon="3.36912">
        <ele>558</ele>
        <time>2019-05-22T22:29:06Z</time>
      </trkpt>
      <trkpt lat="44.07577" lon="3.36897">
        <ele>558</ele>
        <time>2019-05-22T22:29:09Z</time>
      </trkpt>
      <trkpt lat="44.07564" lon="3.36872">
        <ele>560</ele>
        <time>2019-05-22T22:29:13Z</time>
      </trkpt>
      <trkpt lat="44.07541" lon="3.36802">
        <ele>561</ele>
        <time>2019-05-22T22:29:23Z</time>
      </trkpt>
      <trkpt lat="44.07541" lon="3.36768">
        <ele>562</ele>
        <time>2019-05-22T22:29:27Z</time>
      </trkpt>
      <trkpt lat="44.07546" lon="3.36658">
        <ele>559</ele>
        <time>2019-05-22T22:29:41Z</time>
      </trkpt>
      <trkpt lat="44.07559" lon="3.3658">
        <ele>561</ele>
        <time>2019-05-22T22:29:52Z</time>
      </trkpt>
      <trkpt lat="44.07559" lon="3.36562">
        <ele>561</ele>
        <time>2019-05-22T22:29:54Z</time>
      </trkpt>
      <trkpt lat="44.07554" lon="3.36532">
        <ele>559</ele>
        <time>2019-05-22T22:29:58Z</time>
      </trkpt>
      <trkpt lat="44.07554" lon="3.36517">
        <ele>559</ele>
        <time>2019-05-22T22:30:00Z</time>
      </trkpt>
      <trkpt lat="44.07548" lon="3.36468">
        <ele>556</ele>
        <time>2019-05-22T22:30:06Z</time>
      </trkpt>
      <trkpt lat="44.07548" lon="3.36454">
        <ele>556</ele>
        <time>2019-05-22T22:30:08Z</time>
      </trkpt>
      <trkpt lat="44.07575" lon="3.36319">
        <ele>549</ele>
        <time>2019-05-22T22:30:26Z</time>
      </trkpt>
      <trkpt lat="44.07585" lon="3.36252">
        <ele>541</ele>
        <time>2019-05-22T22:30:34Z</time>
      </trkpt>
      <trkpt lat="44.07611" lon="3.3618">
        <ele>551</ele>
        <time>2019-05-22T22:30:45Z</time>
      </trkpt>
      <trkpt lat="44.07629" lon="3.36111">
        <ele>557</ele>
        <time>2019-05-22T22:30:54Z</time>
      </trkpt>
      <trkpt lat="44.0764" lon="3.36053">
        <ele>560</ele>
        <time>2019-05-22T22:31:02Z</time>
      </trkpt>
      <trkpt lat="44.07635" lon="3.3592">
        <ele>556</ele>
        <time>2019-05-22T22:31:19Z</time>
      </trkpt>
      <trkpt lat="44.07637" lon="3.35867">
        <ele>554</ele>
        <time>2019-05-22T22:31:26Z</time>
      </trkpt>
      <trkpt lat="44.07637" lon="3.35768">
        <ele>548</ele>
        <time>2019-05-22T22:31:38Z</time>
      </trkpt>
      <trkpt lat="44.07649" lon="3.35722">
        <ele>546</ele>
        <time>2019-05-22T22:31:45Z</time>
      </trkpt>
      <trkpt lat="44.07658" lon="3.35699">
        <ele>543</ele>
        <time>2019-05-22T22:31:48Z</time>
      </trkpt>
      <trkpt lat="44.07692" lon="3.35629">
        <ele>542</ele>
        <time>2019-05-22T22:31:59Z</time>
      </trkpt>
      <trkpt lat="44.07701" lon="3.35604">
        <ele>540</ele>
        <time>2019-05-22T22:32:02Z</time>
      </trkpt>
      <trkpt lat="44.07705" lon="3.35587">
        <ele>537</ele>
        <time>2019-05-22T22:32:05Z</time>
      </trkpt>
      <trkpt lat="44.07699" lon="3.35571">
        <ele>537</ele>
        <time>2019-05-22T22:32:07Z</time>
      </trkpt>
      <trkpt lat="44.07679" lon="3.35536">
        <ele>541</ele>
        <time>2019-05-22T22:32:13Z</time>
      </trkpt>
      <trkpt lat="44.0768" lon="3.35523">
        <ele>543</ele>
        <time>2019-05-22T22:32:14Z</time>
      </trkpt>
      <trkpt lat="44.07687" lon="3.35511">
        <ele>543</ele>
        <time>2019-05-22T22:32:16Z</time>
      </trkpt>
      <trkpt lat="44.07704" lon="3.35493">
        <ele>542</ele>
        <time>2019-05-22T22:32:20Z</time>
      </trkpt>
      <trkpt lat="44.07719" lon="3.35462">
        <ele>541</ele>
        <time>2019-05-22T22:32:25Z</time>
      </trkpt>
      <trkpt lat="44.0772" lon="3.35416">
        <ele>544</ele>
        <time>2019-05-22T22:32:31Z</time>
      </trkpt>
      <trkpt lat="44.07718" lon="3.35336">
        <ele>548</ele>
        <time>2019-05-22T22:32:41Z</time>
      </trkpt>
      <trkpt lat="44.07712" lon="3.35281">
        <ele>546</ele>
        <time>2019-05-22T22:32:48Z</time>
      </trkpt>
      <trkpt lat="44.077" lon="3.3525">
        <ele>547</ele>
        <time>2019-05-22T22:32:53Z</time>
      </trkpt>
      <trkpt lat="44.0768" lon="3.35209">
        <ele>547</ele>
        <time>2019-05-22T22:32:59Z</time>
      </trkpt>
      <trkpt lat="44.07622" lon="3.35126">
        <ele>554</ele>
        <time>2019-05-22T22:33:14Z</time>
      </trkpt>
      <trkpt lat="44.07591" lon="3.35079">
        <ele>557</ele>
        <time>2019-05-22T22:33:22Z</time>
      </trkpt>
      <trkpt lat="44.07572" lon="3.35034">
        <ele>554</ele>
        <time>2019-05-22T22:33:28Z</time>
      </trkpt>
      <trkpt lat="44.07537" lon="3.34896">
        <ele>556</ele>
        <time>2019-05-22T22:33:47Z</time>
      </trkpt>
      <trkpt lat="44.07533" lon="3.34856">
        <ele>558</ele>
        <time>2019-05-22T22:33:52Z</time>
      </trkpt>
      <trkpt lat="44.0754" lon="3.34777">
        <ele>559</ele>
        <time>2019-05-22T22:34:03Z</time>
      </trkpt>
      <trkpt lat="44.07545" lon="3.34755">
        <ele>559</ele>
        <time>2019-05-22T22:34:05Z</time>
      </trkpt>
      <trkpt lat="44.07609" lon="3.34641">
        <ele>556</ele>
        <time>2019-05-22T22:34:24Z</time>
      </trkpt>
      <trkpt lat="44.07633" lon="3.34592">
        <ele>555</ele>
        <time>2019-05-22T22:34:32Z</time>
      </trkpt>
      <trkpt lat="44.07648" lon="3.34522">
        <ele>556</ele>
        <time>2019-05-22T22:34:41Z</time>
      </trkpt>
      <trkpt lat="44.07652" lon="3.34476">
        <ele>557</ele>
        <time>2019-05-22T22:34:47Z</time>
      </trkpt>
      <trkpt lat="44.07647" lon="3.34432">
        <ele>560</ele>
        <time>2019-05-22T22:34:53Z</time>
      </trkpt>
      <trkpt lat="44.07625" lon="3.34301">
        <ele>564</ele>
        <time>2019-05-22T22:35:10Z</time>
      </trkpt>
      <trkpt lat="44.07639" lon="3.34201">
        <ele>559</ele>
        <time>2019-05-22T22:35:23Z</time>
      </trkpt>
      <trkpt lat="44.07646" lon="3.34176">
        <ele>556</ele>
        <time>2019-05-22T22:35:26Z</time>
      </trkpt>
      <trkpt lat="44.0765" lon="3.34135">
        <ele>555</ele>
        <time>2019-05-22T22:35:31Z</time>
      </trkpt>
      <trkpt lat="44.07664" lon="3.34075">
        <ele>550</ele>
        <time>2019-05-22T22:35:40Z</time>
      </trkpt>
      <trkpt lat="44.07667" lon="3.3402">
        <ele>545</ele>
        <time>2019-05-22T22:35:47Z</time>
      </trkpt>
      <trkpt lat="44.07658" lon="3.33993">
        <ele>545</ele>
        <time>2019-05-22T22:35:50Z</time>
      </trkpt>
      <trkpt lat="44.07643" lon="3.33973">
        <ele>545</ele>
        <time>2019-05-22T22:35:54Z</time>
      </trkpt>
      <trkpt lat="44.07625" lon="3.33956">
        <ele>544</ele>
        <time>2019-05-22T22:35:58Z</time>
      </trkpt>
      <trkpt lat="44.07588" lon="3.33939">
        <ele>546</ele>
        <time>2019-05-22T22:36:05Z</time>
      </trkpt>
      <trkpt lat="44.07566" lon="3.33934">
        <ele>553</ele>
        <time>2019-05-22T22:36:09Z</time>
      </trkpt>
      <trkpt lat="44.07547" lon="3.33927">
        <ele>559</ele>
        <time>2019-05-22T22:36:12Z</time>
      </trkpt>
      <trkpt lat="44.07522" lon="3.33889">
        <ele>559</ele>
        <time>2019-05-22T22:36:19Z</time>
      </trkpt>
      <trkpt lat="44.07502" lon="3.33852">
        <ele>558</ele>
        <time>2019-05-22T22:36:25Z</time>
      </trkpt>
      <trkpt lat="44.07493" lon="3.33818">
        <ele>558</ele>
        <time>2019-05-22T22:36:29Z</time>
      </trkpt>
      <trkpt lat="44.07492" lon="3.33743">
        <ele>559</ele>
        <time>2019-05-22T22:36:39Z</time>
      </trkpt>
      <trkpt lat="44.07493" lon="3.33733">
        <ele>559</ele>
        <time>2019-05-22T22:36:40Z</time>
      </trkpt>
      <trkpt lat="44.07493" lon="3.33733">
        <ele>559</ele>
        <time>2019-05-22T22:36:40Z</time>
      </trkpt>
      <trkpt lat="44.07496" lon="3.33711">
        <ele>558</ele>
        <time>2019-05-22T22:36:43Z</time>
      </trkpt>
      <trkpt lat="44.07518" lon="3.3364">
        <ele>550</ele>
        <time>2019-05-22T22:36:53Z</time>
      </trkpt>
      <trkpt lat="44.07537" lon="3.33591">
        <ele>542</ele>
        <time>2019-05-22T22:37:00Z</time>
      </trkpt>
      <trkpt lat="44.07543" lon="3.33555">
        <ele>537</ele>
        <time>2019-05-22T22:37:05Z</time>
      </trkpt>
      <trkpt lat="44.07543" lon="3.33522">
        <ele>533</ele>
        <time>2019-05-22T22:37:09Z</time>
      </trkpt>
      <trkpt lat="44.07532" lon="3.33501">
        <ele>534</ele>
        <time>2019-05-22T22:37:12Z</time>
      </trkpt>
      <trkpt lat="44.07522" lon="3.33492">
        <ele>534</ele>
        <time>2019-05-22T22:37:15Z</time>
      </trkpt>
      <trkpt lat="44.07506" lon="3.33489">
        <ele>538</ele>
        <time>2019-05-22T22:37:17Z</time>
      </trkpt>
      <trkpt lat="44.07445" lon="3.33506">
        <ele>546</ele>
        <time>2019-05-22T22:37:29Z</time>
      </trkpt>
      <trkpt lat="44.07392" lon="3.33497">
        <ele>553</ele>
        <time>2019-05-22T22:37:38Z</time>
      </trkpt>
      <trkpt lat="44.07377" lon="3.33485">
        <ele>554</ele>
        <time>2019-05-22T22:37:41Z</time>
      </trkpt>
      <trkpt lat="44.07363" lon="3.3346">
        <ele>550</ele>
        <time>2019-05-22T22:37:45Z</time>
      </trkpt>
      <trkpt lat="44.07328" lon="3.33385">
        <ele>541</ele>
        <time>2019-05-22T22:37:57Z</time>
      </trkpt>
      <trkpt lat="44.07317" lon="3.33365">
        <ele>540</ele>
        <time>2019-05-22T22:38:00Z</time>
      </trkpt>
      <trkpt lat="44.07304" lon="3.33349">
        <ele>540</ele>
        <time>2019-05-22T22:38:03Z</time>
      </trkpt>
      <trkpt lat="44.07296" lon="3.33343">
        <ele>541</ele>
        <time>2019-05-22T22:38:05Z</time>
      </trkpt>
      <trkpt lat="44.07286" lon="3.33339">
        <ele>544</ele>
        <time>2019-05-22T22:38:06Z</time>
      </trkpt>
      <trkpt lat="44.07264" lon="3.33337">
        <ele>550</ele>
        <time>2019-05-22T22:38:10Z</time>
      </trkpt>
      <trkpt lat="44.07261" lon="3.33332">
        <ele>550</ele>
        <time>2019-05-22T22:38:11Z</time>
      </trkpt>
      <trkpt lat="44.07255" lon="3.33297">
        <ele>554</ele>
        <time>2019-05-22T22:38:16Z</time>
      </trkpt>
      <trkpt lat="44.07259" lon="3.33286">
        <ele>553</ele>
        <time>2019-05-22T22:38:17Z</time>
      </trkpt>
      <trkpt lat="44.07277" lon="3.33267">
        <ele>548</ele>
        <time>2019-05-22T22:38:21Z</time>
      </trkpt>
      <trkpt lat="44.07292" lon="3.33225">
        <ele>551</ele>
        <time>2019-05-22T22:38:27Z</time>
      </trkpt>
      <trkpt lat="44.073" lon="3.33213">
        <ele>551</ele>
        <time>2019-05-22T22:38:29Z</time>
      </trkpt>
      <trkpt lat="44.07309" lon="3.33211">
        <ele>548</ele>
        <time>2019-05-22T22:38:31Z</time>
      </trkpt>
      <trkpt lat="44.07322" lon="3.33214">
        <ele>543</ele>
        <time>2019-05-22T22:38:33Z</time>
      </trkpt>
      <trkpt lat="44.07331" lon="3.33219">
        <ele>539</ele>
        <time>2019-05-22T22:38:35Z</time>
      </trkpt>
      <trkpt lat="44.07343" lon="3.3322">
        <ele>535</ele>
        <time>2019-05-22T22:38:37Z</time>
      </trkpt>
      <trkpt lat="44.0735" lon="3.33213">
        <ele>535</ele>
        <time>2019-05-22T22:38:39Z</time>
      </trkpt>
      <trkpt lat="44.07365" lon="3.3317">
        <ele>539</ele>
        <time>2019-05-22T22:38:45Z</time>
      </trkpt>
      <trkpt lat="44.07382" lon="3.33129">
        <ele>538</ele>
        <time>2019-05-22T22:38:51Z</time>
      </trkpt>
      <trkpt lat="44.07391" lon="3.33099">
        <ele>539</ele>
        <time>2019-05-22T22:38:55Z</time>
      </trkpt>
      <trkpt lat="44.07392" lon="3.33086">
        <ele>540</ele>
        <time>2019-05-22T22:38:57Z</time>
      </trkpt>
      <trkpt lat="44.07389" lon="3.33074">
        <ele>540</ele>
        <time>2019-05-22T22:38:58Z</time>
      </trkpt>
      <trkpt lat="44.07382" lon="3.3306">
        <ele>540</ele>
        <time>2019-05-22T22:39:01Z</time>
      </trkpt>
      <trkpt lat="44.0736" lon="3.33033">
        <ele>544</ele>
        <time>2019-05-22T22:39:06Z</time>
      </trkpt>
      <trkpt lat="44.07349" lon="3.33016">
        <ele>545</ele>
        <time>2019-05-22T22:39:09Z</time>
      </trkpt>
      <trkpt lat="44.0733" lon="3.33">
        <ele>549</ele>
        <time>2019-05-22T22:39:13Z</time>
      </trkpt>
      <trkpt lat="44.07321" lon="3.32977">
        <ele>548</ele>
        <time>2019-05-22T22:39:16Z</time>
      </trkpt>
      <trkpt lat="44.07312" lon="3.32958">
        <ele>547</ele>
        <time>2019-05-22T22:39:19Z</time>
      </trkpt>
      <trkpt lat="44.07273" lon="3.32907">
        <ele>555</ele>
        <time>2019-05-22T22:39:28Z</time>
      </trkpt>
      <trkpt lat="44.07258" lon="3.32878">
        <ele>558</ele>
        <time>2019-05-22T22:39:33Z</time>
      </trkpt>
      <trkpt lat="44.0725" lon="3.32856">
        <ele>559</ele>
        <time>2019-05-22T22:39:36Z</time>
      </trkpt>
      <trkpt lat="44.07247" lon="3.32823">
        <ele>557</ele>
        <time>2019-05-22T22:39:40Z</time>
      </trkpt>
      <trkpt lat="44.07242" lon="3.32802">
        <ele>557</ele>
        <time>2019-05-22T22:39:43Z</time>
      </trkpt>
      <trkpt lat="44.07224" lon="3.32771">
        <ele>565</ele>
        <time>2019-05-22T22:39:48Z</time>
      </trkpt>
      <trkpt lat="44.07221" lon="3.32758">
        <ele>565</ele>
        <time>2019-05-22T22:39:50Z</time>
      </trkpt>
      <trkpt lat="44.07223" lon="3.32749">
        <ele>564</ele>
        <time>2019-05-22T22:39:51Z</time>
      </trkpt>
      <trkpt lat="44.07241" lon="3.32707">
        <ele>553</ele>
        <time>2019-05-22T22:39:58Z</time>
      </trkpt>
      <trkpt lat="44.07243" lon="3.32688">
        <ele>551</ele>
        <time>2019-05-22T22:40:00Z</time>
      </trkpt>
      <trkpt lat="44.0724" lon="3.32665">
        <ele>553</ele>
        <time>2019-05-22T22:40:03Z</time>
      </trkpt>
      <trkpt lat="44.0723" lon="3.32632">
        <ele>553</ele>
        <time>2019-05-22T22:40:08Z</time>
      </trkpt>
      <trkpt lat="44.07195" lon="3.3256">
        <ele>559</ele>
        <time>2019-05-22T22:40:19Z</time>
      </trkpt>
      <trkpt lat="44.0719" lon="3.32544">
        <ele>560</ele>
        <time>2019-05-22T22:40:21Z</time>
      </trkpt>
      <trkpt lat="44.07179" lon="3.32387">
        <ele>560</ele>
        <time>2019-05-22T22:40:41Z</time>
      </trkpt>
      <trkpt lat="44.0718" lon="3.32369">
        <ele>561</ele>
        <time>2019-05-22T22:40:43Z</time>
      </trkpt>
      <trkpt lat="44.07202" lon="3.32253">
        <ele>553</ele>
        <time>2019-05-22T22:40:59Z</time>
      </trkpt>
      <trkpt lat="44.07202" lon="3.32237">
        <ele>552</ele>
        <time>2019-05-22T22:41:01Z</time>
      </trkpt>
      <trkpt lat="44.072" lon="3.32222">
        <ele>552</ele>
        <time>2019-05-22T22:41:03Z</time>
      </trkpt>
      <trkpt lat="44.07193" lon="3.32206">
        <ele>554</ele>
        <time>2019-05-22T22:41:05Z</time>
      </trkpt>
      <trkpt lat="44.07148" lon="3.32126">
        <ele>555</ele>
        <time>2019-05-22T22:41:18Z</time>
      </trkpt>
      <trkpt lat="44.07133" lon="3.32107">
        <ele>554</ele>
        <time>2019-05-22T22:41:22Z</time>
      </trkpt>
      <trkpt lat="44.07121" lon="3.32099">
        <ele>555</ele>
        <time>2019-05-22T22:41:24Z</time>
      </trkpt>
      <trkpt lat="44.07076" lon="3.32093">
        <ele>562</ele>
        <time>2019-05-22T22:41:32Z</time>
      </trkpt>
      <trkpt lat="44.0701" lon="3.32032">
        <ele>558</ele>
        <time>2019-05-22T22:41:46Z</time>
      </trkpt>
      <trkpt lat="44.06931" lon="3.31973">
        <ele>563</ele>
        <time>2019-05-22T22:42:02Z</time>
      </trkpt>
      <trkpt lat="44.06917" lon="3.31958">
        <ele>562</ele>
        <time>2019-05-22T22:42:05Z</time>
      </trkpt>
      <trkpt lat="44.06906" lon="3.31941">
        <ele>561</ele>
        <time>2019-05-22T22:42:08Z</time>
      </trkpt>
      <trkpt lat="44.06851" lon="3.31806">
        <ele>559</ele>
        <time>2019-05-22T22:42:28Z</time>
      </trkpt>
      <trkpt lat="44.0684" lon="3.31782">
        <ele>559</ele>
        <time>2019-05-22T22:42:32Z</time>
      </trkpt>
      <trkpt lat="44.06793" lon="3.3172">
        <ele>558</ele>
        <time>2019-05-22T22:42:43Z</time>
      </trkpt>
      <trkpt lat="44.0677" lon="3.31694">
        <ele>559</ele>
        <time>2019-05-22T22:42:49Z</time>
      </trkpt>
      <trkpt lat="44.06749" lon="3.31676">
        <ele>561</ele>
        <time>2019-05-22T22:42:53Z</time>
      </trkpt>
      <trkpt lat="44.06709" lon="3.31655">
        <ele>561</ele>
        <time>2019-05-22T22:43:01Z</time>
      </trkpt>
      <trkpt lat="44.06695" lon="3.31645">
        <ele>560</ele>
        <time>2019-05-22T22:43:03Z</time>
      </trkpt>
      <trkpt lat="44.06673" lon="3.31617">
        <ele>556</ele>
        <time>2019-05-22T22:43:09Z</time>
      </trkpt>
      <trkpt lat="44.0666" lon="3.31611">
        <ele>554</ele>
        <time>2019-05-22T22:43:11Z</time>
      </trkpt>
      <trkpt lat="44.06651" lon="3.31613">
        <ele>552</ele>
        <time>2019-05-22T22:43:13Z</time>
      </trkpt>
      <trkpt lat="44.06645" lon="3.31617">
        <ele>552</ele>
        <time>2019-05-22T22:43:14Z</time>
      </trkpt>
      <trkpt lat="44.066" lon="3.31684">
        <ele>561</ele>
        <time>2019-05-22T22:43:26Z</time>
      </trkpt>
      <trkpt lat="44.06591" lon="3.31695">
        <ele>562</ele>
        <time>2019-05-22T22:43:28Z</time>
      </trkpt>
      <trkpt lat="44.06555" lon="3.31728">
        <ele>562</ele>
        <time>2019-05-22T22:43:35Z</time>
      </trkpt>
      <trkpt lat="44.06551" lon="3.31739">
        <ele>563</ele>
        <time>2019-05-22T22:43:37Z</time>
      </trkpt>
      <trkpt lat="44.06551" lon="3.31748">
        <ele>565</ele>
        <time>2019-05-22T22:43:38Z</time>
      </trkpt>
      <trkpt lat="44.06563" lon="3.31804">
        <ele>570</ele>
        <time>2019-05-22T22:43:46Z</time>
      </trkpt>
      <trkpt lat="44.06569" lon="3.31826">
        <ele>572</ele>
        <time>2019-05-22T22:43:49Z</time>
      </trkpt>
      <trkpt lat="44.06572" lon="3.31852">
        <ele>574</ele>
        <time>2019-05-22T22:43:52Z</time>
      </trkpt>
      <trkpt lat="44.06571" lon="3.3187">
        <ele>575</ele>
        <time>2019-05-22T22:43:54Z</time>
      </trkpt>
      <trkpt lat="44.06566" lon="3.31889">
        <ele>577</ele>
        <time>2019-05-22T22:43:57Z</time>
      </trkpt>
      <trkpt lat="44.06558" lon="3.31905">
        <ele>577</ele>
        <time>2019-05-22T22:43:59Z</time>
      </trkpt>
      <trkpt lat="44.06541" lon="3.31918">
        <ele>578</ele>
        <time>2019-05-22T22:44:03Z</time>
      </trkpt>
      <trkpt lat="44.06516" lon="3.31928">
        <ele>579</ele>
        <time>2019-05-22T22:44:07Z</time>
      </trkpt>
      <trkpt lat="44.06502" lon="3.31926">
        <ele>578</ele>
        <time>2019-05-22T22:44:10Z</time>
      </trkpt>
      <trkpt lat="44.06488" lon="3.3192">
        <ele>578</ele>
        <time>2019-05-22T22:44:13Z</time>
      </trkpt>
      <trkpt lat="44.06476" lon="3.31906">
        <ele>577</ele>
        <time>2019-05-22T22:44:15Z</time>
      </trkpt>
      <trkpt lat="44.06462" lon="3.31882">
        <ele>576</ele>
        <time>2019-05-22T22:44:19Z</time>
      </trkpt>
      <trkpt lat="44.0645" lon="3.31853">
        <ele>573</ele>
        <time>2019-05-22T22:44:24Z</time>
      </trkpt>
      <trkpt lat="44.06446" lon="3.31836">
        <ele>571</ele>
        <time>2019-05-22T22:44:26Z</time>
      </trkpt>
      <trkpt lat="44.06445" lon="3.31785">
        <ele>564</ele>
        <time>2019-05-22T22:44:32Z</time>
      </trkpt>
      <trkpt lat="44.0644" lon="3.3177">
        <ele>563</ele>
        <time>2019-05-22T22:44:34Z</time>
      </trkpt>
      <trkpt lat="44.06427" lon="3.31749">
        <ele>562</ele>
        <time>2019-05-22T22:44:38Z</time>
      </trkpt>
      <trkpt lat="44.0635" lon="3.31657">
        <ele>566</ele>
        <time>2019-05-22T22:44:56Z</time>
      </trkpt>
      <trkpt lat="44.06345" lon="3.31648">
        <ele>566</ele>
        <time>2019-05-22T22:44:58Z</time>
      </trkpt>
      <trkpt lat="44.06332" lon="3.31598">
        <ele>562</ele>
        <time>2019-05-22T22:45:04Z</time>
      </trkpt>
      <trkpt lat="44.06326" lon="3.31584">
        <ele>562</ele>
        <time>2019-05-22T22:45:06Z</time>
      </trkpt>
      <trkpt lat="44.06319" lon="3.31575">
        <ele>561</ele>
        <time>2019-05-22T22:45:08Z</time>
      </trkpt>
      <trkpt lat="44.06251" lon="3.31523">
        <ele>563</ele>
        <time>2019-05-22T22:45:22Z</time>
      </trkpt>
      <trkpt lat="44.06239" lon="3.3151">
        <ele>562</ele>
        <time>2019-05-22T22:45:25Z</time>
      </trkpt>
      <trkpt lat="44.06233" lon="3.315">
        <ele>561</ele>
        <time>2019-05-22T22:45:26Z</time>
      </trkpt>
      <trkpt lat="44.06211" lon="3.31426">
        <ele>550</ele>
        <time>2019-05-22T22:45:37Z</time>
      </trkpt>
      <trkpt lat="44.06205" lon="3.31416">
        <ele>548</ele>
        <time>2019-05-22T22:45:38Z</time>
      </trkpt>
      <trkpt lat="44.06198" lon="3.3141">
        <ele>548</ele>
        <time>2019-05-22T22:45:40Z</time>
      </trkpt>
      <trkpt lat="44.06141" lon="3.31399">
        <ele>553</ele>
        <time>2019-05-22T22:45:50Z</time>
      </trkpt>
      <trkpt lat="44.06132" lon="3.31394">
        <ele>553</ele>
        <time>2019-05-22T22:45:52Z</time>
      </trkpt>
      <trkpt lat="44.06061" lon="3.31335">
        <ele>551</ele>
        <time>2019-05-22T22:46:06Z</time>
      </trkpt>
      <trkpt lat="44.06048" lon="3.31327">
        <ele>550</ele>
        <time>2019-05-22T22:46:09Z</time>
      </trkpt>
      <trkpt lat="44.06008" lon="3.31311">
        <ele>547</ele>
        <time>2019-05-22T22:46:16Z</time>
      </trkpt>
      <trkpt lat="44.0598" lon="3.31284">
        <ele>543</ele>
        <time>2019-05-22T22:46:22Z</time>
      </trkpt>
      <trkpt lat="44.05917" lon="3.31235">
        <ele>553</ele>
        <time>2019-05-22T22:46:35Z</time>
      </trkpt>
      <trkpt lat="44.05911" lon="3.31226">
        <ele>553</ele>
        <time>2019-05-22T22:46:37Z</time>
      </trkpt>
      <trkpt lat="44.05902" lon="3.31188">
        <ele>544</ele>
        <time>2019-05-22T22:46:42Z</time>
      </trkpt>
      <trkpt lat="44.05889" lon="3.3117">
        <ele>545</ele>
        <time>2019-05-22T22:46:45Z</time>
      </trkpt>
      <trkpt lat="44.05885" lon="3.31157">
        <ele>544</ele>
        <time>2019-05-22T22:46:47Z</time>
      </trkpt>
      <trkpt lat="44.05885" lon="3.31147">
        <ele>541</ele>
        <time>2019-05-22T22:46:48Z</time>
      </trkpt>
      <trkpt lat="44.0589" lon="3.31136">
        <ele>536</ele>
        <time>2019-05-22T22:46:50Z</time>
      </trkpt>
      <trkpt lat="44.05893" lon="3.31119">
        <ele>530</ele>
        <time>2019-05-22T22:46:52Z</time>
      </trkpt>
      <trkpt lat="44.05892" lon="3.31104">
        <ele>527</ele>
        <time>2019-05-22T22:46:54Z</time>
      </trkpt>
      <trkpt lat="44.05884" lon="3.31081">
        <ele>525</ele>
        <time>2019-05-22T22:46:57Z</time>
      </trkpt>
      <trkpt lat="44.05841" lon="3.3104">
        <ele>532</ele>
        <time>2019-05-22T22:47:07Z</time>
      </trkpt>
      <trkpt lat="44.05833" lon="3.31037">
        <ele>534</ele>
        <time>2019-05-22T22:47:08Z</time>
      </trkpt>
      <trkpt lat="44.05797" lon="3.31036">
        <ele>543</ele>
        <time>2019-05-22T22:47:14Z</time>
      </trkpt>
      <trkpt lat="44.0579" lon="3.31032">
        <ele>544</ele>
        <time>2019-05-22T22:47:16Z</time>
      </trkpt>
      <trkpt lat="44.05783" lon="3.31022">
        <ele>543</ele>
        <time>2019-05-22T22:47:18Z</time>
      </trkpt>
      <trkpt lat="44.05773" lon="3.30989">
        <ele>537</ele>
        <time>2019-05-22T22:47:22Z</time>
      </trkpt>
      <trkpt lat="44.05749" lon="3.30954">
        <ele>537</ele>
        <time>2019-05-22T22:47:28Z</time>
      </trkpt>
      <trkpt lat="44.05742" lon="3.30942">
        <ele>539</ele>
        <time>2019-05-22T22:47:30Z</time>
      </trkpt>
      <trkpt lat="44.05719" lon="3.3083">
        <ele>537</ele>
        <time>2019-05-22T22:47:45Z</time>
      </trkpt>
      <trkpt lat="44.05716" lon="3.30789">
        <ele>533</ele>
        <time>2019-05-22T22:47:50Z</time>
      </trkpt>
      <trkpt lat="44.05719" lon="3.30762">
        <ele>529</ele>
        <time>2019-05-22T22:47:54Z</time>
      </trkpt>
      <trkpt lat="44.05735" lon="3.30711">
        <ele>524</ele>
        <time>2019-05-22T22:48:01Z</time>
      </trkpt>
      <trkpt lat="44.05745" lon="3.30664">
        <ele>525</ele>
        <time>2019-05-22T22:48:07Z</time>
      </trkpt>
      <trkpt lat="44.05747" lon="3.30644">
        <ele>526</ele>
        <time>2019-05-22T22:48:10Z</time>
      </trkpt>
      <trkpt lat="44.05744" lon="3.30631">
        <ele>525</ele>
        <time>2019-05-22T22:48:12Z</time>
      </trkpt>
      <trkpt lat="44.05739" lon="3.30621">
        <ele>524</ele>
        <time>2019-05-22T22:48:13Z</time>
      </trkpt>
      <trkpt lat="44.05732" lon="3.30617">
        <ele>522</ele>
        <time>2019-05-22T22:48:15Z</time>
      </trkpt>
      <trkpt lat="44.05727" lon="3.30617">
        <ele>520</ele>
        <time>2019-05-22T22:48:15Z</time>
      </trkpt>
      <trkpt lat="44.05719" lon="3.30619">
        <ele>519</ele>
        <time>2019-05-22T22:48:17Z</time>
      </trkpt>
      <trkpt lat="44.05705" lon="3.30629">
        <ele>516</ele>
        <time>2019-05-22T22:48:20Z</time>
      </trkpt>
      <trkpt lat="44.05689" lon="3.30647">
        <ele>516</ele>
        <time>2019-05-22T22:48:23Z</time>
      </trkpt>
      <trkpt lat="44.0566" lon="3.30689">
        <ele>522</ele>
        <time>2019-05-22T22:48:31Z</time>
      </trkpt>
      <trkpt lat="44.05609" lon="3.30741">
        <ele>519</ele>
        <time>2019-05-22T22:48:42Z</time>
      </trkpt>
      <trkpt lat="44.05568" lon="3.30788">
        <ele>523</ele>
        <time>2019-05-22T22:48:52Z</time>
      </trkpt>
      <trkpt lat="44.05551" lon="3.308">
        <ele>524</ele>
        <time>2019-05-22T22:48:55Z</time>
      </trkpt>
      <trkpt lat="44.05517" lon="3.30814">
        <ele>519</ele>
        <time>2019-05-22T22:49:01Z</time>
      </trkpt>
      <trkpt lat="44.05471" lon="3.3086">
        <ele>529</ele>
        <time>2019-05-22T22:49:11Z</time>
      </trkpt>
      <trkpt lat="44.05463" lon="3.30864">
        <ele>530</ele>
        <time>2019-05-22T22:49:13Z</time>
      </trkpt>
      <trkpt lat="44.05445" lon="3.30851">
        <ele>531</ele>
        <time>2019-05-22T22:49:16Z</time>
      </trkpt>
      <trkpt lat="44.05439" lon="3.30844">
        <ele>531</ele>
        <time>2019-05-22T22:49:18Z</time>
      </trkpt>
      <trkpt lat="44.05439" lon="3.30829">
        <ele>531</ele>
        <time>2019-05-22T22:49:20Z</time>
      </trkpt>
      <trkpt lat="44.05443" lon="3.30821">
        <ele>531</ele>
        <time>2019-05-22T22:49:21Z</time>
      </trkpt>
      <trkpt lat="44.0546" lon="3.30804">
        <ele>527</ele>
        <time>2019-05-22T22:49:25Z</time>
      </trkpt>
      <trkpt lat="44.05468" lon="3.30792">
        <ele>525</ele>
        <time>2019-05-22T22:49:27Z</time>
      </trkpt>
      <trkpt lat="44.05484" lon="3.30763">
        <ele>517</ele>
        <time>2019-05-22T22:49:31Z</time>
      </trkpt>
      <trkpt lat="44.05501" lon="3.30738">
        <ele>510</ele>
        <time>2019-05-22T22:49:36Z</time>
      </trkpt>
      <trkpt lat="44.05529" lon="3.30702">
        <ele>512</ele>
        <time>2019-05-22T22:49:43Z</time>
      </trkpt>
      <trkpt lat="44.05545" lon="3.3067">
        <ele>508</ele>
        <time>2019-05-22T22:49:48Z</time>
      </trkpt>
      <trkpt lat="44.05561" lon="3.30631">
        <ele>503</ele>
        <time>2019-05-22T22:49:53Z</time>
      </trkpt>
      <trkpt lat="44.0559" lon="3.30575">
        <ele>495</ele>
        <time>2019-05-22T22:50:02Z</time>
      </trkpt>
      <trkpt lat="44.05612" lon="3.30511">
        <ele>490</ele>
        <time>2019-05-22T22:50:11Z</time>
      </trkpt>
      <trkpt lat="44.0562" lon="3.30474">
        <ele>483</ele>
        <time>2019-05-22T22:50:16Z</time>
      </trkpt>
      <trkpt lat="44.05621" lon="3.30457">
        <ele>479</ele>
        <time>2019-05-22T22:50:18Z</time>
      </trkpt>
      <trkpt lat="44.05616" lon="3.30447">
        <ele>477</ele>
        <time>2019-05-22T22:50:20Z</time>
      </trkpt>
      <trkpt lat="44.05609" lon="3.30445">
        <ele>475</ele>
        <time>2019-05-22T22:50:21Z</time>
      </trkpt>
      <trkpt lat="44.05587" lon="3.30458">
        <ele>477</ele>
        <time>2019-05-22T22:50:26Z</time>
      </trkpt>
      <trkpt lat="44.05566" lon="3.30468">
        <ele>479</ele>
        <time>2019-05-22T22:50:29Z</time>
      </trkpt>
      <trkpt lat="44.05515" lon="3.30484">
        <ele>481</ele>
        <time>2019-05-22T22:50:39Z</time>
      </trkpt>
      <trkpt lat="44.05496" lon="3.30486">
        <ele>481</ele>
        <time>2019-05-22T22:50:42Z</time>
      </trkpt>
      <trkpt lat="44.05432" lon="3.30482">
        <ele>475</ele>
        <time>2019-05-22T22:50:54Z</time>
      </trkpt>
      <trkpt lat="44.05374" lon="3.30483">
        <ele>476</ele>
        <time>2019-05-22T22:51:04Z</time>
      </trkpt>
      <trkpt lat="44.05361" lon="3.30476">
        <ele>475</ele>
        <time>2019-05-22T22:51:06Z</time>
      </trkpt>
      <trkpt lat="44.05357" lon="3.30468">
        <ele>473</ele>
        <time>2019-05-22T22:51:08Z</time>
      </trkpt>
      <trkpt lat="44.05357" lon="3.30456">
        <ele>469</ele>
        <time>2019-05-22T22:51:09Z</time>
      </trkpt>
      <trkpt lat="44.05383" lon="3.30354">
        <ele>457</ele>
        <time>2019-05-22T22:51:23Z</time>
      </trkpt>
      <trkpt lat="44.05393" lon="3.30339">
        <ele>458</ele>
        <time>2019-05-22T22:51:26Z</time>
      </trkpt>
      <trkpt lat="44.05448" lon="3.30303">
        <ele>462</ele>
        <time>2019-05-22T22:51:36Z</time>
      </trkpt>
      <trkpt lat="44.05468" lon="3.30282">
        <ele>464</ele>
        <time>2019-05-22T22:51:41Z</time>
      </trkpt>
      <trkpt lat="44.05474" lon="3.30272">
        <ele>465</ele>
        <time>2019-05-22T22:51:43Z</time>
      </trkpt>
      <trkpt lat="44.05483" lon="3.30238">
        <ele>470</ele>
        <time>2019-05-22T22:51:47Z</time>
      </trkpt>
      <trkpt lat="44.055" lon="3.30232">
        <ele>472</ele>
        <time>2019-05-22T22:51:50Z</time>
      </trkpt>
      <trkpt lat="44.05521" lon="3.30214">
        <ele>473</ele>
        <time>2019-05-22T22:51:55Z</time>
      </trkpt>
      <trkpt lat="44.05549" lon="3.30183">
        <ele>476</ele>
        <time>2019-05-22T22:52:01Z</time>
      </trkpt>
      <trkpt lat="44.05596" lon="3.30105">
        <ele>482</ele>
        <time>2019-05-22T22:52:14Z</time>
      </trkpt>
      <trkpt lat="44.05622" lon="3.30071">
        <ele>481</ele>
        <time>2019-05-22T22:52:20Z</time>
      </trkpt>
      <trkpt lat="44.05667" lon="3.30024">
        <ele>479</ele>
        <time>2019-05-22T22:52:30Z</time>
      </trkpt>
      <trkpt lat="44.0569" lon="3.30005">
        <ele>480</ele>
        <time>2019-05-22T22:52:35Z</time>
      </trkpt>
      <trkpt lat="44.05772" lon="3.29974">
        <ele>478</ele>
        <time>2019-05-22T22:52:50Z</time>
      </trkpt>
      <trkpt lat="44.05801" lon="3.29968">
        <ele>478</ele>
        <time>2019-05-22T22:52:55Z</time>
      </trkpt>
      <trkpt lat="44.05831" lon="3.2997">
        <ele>475</ele>
        <time>2019-05-22T22:53:01Z</time>
      </trkpt>
      <trkpt lat="44.05855" lon="3.29973">
        <ele>476</ele>
        <time>2019-05-22T22:53:05Z</time>
      </trkpt>
      <trkpt lat="44.05916" lon="3.29996">
        <ele>470</ele>
        <time>2019-05-22T22:53:16Z</time>
      </trkpt>
      <trkpt lat="44.06011" lon="3.30044">
        <ele>473</ele>
        <time>2019-05-22T22:53:34Z</time>
      </trkpt>
      <trkpt lat="44.06042" lon="3.3005">
        <ele>474</ele>
        <time>2019-05-22T22:53:40Z</time>
      </trkpt>
      <trkpt lat="44.06181" lon="3.30033">
        <ele>478</ele>
        <time>2019-05-22T22:54:05Z</time>
      </trkpt>
      <trkpt lat="44.06238" lon="3.30022">
        <ele>479</ele>
        <time>2019-05-22T22:54:15Z</time>
      </trkpt>
      <trkpt lat="44.06326" lon="3.30013">
        <ele>470</ele>
        <time>2019-05-22T22:54:31Z</time>
      </trkpt>
      <trkpt lat="44.06363" lon="3.29996">
        <ele>469</ele>
        <time>2019-05-22T22:54:38Z</time>
      </trkpt>
      <trkpt lat="44.0649" lon="3.29922">
        <ele>462</ele>
        <time>2019-05-22T22:55:02Z</time>
      </trkpt>
      <trkpt lat="44.06541" lon="3.29842">
        <ele>463</ele>
        <time>2019-05-22T22:55:16Z</time>
      </trkpt>
      <trkpt lat="44.06583" lon="3.29781">
        <ele>464</ele>
        <time>2019-05-22T22:55:27Z</time>
      </trkpt>
      <trkpt lat="44.06602" lon="3.29731">
        <ele>470</ele>
        <time>2019-05-22T22:55:34Z</time>
      </trkpt>
      <trkpt lat="44.06621" lon="3.29647">
        <ele>477</ele>
        <time>2019-05-22T22:55:45Z</time>
      </trkpt>
      <trkpt lat="44.06637" lon="3.29561">
        <ele>482</ele>
        <time>2019-05-22T22:55:56Z</time>
      </trkpt>
      <trkpt lat="44.06662" lon="3.29464">
        <ele>483</ele>
        <time>2019-05-22T22:56:10Z</time>
      </trkpt>
      <trkpt lat="44.0669" lon="3.29366">
        <ele>491</ele>
        <time>2019-05-22T22:56:23Z</time>
      </trkpt>
      <trkpt lat="44.06714" lon="3.29316">
        <ele>492</ele>
        <time>2019-05-22T22:56:31Z</time>
      </trkpt>
      <trkpt lat="44.06752" lon="3.29261">
        <ele>498</ele>
        <time>2019-05-22T22:56:41Z</time>
      </trkpt>
      <trkpt lat="44.06765" lon="3.29252">
        <ele>499</ele>
        <time>2019-05-22T22:56:43Z</time>
      </trkpt>
      <trkpt lat="44.06816" lon="3.29265">
        <ele>484</ele>
        <time>2019-05-22T22:56:52Z</time>
      </trkpt>
      <trkpt lat="44.06842" lon="3.29245">
        <ele>488</ele>
        <time>2019-05-22T22:56:58Z</time>
      </trkpt>
      <trkpt lat="44.06864" lon="3.29235">
        <ele>492</ele>
        <time>2019-05-22T22:57:02Z</time>
      </trkpt>
      <trkpt lat="44.06888" lon="3.29234">
        <ele>491</ele>
        <time>2019-05-22T22:57:06Z</time>
      </trkpt>
      <trkpt lat="44.06965" lon="3.29254">
        <ele>485</ele>
        <time>2019-05-22T22:57:20Z</time>
      </trkpt>
      <trkpt lat="44.07014" lon="3.29272">
        <ele>482</ele>
        <time>2019-05-22T22:57:29Z</time>
      </trkpt>
      <trkpt lat="44.07033" lon="3.29285">
        <ele>478</ele>
        <time>2019-05-22T22:57:33Z</time>
      </trkpt>
      <trkpt lat="44.07077" lon="3.29327">
        <ele>470</ele>
        <time>2019-05-22T22:57:42Z</time>
      </trkpt>
      <trkpt lat="44.07096" lon="3.29333">
        <ele>467</ele>
        <time>2019-05-22T22:57:46Z</time>
      </trkpt>
      <trkpt lat="44.07113" lon="3.29319">
        <ele>467</ele>
        <time>2019-05-22T22:57:49Z</time>
      </trkpt>
      <trkpt lat="44.0712" lon="3.29302">
        <ele>468</ele>
        <time>2019-05-22T22:57:52Z</time>
      </trkpt>
      <trkpt lat="44.07127" lon="3.29278">
        <ele>469</ele>
        <time>2019-05-22T22:57:55Z</time>
      </trkpt>
      <trkpt lat="44.07131" lon="3.29243">
        <ele>471</ele>
        <time>2019-05-22T22:58:00Z</time>
      </trkpt>
      <trkpt lat="44.07128" lon="3.29201">
        <ele>472</ele>
        <time>2019-05-22T22:58:05Z</time>
      </trkpt>
      <trkpt lat="44.07115" lon="3.29143">
        <ele>479</ele>
        <time>2019-05-22T22:58:13Z</time>
      </trkpt>
      <trkpt lat="44.07102" lon="3.29062">
        <ele>484</ele>
        <time>2019-05-22T22:58:23Z</time>
      </trkpt>
      <trkpt lat="44.07102" lon="3.28988">
        <ele>484</ele>
        <time>2019-05-22T22:58:33Z</time>
      </trkpt>
      <trkpt lat="44.07108" lon="3.28966">
        <ele>484</ele>
        <time>2019-05-22T22:58:36Z</time>
      </trkpt>
      <trkpt lat="44.07122" lon="3.28932">
        <ele>479</ele>
        <time>2019-05-22T22:58:41Z</time>
      </trkpt>
      <trkpt lat="44.07146" lon="3.28887">
        <ele>473</ele>
        <time>2019-05-22T22:58:48Z</time>
      </trkpt>
      <trkpt lat="44.07176" lon="3.28844">
        <ele>467</ele>
        <time>2019-05-22T22:58:56Z</time>
      </trkpt>
      <trkpt lat="44.07251" lon="3.28771">
        <ele>463</ele>
        <time>2019-05-22T22:59:12Z</time>
      </trkpt>
      <trkpt lat="44.07323" lon="3.28658">
        <ele>462</ele>
        <time>2019-05-22T22:59:31Z</time>
      </trkpt>
      <trkpt lat="44.0737" lon="3.28561">
        <ele>461</ele>
        <time>2019-05-22T22:59:46Z</time>
      </trkpt>
      <trkpt lat="44.07388" lon="3.28532">
        <ele>462</ele>
        <time>2019-05-22T22:59:51Z</time>
      </trkpt>
      <trkpt lat="44.07404" lon="3.28515">
        <ele>463</ele>
        <time>2019-05-22T22:59:55Z</time>
      </trkpt>
      <trkpt lat="44.0742" lon="3.28506">
        <ele>462</ele>
        <time>2019-05-22T22:59:58Z</time>
      </trkpt>
      <trkpt lat="44.07437" lon="3.28505">
        <ele>461</ele>
        <time>2019-05-22T23:00:01Z</time>
      </trkpt>
      <trkpt lat="44.0748" lon="3.28517">
        <ele>457</ele>
        <time>2019-05-22T23:00:09Z</time>
      </trkpt>
      <trkpt lat="44.07508" lon="3.28515">
        <ele>455</ele>
        <time>2019-05-22T23:00:14Z</time>
      </trkpt>
      <trkpt lat="44.07579" lon="3.2846">
        <ele>456</ele>
        <time>2019-05-22T23:00:28Z</time>
      </trkpt>
      <trkpt lat="44.07618" lon="3.28421">
        <ele>455</ele>
        <time>2019-05-22T23:00:37Z</time>
      </trkpt>
      <trkpt lat="44.07649" lon="3.2838">
        <ele>453</ele>
        <time>2019-05-22T23:00:44Z</time>
      </trkpt>
      <trkpt lat="44.07662" lon="3.28349">
        <ele>454</ele>
        <time>2019-05-22T23:00:49Z</time>
      </trkpt>
      <trkpt lat="44.07687" lon="3.28255">
        <ele>459</ele>
        <time>2019-05-22T23:01:02Z</time>
      </trkpt>
      <trkpt lat="44.07708" lon="3.28158">
        <ele>466</ele>
        <time>2019-05-22T23:01:15Z</time>
      </trkpt>
      <trkpt lat="44.07719" lon="3.28131">
        <ele>467</ele>
        <time>2019-05-22T23:01:18Z</time>
      </trkpt>
      <trkpt lat="44.07734" lon="3.28105">
        <ele>464</ele>
        <time>2019-05-22T23:01:23Z</time>
      </trkpt>
      <trkpt lat="44.07803" lon="3.28026">
        <ele>470</ele>
        <time>2019-05-22T23:01:39Z</time>
      </trkpt>
      <trkpt lat="44.07819" lon="3.28021">
        <ele>466</ele>
        <time>2019-05-22T23:01:42Z</time>
      </trkpt>
      <trkpt lat="44.07863" lon="3.28014">
        <ele>458</ele>
        <time>2019-05-22T23:01:49Z</time>
      </trkpt>
      <trkpt lat="44.07893" lon="3.28005">
        <ele>454</ele>
        <time>2019-05-22T23:01:55Z</time>
      </trkpt>
      <trkpt lat="44.07971" lon="3.27972">
        <ele>454</ele>
        <time>2019-05-22T23:02:09Z</time>
      </trkpt>
      <trkpt lat="44.08039" lon="3.27933">
        <ele>455</ele>
        <time>2019-05-22T23:02:23Z</time>
      </trkpt>
      <trkpt lat="44.08065" lon="3.27909">
        <ele>455</ele>
        <time>2019-05-22T23:02:28Z</time>
      </trkpt>
      <trkpt lat="44.08121" lon="3.27852">
        <ele>454</ele>
        <time>2019-05-22T23:02:40Z</time>
      </trkpt>
      <trkpt lat="44.0815" lon="3.27815">
        <ele>451</ele>
        <time>2019-05-22T23:02:47Z</time>
      </trkpt>
      <trkpt lat="44.08167" lon="3.27785">
        <ele>448</ele>
        <time>2019-05-22T23:02:52Z</time>
      </trkpt>
      <trkpt lat="44.08177" lon="3.27759">
        <ele>448</ele>
        <time>2019-05-22T23:02:56Z</time>
      </trkpt>
      <trkpt lat="44.08198" lon="3.27683">
        <ele>445</ele>
        <time>2019-05-22T23:03:06Z</time>
      </trkpt>
      <trkpt lat="44.08222" lon="3.27624">
        <ele>445</ele>
        <time>2019-05-22T23:03:15Z</time>
      </trkpt>
      <trkpt lat="44.08237" lon="3.27593">
        <ele>445</ele>
        <time>2019-05-22T23:03:20Z</time>
      </trkpt>
      <trkpt lat="44.08268" lon="3.27558">
        <ele>448</ele>
        <time>2019-05-22T23:03:27Z</time>
      </trkpt>
      <trkpt lat="44.08308" lon="3.27524">
        <ele>451</ele>
        <time>2019-05-22T23:03:35Z</time>
      </trkpt>
      <trkpt lat="44.08333" lon="3.27507">
        <ele>452</ele>
        <time>2019-05-22T23:03:40Z</time>
      </trkpt>
      <trkpt lat="44.08415" lon="3.27471">
        <ele>460</ele>
        <time>2019-05-22T23:03:56Z</time>
      </trkpt>
      <trkpt lat="44.08447" lon="3.27468">
        <ele>465</ele>
        <time>2019-05-22T23:04:01Z</time>
      </trkpt>
      <trkpt lat="44.08495" lon="3.27475">
        <ele>465</ele>
        <time>2019-05-22T23:04:10Z</time>
      </trkpt>
      <trkpt lat="44.08529" lon="3.27493">
        <ele>462</ele>
        <time>2019-05-22T23:04:16Z</time>
      </trkpt>
      <trkpt lat="44.08565" lon="3.27521">
        <ele>463</ele>
        <time>2019-05-22T23:04:24Z</time>
      </trkpt>
      <trkpt lat="44.08599" lon="3.27557">
        <ele>458</ele>
        <time>2019-05-22T23:04:31Z</time>
      </trkpt>
      <trkpt lat="44.08657" lon="3.27636">
        <ele>448</ele>
        <time>2019-05-22T23:04:46Z</time>
      </trkpt>
      <trkpt lat="44.08674" lon="3.27649">
        <ele>444</ele>
        <time>2019-05-22T23:04:49Z</time>
      </trkpt>
      <trkpt lat="44.08687" lon="3.27651">
        <ele>442</ele>
        <time>2019-05-22T23:04:52Z</time>
      </trkpt>
      <trkpt lat="44.08702" lon="3.27643">
        <ele>441</ele>
        <time>2019-05-22T23:04:54Z</time>
      </trkpt>
      <trkpt lat="44.08713" lon="3.27625">
        <ele>443</ele>
        <time>2019-05-22T23:04:57Z</time>
      </trkpt>
      <trkpt lat="44.08729" lon="3.27583">
        <ele>446</ele>
        <time>2019-05-22T23:05:03Z</time>
      </trkpt>
      <trkpt lat="44.08743" lon="3.27541">
        <ele>445</ele>
        <time>2019-05-22T23:05:09Z</time>
      </trkpt>
      <trkpt lat="44.08752" lon="3.27505">
        <ele>444</ele>
        <time>2019-05-22T23:05:14Z</time>
      </trkpt>
      <trkpt lat="44.08758" lon="3.27455">
        <ele>446</ele>
        <time>2019-05-22T23:05:21Z</time>
      </trkpt>
      <trkpt lat="44.08761" lon="3.27402">
        <ele>447</ele>
        <time>2019-05-22T23:05:28Z</time>
      </trkpt>
      <trkpt lat="44.08758" lon="3.27347">
        <ele>446</ele>
        <time>2019-05-22T23:05:35Z</time>
      </trkpt>
      <trkpt lat="44.08733" lon="3.27151">
        <ele>446</ele>
        <time>2019-05-22T23:06:00Z</time>
      </trkpt>
      <trkpt lat="44.08729" lon="3.2707">
        <ele>445</ele>
        <time>2019-05-22T23:06:10Z</time>
      </trkpt>
      <trkpt lat="44.08743" lon="3.26943">
        <ele>441</ele>
        <time>2019-05-22T23:06:27Z</time>
      </trkpt>
      <trkpt lat="44.08743" lon="3.26943">
        <ele>441</ele>
        <time>2019-05-22T23:06:27Z</time>
      </trkpt>
      <trkpt lat="44.08753" lon="3.26896">
        <ele>441</ele>
        <time>2019-05-22T23:06:33Z</time>
      </trkpt>
      <trkpt lat="44.08769" lon="3.26849">
        <ele>446</ele>
        <time>2019-05-22T23:06:40Z</time>
      </trkpt>
      <trkpt lat="44.08807" lon="3.26754">
        <ele>446</ele>
        <time>2019-05-22T23:06:54Z</time>
      </trkpt>
      <trkpt lat="44.08852" lon="3.26669">
        <ele>450</ele>
        <time>2019-05-22T23:07:07Z</time>
      </trkpt>
      <trkpt lat="44.08882" lon="3.26622">
        <ele>455</ele>
        <time>2019-05-22T23:07:15Z</time>
      </trkpt>
      <trkpt lat="44.08908" lon="3.26588">
        <ele>451</ele>
        <time>2019-05-22T23:07:22Z</time>
      </trkpt>
      <trkpt lat="44.09029" lon="3.26465">
        <ele>440</ele>
        <time>2019-05-22T23:07:48Z</time>
      </trkpt>
      <trkpt lat="44.09071" lon="3.26418">
        <ele>435</ele>
        <time>2019-05-22T23:07:58Z</time>
      </trkpt>
      <trkpt lat="44.09106" lon="3.26366">
        <ele>440</ele>
        <time>2019-05-22T23:08:07Z</time>
      </trkpt>
      <trkpt lat="44.09121" lon="3.26349">
        <ele>440</ele>
        <time>2019-05-22T23:08:10Z</time>
      </trkpt>
      <trkpt lat="44.09161" lon="3.26316">
        <ele>437</ele>
        <time>2019-05-22T23:08:19Z</time>
      </trkpt>
      <trkpt lat="44.09179" lon="3.26284">
        <ele>438</ele>
        <time>2019-05-22T23:08:24Z</time>
      </trkpt>
      <trkpt lat="44.09193" lon="3.26265">
        <ele>438</ele>
        <time>2019-05-22T23:08:27Z</time>
      </trkpt>
      <trkpt lat="44.09259" lon="3.26194">
        <ele>438</ele>
        <time>2019-05-22T23:08:42Z</time>
      </trkpt>
      <trkpt lat="44.09309" lon="3.26144">
        <ele>442</ele>
        <time>2019-05-22T23:08:53Z</time>
      </trkpt>
      <trkpt lat="44.09325" lon="3.26137">
        <ele>443</ele>
        <time>2019-05-22T23:08:56Z</time>
      </trkpt>
      <trkpt lat="44.09345" lon="3.26136">
        <ele>444</ele>
        <time>2019-05-22T23:09:00Z</time>
      </trkpt>
      <trkpt lat="44.09361" lon="3.26142">
        <ele>445</ele>
        <time>2019-05-22T23:09:03Z</time>
      </trkpt>
      <trkpt lat="44.09392" lon="3.26162">
        <ele>442</ele>
        <time>2019-05-22T23:09:09Z</time>
      </trkpt>
      <trkpt lat="44.09427" lon="3.26199">
        <ele>445</ele>
        <time>2019-05-22T23:09:16Z</time>
      </trkpt>
      <trkpt lat="44.09439" lon="3.26217">
        <ele>448</ele>
        <time>2019-05-22T23:09:20Z</time>
      </trkpt>
      <trkpt lat="44.09453" lon="3.26262">
        <ele>448</ele>
        <time>2019-05-22T23:09:26Z</time>
      </trkpt>
      <trkpt lat="44.09471" lon="3.26327">
        <ele>448</ele>
        <time>2019-05-22T23:09:35Z</time>
      </trkpt>
      <trkpt lat="44.09485" lon="3.26399">
        <ele>447</ele>
        <time>2019-05-22T23:09:44Z</time>
      </trkpt>
      <trkpt lat="44.09501" lon="3.26509">
        <ele>438</ele>
        <time>2019-05-22T23:09:59Z</time>
      </trkpt>
      <trkpt lat="44.0952" lon="3.26613">
        <ele>441</ele>
        <time>2019-05-22T23:10:12Z</time>
      </trkpt>
      <trkpt lat="44.09532" lon="3.26665">
        <ele>442</ele>
        <time>2019-05-22T23:10:19Z</time>
      </trkpt>
      <trkpt lat="44.09537" lon="3.26706">
        <ele>441</ele>
        <time>2019-05-22T23:10:25Z</time>
      </trkpt>
      <trkpt lat="44.09541" lon="3.26757">
        <ele>439</ele>
        <time>2019-05-22T23:10:31Z</time>
      </trkpt>
      <trkpt lat="44.09548" lon="3.26794">
        <ele>438</ele>
        <time>2019-05-22T23:10:36Z</time>
      </trkpt>
      <trkpt lat="44.0956" lon="3.26829">
        <ele>436</ele>
        <time>2019-05-22T23:10:41Z</time>
      </trkpt>
      <trkpt lat="44.09575" lon="3.26855">
        <ele>435</ele>
        <time>2019-05-22T23:10:45Z</time>
      </trkpt>
      <trkpt lat="44.09597" lon="3.26881">
        <ele>434</ele>
        <time>2019-05-22T23:10:50Z</time>
      </trkpt>
      <trkpt lat="44.09626" lon="3.26901">
        <ele>434</ele>
        <time>2019-05-22T23:10:56Z</time>
      </trkpt>
      <trkpt lat="44.0968" lon="3.26927">
        <ele>433</ele>
        <time>2019-05-22T23:11:06Z</time>
      </trkpt>
      <trkpt lat="44.09697" lon="3.2693">
        <ele>432</ele>
        <time>2019-05-22T23:11:09Z</time>
      </trkpt>
      <trkpt lat="44.09716" lon="3.26928">
        <ele>431</ele>
        <time>2019-05-22T23:11:13Z</time>
      </trkpt>
      <trkpt lat="44.0977" lon="3.26902">
        <ele>433</ele>
        <time>2019-05-22T23:11:23Z</time>
      </trkpt>
      <trkpt lat="44.0981" lon="3.26876">
        <ele>434</ele>
        <time>2019-05-22T23:11:31Z</time>
      </trkpt>
      <trkpt lat="44.09834" lon="3.26859">
        <ele>434</ele>
        <time>2019-05-22T23:11:36Z</time>
      </trkpt>
      <trkpt lat="44.09852" lon="3.26838">
        <ele>434</ele>
        <time>2019-05-22T23:11:40Z</time>
      </trkpt>
      <trkpt lat="44.09881" lon="3.26788">
        <ele>437</ele>
        <time>2019-05-22T23:11:48Z</time>
      </trkpt>
      <trkpt lat="44.09947" lon="3.26662">
        <ele>432</ele>
        <time>2019-05-22T23:12:08Z</time>
      </trkpt>
      <trkpt lat="44.09966" lon="3.26614">
        <ele>431</ele>
        <time>2019-05-22T23:12:15Z</time>
      </trkpt>
      <trkpt lat="44.10003" lon="3.26431">
        <ele>430</ele>
        <time>2019-05-22T23:12:39Z</time>
      </trkpt>
      <trkpt lat="44.10018" lon="3.26369">
        <ele>431</ele>
        <time>2019-05-22T23:12:48Z</time>
      </trkpt>
      <trkpt lat="44.10045" lon="3.26304">
        <ele>431</ele>
        <time>2019-05-22T23:12:57Z</time>
      </trkpt>
      <trkpt lat="44.10065" lon="3.26261">
        <ele>431</ele>
        <time>2019-05-22T23:13:04Z</time>
      </trkpt>
      <trkpt lat="44.10079" lon="3.26242">
        <ele>431</ele>
        <time>2019-05-22T23:13:07Z</time>
      </trkpt>
      <trkpt lat="44.1013" lon="3.26199">
        <ele>435</ele>
        <time>2019-05-22T23:13:18Z</time>
      </trkpt>
      <trkpt lat="44.10159" lon="3.26182">
        <ele>435</ele>
        <time>2019-05-22T23:13:23Z</time>
      </trkpt>
      <trkpt lat="44.10207" lon="3.26171">
        <ele>436</ele>
        <time>2019-05-22T23:13:32Z</time>
      </trkpt>
      <trkpt lat="44.10252" lon="3.2617">
        <ele>436</ele>
        <time>2019-05-22T23:13:40Z</time>
      </trkpt>
      <trkpt lat="44.10286" lon="3.26171">
        <ele>438</ele>
        <time>2019-05-22T23:13:46Z</time>
      </trkpt>
      <trkpt lat="44.10328" lon="3.2618">
        <ele>439</ele>
        <time>2019-05-22T23:13:54Z</time>
      </trkpt>
      <trkpt lat="44.10387" lon="3.262">
        <ele>440</ele>
        <time>2019-05-22T23:14:04Z</time>
      </trkpt>
      <trkpt lat="44.10416" lon="3.26216">
        <ele>437</ele>
        <time>2019-05-22T23:14:10Z</time>
      </trkpt>
      <trkpt lat="44.10446" lon="3.26248">
        <ele>431</ele>
        <time>2019-05-22T23:14:17Z</time>
      </trkpt>
      <trkpt lat="44.10488" lon="3.26307">
        <ele>428</ele>
        <time>2019-05-22T23:14:27Z</time>
      </trkpt>
      <trkpt lat="44.10509" lon="3.26326">
        <ele>425</ele>
        <time>2019-05-22T23:14:32Z</time>
      </trkpt>
      <trkpt lat="44.10524" lon="3.26329">
        <ele>424</ele>
        <time>2019-05-22T23:14:35Z</time>
      </trkpt>
      <trkpt lat="44.10534" lon="3.26325">
        <ele>424</ele>
        <time>2019-05-22T23:14:36Z</time>
      </trkpt>
      <trkpt lat="44.10544" lon="3.26315">
        <ele>424</ele>
        <time>2019-05-22T23:14:39Z</time>
      </trkpt>
      <trkpt lat="44.10565" lon="3.26284">
        <ele>427</ele>
        <time>2019-05-22T23:14:44Z</time>
      </trkpt>
      <trkpt lat="44.106" lon="3.26239">
        <ele>429</ele>
        <time>2019-05-22T23:14:52Z</time>
      </trkpt>
      <trkpt lat="44.10633" lon="3.26167">
        <ele>426</ele>
        <time>2019-05-22T23:15:03Z</time>
      </trkpt>
      <trkpt lat="44.10656" lon="3.26132">
        <ele>426</ele>
        <time>2019-05-22T23:15:09Z</time>
      </trkpt>
      <trkpt lat="44.10679" lon="3.26078">
        <ele>430</ele>
        <time>2019-05-22T23:15:17Z</time>
      </trkpt>
      <trkpt lat="44.10704" lon="3.26033">
        <ele>434</ele>
        <time>2019-05-22T23:15:25Z</time>
      </trkpt>
      <trkpt lat="44.10749" lon="3.25944">
        <ele>437</ele>
        <time>2019-05-22T23:15:39Z</time>
      </trkpt>
      <trkpt lat="44.1078" lon="3.25898">
        <ele>441</ele>
        <time>2019-05-22T23:15:47Z</time>
      </trkpt>
      <trkpt lat="44.10813" lon="3.25865">
        <ele>440</ele>
        <time>2019-05-22T23:15:54Z</time>
      </trkpt>
      <trkpt lat="44.10847" lon="3.25846">
        <ele>435</ele>
        <time>2019-05-22T23:16:00Z</time>
      </trkpt>
      <trkpt lat="44.10887" lon="3.25825">
        <ele>435</ele>
        <time>2019-05-22T23:16:08Z</time>
      </trkpt>
      <trkpt lat="44.10929" lon="3.25808">
        <ele>435</ele>
        <time>2019-05-22T23:16:16Z</time>
      </trkpt>
      <trkpt lat="44.10983" lon="3.25789">
        <ele>431</ele>
        <time>2019-05-22T23:16:26Z</time>
      </trkpt>
      <trkpt lat="44.1105" lon="3.25754">
        <ele>425</ele>
        <time>2019-05-22T23:16:38Z</time>
      </trkpt>
      <trkpt lat="44.11069" lon="3.25737">
        <ele>423</ele>
        <time>2019-05-22T23:16:42Z</time>
      </trkpt>
      <trkpt lat="44.11084" lon="3.25714">
        <ele>422</ele>
        <time>2019-05-22T23:16:46Z</time>
      </trkpt>
      <trkpt lat="44.11097" lon="3.25678">
        <ele>425</ele>
        <time>2019-05-22T23:16:52Z</time>
      </trkpt>
      <trkpt lat="44.11104" lon="3.25642">
        <ele>428</ele>
        <time>2019-05-22T23:16:56Z</time>
      </trkpt>
      <trkpt lat="44.1111" lon="3.25597">
        <ele>431</ele>
        <time>2019-05-22T23:17:02Z</time>
      </trkpt>
      <trkpt lat="44.11114" lon="3.25531">
        <ele>437</ele>
        <time>2019-05-22T23:17:11Z</time>
      </trkpt>
      <trkpt lat="44.1112" lon="3.25505">
        <ele>438</ele>
        <time>2019-05-22T23:17:14Z</time>
      </trkpt>
      <trkpt lat="44.11131" lon="3.25482">
        <ele>437</ele>
        <time>2019-05-22T23:17:18Z</time>
      </trkpt>
      <trkpt lat="44.11167" lon="3.25421">
        <ele>424</ele>
        <time>2019-05-22T23:17:28Z</time>
      </trkpt>
      <trkpt lat="44.11179" lon="3.25396">
        <ele>428</ele>
        <time>2019-05-22T23:17:32Z</time>
      </trkpt>
      <trkpt lat="44.11188" lon="3.25372">
        <ele>432</ele>
        <time>2019-05-22T23:17:35Z</time>
      </trkpt>
      <trkpt lat="44.11196" lon="3.25341">
        <ele>434</ele>
        <time>2019-05-22T23:17:39Z</time>
      </trkpt>
      <trkpt lat="44.112" lon="3.25307">
        <ele>434</ele>
        <time>2019-05-22T23:17:44Z</time>
      </trkpt>
      <trkpt lat="44.11202" lon="3.25275">
        <ele>434</ele>
        <time>2019-05-22T23:17:48Z</time>
      </trkpt>
      <trkpt lat="44.11196" lon="3.25243">
        <ele>433</ele>
        <time>2019-05-22T23:17:52Z</time>
      </trkpt>
      <trkpt lat="44.11188" lon="3.25228">
        <ele>432</ele>
        <time>2019-05-22T23:17:54Z</time>
      </trkpt>
      <trkpt lat="44.11161" lon="3.25195">
        <ele>430</ele>
        <time>2019-05-22T23:18:01Z</time>
      </trkpt>
      <trkpt lat="44.11144" lon="3.25166">
        <ele>436</ele>
        <time>2019-05-22T23:18:06Z</time>
      </trkpt>
      <trkpt lat="44.11137" lon="3.25137">
        <ele>438</ele>
        <time>2019-05-22T23:18:10Z</time>
      </trkpt>
      <trkpt lat="44.11138" lon="3.25125">
        <ele>437</ele>
        <time>2019-05-22T23:18:11Z</time>
      </trkpt>
      <trkpt lat="44.11178" lon="3.25077">
        <ele>426</ele>
        <time>2019-05-22T23:18:20Z</time>
      </trkpt>
      <trkpt lat="44.1118" lon="3.25067">
        <ele>425</ele>
        <time>2019-05-22T23:18:22Z</time>
      </trkpt>
      <trkpt lat="44.11184" lon="3.2502">
        <ele>423</ele>
        <time>2019-05-22T23:18:28Z</time>
      </trkpt>
      <trkpt lat="44.11192" lon="3.25002">
        <ele>423</ele>
        <time>2019-05-22T23:18:31Z</time>
      </trkpt>
      <trkpt lat="44.11199" lon="3.2499">
        <ele>424</ele>
        <time>2019-05-22T23:18:32Z</time>
      </trkpt>
      <trkpt lat="44.1121" lon="3.24981">
        <ele>424</ele>
        <time>2019-05-22T23:18:35Z</time>
      </trkpt>
      <trkpt lat="44.11224" lon="3.24974">
        <ele>424</ele>
        <time>2019-05-22T23:18:37Z</time>
      </trkpt>
      <trkpt lat="44.11241" lon="3.24968">
        <ele>424</ele>
        <time>2019-05-22T23:18:41Z</time>
      </trkpt>
      <trkpt lat="44.11434" lon="3.24962">
        <ele>440</ele>
        <time>2019-05-22T23:19:15Z</time>
      </trkpt>
      <trkpt lat="44.11464" lon="3.24956">
        <ele>445</ele>
        <time>2019-05-22T23:19:20Z</time>
      </trkpt>
      <trkpt lat="44.1153" lon="3.24875">
        <ele>438</ele>
        <time>2019-05-22T23:19:36Z</time>
      </trkpt>
      <trkpt lat="44.1158" lon="3.24809">
        <ele>427</ele>
        <time>2019-05-22T23:19:48Z</time>
      </trkpt>
      <trkpt lat="44.1164" lon="3.24734">
        <ele>426</ele>
        <time>2019-05-22T23:20:03Z</time>
      </trkpt>
      <trkpt lat="44.11665" lon="3.24704">
        <ele>422</ele>
        <time>2019-05-22T23:20:08Z</time>
      </trkpt>
      <trkpt lat="44.11697" lon="3.24675">
        <ele>421</ele>
        <time>2019-05-22T23:20:15Z</time>
      </trkpt>
      <trkpt lat="44.11737" lon="3.24642">
        <ele>423</ele>
        <time>2019-05-22T23:20:23Z</time>
      </trkpt>
      <trkpt lat="44.11781" lon="3.2462">
        <ele>423</ele>
        <time>2019-05-22T23:20:32Z</time>
      </trkpt>
      <trkpt lat="44.11839" lon="3.24611">
        <ele>422</ele>
        <time>2019-05-22T23:20:42Z</time>
      </trkpt>
      <trkpt lat="44.11896" lon="3.24598">
        <ele>422</ele>
        <time>2019-05-22T23:20:52Z</time>
      </trkpt>
      <trkpt lat="44.11934" lon="3.24581">
        <ele>424</ele>
        <time>2019-05-22T23:21:00Z</time>
      </trkpt>
      <trkpt lat="44.1195" lon="3.24567">
        <ele>428</ele>
        <time>2019-05-22T23:21:03Z</time>
      </trkpt>
      <trkpt lat="44.11961" lon="3.24551">
        <ele>430</ele>
        <time>2019-05-22T23:21:06Z</time>
      </trkpt>
      <trkpt lat="44.11979" lon="3.24492">
        <ele>431</ele>
        <time>2019-05-22T23:21:14Z</time>
      </trkpt>
      <trkpt lat="44.11996" lon="3.24426">
        <ele>426</ele>
        <time>2019-05-22T23:21:23Z</time>
      </trkpt>
      <trkpt lat="44.11998" lon="3.24381">
        <ele>422</ele>
        <time>2019-05-22T23:21:29Z</time>
      </trkpt>
      <trkpt lat="44.11987" lon="3.24311">
        <ele>422</ele>
        <time>2019-05-22T23:21:38Z</time>
      </trkpt>
      <trkpt lat="44.11979" lon="3.2427">
        <ele>428</ele>
        <time>2019-05-22T23:21:43Z</time>
      </trkpt>
      <trkpt lat="44.11958" lon="3.24203">
        <ele>430</ele>
        <time>2019-05-22T23:21:53Z</time>
      </trkpt>
      <trkpt lat="44.11938" lon="3.2417">
        <ele>425</ele>
        <time>2019-05-22T23:21:58Z</time>
      </trkpt>
      <trkpt lat="44.11845" lon="3.24039">
        <ele>423</ele>
        <time>2019-05-22T23:22:22Z</time>
      </trkpt>
      <trkpt lat="44.11822" lon="3.23998">
        <ele>423</ele>
        <time>2019-05-22T23:22:28Z</time>
      </trkpt>
      <trkpt lat="44.11793" lon="3.23931">
        <ele>424</ele>
        <time>2019-05-22T23:22:38Z</time>
      </trkpt>
      <trkpt lat="44.11789" lon="3.23912">
        <ele>424</ele>
        <time>2019-05-22T23:22:41Z</time>
      </trkpt>
      <trkpt lat="44.11788" lon="3.23888">
        <ele>423</ele>
        <time>2019-05-22T23:22:44Z</time>
      </trkpt>
      <trkpt lat="44.11793" lon="3.23866">
        <ele>422</ele>
        <time>2019-05-22T23:22:47Z</time>
      </trkpt>
      <trkpt lat="44.11801" lon="3.23844">
        <ele>420</ele>
        <time>2019-05-22T23:22:50Z</time>
      </trkpt>
      <trkpt lat="44.11812" lon="3.23824">
        <ele>419</ele>
        <time>2019-05-22T23:22:53Z</time>
      </trkpt>
      <trkpt lat="44.1188" lon="3.23722">
        <ele>425</ele>
        <time>2019-05-22T23:23:11Z</time>
      </trkpt>
      <trkpt lat="44.11891" lon="3.237">
        <ele>426</ele>
        <time>2019-05-22T23:23:14Z</time>
      </trkpt>
      <trkpt lat="44.11905" lon="3.23664">
        <ele>422</ele>
        <time>2019-05-22T23:23:20Z</time>
      </trkpt>
      <trkpt lat="44.11916" lon="3.23625">
        <ele>418</ele>
        <time>2019-05-22T23:23:25Z</time>
      </trkpt>
      <trkpt lat="44.1194" lon="3.23569">
        <ele>424</ele>
        <time>2019-05-22T23:23:33Z</time>
      </trkpt>
      <trkpt lat="44.11955" lon="3.23489">
        <ele>423</ele>
        <time>2019-05-22T23:23:44Z</time>
      </trkpt>
      <trkpt lat="44.1197" lon="3.23397">
        <ele>420</ele>
        <time>2019-05-22T23:23:56Z</time>
      </trkpt>
      <trkpt lat="44.1198" lon="3.23313">
        <ele>417</ele>
        <time>2019-05-22T23:24:07Z</time>
      </trkpt>
      <trkpt lat="44.11992" lon="3.23267">
        <ele>413</ele>
        <time>2019-05-22T23:24:13Z</time>
      </trkpt>
      <trkpt lat="44.12004" lon="3.23232">
        <ele>412</ele>
        <time>2019-05-22T23:24:18Z</time>
      </trkpt>
      <trkpt lat="44.12018" lon="3.23204">
        <ele>415</ele>
        <time>2019-05-22T23:24:22Z</time>
      </trkpt>
      <trkpt lat="44.12042" lon="3.23175">
        <ele>418</ele>
        <time>2019-05-22T23:24:28Z</time>
      </trkpt>
      <trkpt lat="44.121" lon="3.23108">
        <ele>416</ele>
        <time>2019-05-22T23:24:41Z</time>
      </trkpt>
      <trkpt lat="44.12158" lon="3.23066">
        <ele>415</ele>
        <time>2019-05-22T23:24:53Z</time>
      </trkpt>
      <trkpt lat="44.12277" lon="3.23001">
        <ele>417</ele>
        <time>2019-05-22T23:25:16Z</time>
      </trkpt>
      <trkpt lat="44.12369" lon="3.22938">
        <ele>419</ele>
        <time>2019-05-22T23:25:34Z</time>
      </trkpt>
      <trkpt lat="44.12408" lon="3.22898">
        <ele>418</ele>
        <time>2019-05-22T23:25:43Z</time>
      </trkpt>
      <trkpt lat="44.12472" lon="3.22827">
        <ele>421</ele>
        <time>2019-05-22T23:25:57Z</time>
      </trkpt>
      <trkpt lat="44.12483" lon="3.22804">
        <ele>420</ele>
        <time>2019-05-22T23:26:01Z</time>
      </trkpt>
      <trkpt lat="44.12507" lon="3.22728">
        <ele>412</ele>
        <time>2019-05-22T23:26:11Z</time>
      </trkpt>
      <trkpt lat="44.12516" lon="3.2269">
        <ele>413</ele>
        <time>2019-05-22T23:26:16Z</time>
      </trkpt>
      <trkpt lat="44.12519" lon="3.22662">
        <ele>412</ele>
        <time>2019-05-22T23:26:20Z</time>
      </trkpt>
      <trkpt lat="44.12515" lon="3.22521">
        <ele>412</ele>
        <time>2019-05-22T23:26:38Z</time>
      </trkpt>
      <trkpt lat="44.12511" lon="3.22451">
        <ele>413</ele>
        <time>2019-05-22T23:26:47Z</time>
      </trkpt>
      <trkpt lat="44.12507" lon="3.22415">
        <ele>413</ele>
        <time>2019-05-22T23:26:52Z</time>
      </trkpt>
      <trkpt lat="44.12494" lon="3.22382">
        <ele>411</ele>
        <time>2019-05-22T23:26:56Z</time>
      </trkpt>
      <trkpt lat="44.12457" lon="3.22327">
        <ele>409</ele>
        <time>2019-05-22T23:27:06Z</time>
      </trkpt>
      <trkpt lat="44.12446" lon="3.22307">
        <ele>408</ele>
        <time>2019-05-22T23:27:09Z</time>
      </trkpt>
      <trkpt lat="44.12433" lon="3.22271">
        <ele>409</ele>
        <time>2019-05-22T23:27:14Z</time>
      </trkpt>
      <trkpt lat="44.12425" lon="3.22265">
        <ele>408</ele>
        <time>2019-05-22T23:27:16Z</time>
      </trkpt>
      <trkpt lat="44.12385" lon="3.22255">
        <ele>405</ele>
        <time>2019-05-22T23:27:23Z</time>
      </trkpt>
      <trkpt lat="44.12372" lon="3.22249">
        <ele>404</ele>
        <time>2019-05-22T23:27:26Z</time>
      </trkpt>
      <trkpt lat="44.12358" lon="3.22236">
        <ele>404</ele>
        <time>2019-05-22T23:27:29Z</time>
      </trkpt>
      <trkpt lat="44.12345" lon="3.22208">
        <ele>404</ele>
        <time>2019-05-22T23:27:33Z</time>
      </trkpt>
      <trkpt lat="44.12331" lon="3.22168">
        <ele>404</ele>
        <time>2019-05-22T23:27:39Z</time>
      </trkpt>
      <trkpt lat="44.12312" lon="3.22088">
        <ele>410</ele>
        <time>2019-05-22T23:27:49Z</time>
      </trkpt>
      <trkpt lat="44.12292" lon="3.21968">
        <ele>413</ele>
        <time>2019-05-22T23:28:05Z</time>
      </trkpt>
      <trkpt lat="44.12284" lon="3.21942">
        <ele>413</ele>
        <time>2019-05-22T23:28:09Z</time>
      </trkpt>
      <trkpt lat="44.12249" lon="3.21875">
        <ele>408</ele>
        <time>2019-05-22T23:28:19Z</time>
      </trkpt>
      <trkpt lat="44.12213" lon="3.21779">
        <ele>418</ele>
        <time>2019-05-22T23:28:33Z</time>
      </trkpt>
      <trkpt lat="44.12198" lon="3.2175">
        <ele>415</ele>
        <time>2019-05-22T23:28:38Z</time>
      </trkpt>
      <trkpt lat="44.12181" lon="3.21724">
        <ele>415</ele>
        <time>2019-05-22T23:28:42Z</time>
      </trkpt>
      <trkpt lat="44.12096" lon="3.21622">
        <ele>412</ele>
        <time>2019-05-22T23:29:02Z</time>
      </trkpt>
      <trkpt lat="44.12063" lon="3.21576">
        <ele>414</ele>
        <time>2019-05-22T23:29:11Z</time>
      </trkpt>
      <trkpt lat="44.12032" lon="3.21527">
        <ele>415</ele>
        <time>2019-05-22T23:29:19Z</time>
      </trkpt>
      <trkpt lat="44.11999" lon="3.21469">
        <ele>407</ele>
        <time>2019-05-22T23:29:28Z</time>
      </trkpt>
      <trkpt lat="44.11988" lon="3.21443">
        <ele>411</ele>
        <time>2019-05-22T23:29:32Z</time>
      </trkpt>
      <trkpt lat="44.11981" lon="3.21418">
        <ele>414</ele>
        <time>2019-05-22T23:29:36Z</time>
      </trkpt>
      <trkpt lat="44.11979" lon="3.21393">
        <ele>413</ele>
        <time>2019-05-22T23:29:39Z</time>
      </trkpt>
      <trkpt lat="44.11979" lon="3.21366">
        <ele>412</ele>
        <time>2019-05-22T23:29:42Z</time>
      </trkpt>
      <trkpt lat="44.11982" lon="3.21346">
        <ele>411</ele>
        <time>2019-05-22T23:29:45Z</time>
      </trkpt>
      <trkpt lat="44.11991" lon="3.21321">
        <ele>408</ele>
        <time>2019-05-22T23:29:48Z</time>
      </trkpt>
      <trkpt lat="44.12002" lon="3.21304">
        <ele>405</ele>
        <time>2019-05-22T23:29:51Z</time>
      </trkpt>
      <trkpt lat="44.12013" lon="3.21291">
        <ele>406</ele>
        <time>2019-05-22T23:29:54Z</time>
      </trkpt>
      <trkpt lat="44.12049" lon="3.21261">
        <ele>405</ele>
        <time>2019-05-22T23:30:01Z</time>
      </trkpt>
      <trkpt lat="44.12147" lon="3.21196">
        <ele>410</ele>
        <time>2019-05-22T23:30:21Z</time>
      </trkpt>
      <trkpt lat="44.12165" lon="3.21177">
        <ele>406</ele>
        <time>2019-05-22T23:30:25Z</time>
      </trkpt>
      <trkpt lat="44.12179" lon="3.21157">
        <ele>408</ele>
        <time>2019-05-22T23:30:28Z</time>
      </trkpt>
      <trkpt lat="44.12194" lon="3.21122">
        <ele>410</ele>
        <time>2019-05-22T23:30:34Z</time>
      </trkpt>
      <trkpt lat="44.12205" lon="3.21082">
        <ele>408</ele>
        <time>2019-05-22T23:30:39Z</time>
      </trkpt>
      <trkpt lat="44.12204" lon="3.2102">
        <ele>408</ele>
        <time>2019-05-22T23:30:47Z</time>
      </trkpt>
      <trkpt lat="44.12195" lon="3.20888">
        <ele>412</ele>
        <time>2019-05-22T23:31:04Z</time>
      </trkpt>
      <trkpt lat="44.12182" lon="3.20823">
        <ele>410</ele>
        <time>2019-05-22T23:31:12Z</time>
      </trkpt>
      <trkpt lat="44.12145" lon="3.20677">
        <ele>412</ele>
        <time>2019-05-22T23:31:32Z</time>
      </trkpt>
      <trkpt lat="44.1214" lon="3.2064">
        <ele>414</ele>
        <time>2019-05-22T23:31:37Z</time>
      </trkpt>
      <trkpt lat="44.12137" lon="3.20593">
        <ele>417</ele>
        <time>2019-05-22T23:31:43Z</time>
      </trkpt>
      <trkpt lat="44.1214" lon="3.20565">
        <ele>417</ele>
        <time>2019-05-22T23:31:47Z</time>
      </trkpt>
      <trkpt lat="44.12147" lon="3.2054">
        <ele>414</ele>
        <time>2019-05-22T23:31:50Z</time>
      </trkpt>
      <trkpt lat="44.12228" lon="3.20304">
        <ele>415</ele>
        <time>2019-05-22T23:32:24Z</time>
      </trkpt>
      <trkpt lat="44.12234" lon="3.20276">
        <ele>415</ele>
        <time>2019-05-22T23:32:27Z</time>
      </trkpt>
      <trkpt lat="44.12237" lon="3.20244">
        <ele>414</ele>
        <time>2019-05-22T23:32:31Z</time>
      </trkpt>
      <trkpt lat="44.12238" lon="3.20102">
        <ele>415</ele>
        <time>2019-05-22T23:32:50Z</time>
      </trkpt>
      <trkpt lat="44.12249" lon="3.19961">
        <ele>402</ele>
        <time>2019-05-22T23:33:08Z</time>
      </trkpt>
      <trkpt lat="44.12262" lon="3.19832">
        <ele>406</ele>
        <time>2019-05-22T23:33:24Z</time>
      </trkpt>
      <trkpt lat="44.1228" lon="3.19724">
        <ele>415</ele>
        <time>2019-05-22T23:33:38Z</time>
      </trkpt>
      <trkpt lat="44.12267" lon="3.19588">
        <ele>411</ele>
        <time>2019-05-22T23:33:56Z</time>
      </trkpt>
      <trkpt lat="44.12255" lon="3.19528">
        <ele>407</ele>
        <time>2019-05-22T23:34:04Z</time>
      </trkpt>
      <trkpt lat="44.12234" lon="3.19465">
        <ele>411</ele>
        <time>2019-05-22T23:34:13Z</time>
      </trkpt>
      <trkpt lat="44.12208" lon="3.19406">
        <ele>412</ele>
        <time>2019-05-22T23:34:22Z</time>
      </trkpt>
      <trkpt lat="44.12106" lon="3.1923">
        <ele>401</ele>
        <time>2019-05-22T23:34:51Z</time>
      </trkpt>
      <trkpt lat="44.1209" lon="3.19195">
        <ele>399</ele>
        <time>2019-05-22T23:34:56Z</time>
      </trkpt>
      <trkpt lat="44.12083" lon="3.19152">
        <ele>398</ele>
        <time>2019-05-22T23:35:01Z</time>
      </trkpt>
      <trkpt lat="44.12089" lon="3.19108">
        <ele>398</ele>
        <time>2019-05-22T23:35:07Z</time>
      </trkpt>
      <trkpt lat="44.12124" lon="3.19007">
        <ele>406</ele>
        <time>2019-05-22T23:35:22Z</time>
      </trkpt>
      <trkpt lat="44.12136" lon="3.18953">
        <ele>407</ele>
        <time>2019-05-22T23:35:29Z</time>
      </trkpt>
      <trkpt lat="44.12137" lon="3.18916">
        <ele>407</ele>
        <time>2019-05-22T23:35:33Z</time>
      </trkpt>
      <trkpt lat="44.12126" lon="3.18832">
        <ele>410</ele>
        <time>2019-05-22T23:35:44Z</time>
      </trkpt>
      <trkpt lat="44.12105" lon="3.18767">
        <ele>409</ele>
        <time>2019-05-22T23:35:53Z</time>
      </trkpt>
      <trkpt lat="44.12053" lon="3.1866">
        <ele>412</ele>
        <time>2019-05-22T23:36:10Z</time>
      </trkpt>
      <trkpt lat="44.12039" lon="3.18621">
        <ele>413</ele>
        <time>2019-05-22T23:36:16Z</time>
      </trkpt>
      <trkpt lat="44.12019" lon="3.1854">
        <ele>410</ele>
        <time>2019-05-22T23:36:26Z</time>
      </trkpt>
      <trkpt lat="44.12011" lon="3.18499">
        <ele>408</ele>
        <time>2019-05-22T23:36:32Z</time>
      </trkpt>
      <trkpt lat="44.12009" lon="3.18464">
        <ele>408</ele>
        <time>2019-05-22T23:36:36Z</time>
      </trkpt>
      <trkpt lat="44.12005" lon="3.18445">
        <ele>407</ele>
        <time>2019-05-22T23:36:39Z</time>
      </trkpt>
      <trkpt lat="44.11933" lon="3.18282">
        <ele>408</ele>
        <time>2019-05-22T23:37:03Z</time>
      </trkpt>
      <trkpt lat="44.11878" lon="3.18195">
        <ele>403</ele>
        <time>2019-05-22T23:37:18Z</time>
      </trkpt>
      <trkpt lat="44.1183" lon="3.18127">
        <ele>398</ele>
        <time>2019-05-22T23:37:30Z</time>
      </trkpt>
      <trkpt lat="44.11813" lon="3.1809">
        <ele>402</ele>
        <time>2019-05-22T23:37:36Z</time>
      </trkpt>
      <trkpt lat="44.11762" lon="3.17961">
        <ele>402</ele>
        <time>2019-05-22T23:37:55Z</time>
      </trkpt>
      <trkpt lat="44.11728" lon="3.17903">
        <ele>403</ele>
        <time>2019-05-22T23:38:04Z</time>
      </trkpt>
      <trkpt lat="44.11678" lon="3.1786">
        <ele>401</ele>
        <time>2019-05-22T23:38:15Z</time>
      </trkpt>
      <trkpt lat="44.11654" lon="3.17836">
        <ele>399</ele>
        <time>2019-05-22T23:38:20Z</time>
      </trkpt>
      <trkpt lat="44.11562" lon="3.17658">
        <ele>404</ele>
        <time>2019-05-22T23:38:48Z</time>
      </trkpt>
      <trkpt lat="44.11509" lon="3.17532">
        <ele>402</ele>
        <time>2019-05-22T23:39:07Z</time>
      </trkpt>
      <trkpt lat="44.11477" lon="3.17443">
        <ele>413</ele>
        <time>2019-05-22T23:39:19Z</time>
      </trkpt>
      <trkpt lat="44.11471" lon="3.17418">
        <ele>415</ele>
        <time>2019-05-22T23:39:23Z</time>
      </trkpt>
      <trkpt lat="44.11446" lon="3.17269">
        <ele>414</ele>
        <time>2019-05-22T23:39:42Z</time>
      </trkpt>
      <trkpt lat="44.11443" lon="3.17239">
        <ele>411</ele>
        <time>2019-05-22T23:39:46Z</time>
      </trkpt>
      <trkpt lat="44.11445" lon="3.1719">
        <ele>409</ele>
        <time>2019-05-22T23:39:53Z</time>
      </trkpt>
      <trkpt lat="44.11445" lon="3.17143">
        <ele>407</ele>
        <time>2019-05-22T23:39:59Z</time>
      </trkpt>
      <trkpt lat="44.11437" lon="3.16998">
        <ele>400</ele>
        <time>2019-05-22T23:40:17Z</time>
      </trkpt>
      <trkpt lat="44.11413" lon="3.16904">
        <ele>398</ele>
        <time>2019-05-22T23:40:30Z</time>
      </trkpt>
      <trkpt lat="44.11405" lon="3.16883">
        <ele>399</ele>
        <time>2019-05-22T23:40:33Z</time>
      </trkpt>
      <trkpt lat="44.11385" lon="3.16809">
        <ele>400</ele>
        <time>2019-05-22T23:40:43Z</time>
      </trkpt>
      <trkpt lat="44.1134" lon="3.16735">
        <ele>391</ele>
        <time>2019-05-22T23:40:55Z</time>
      </trkpt>
      <trkpt lat="44.11322" lon="3.1672">
        <ele>391</ele>
        <time>2019-05-22T23:40:59Z</time>
      </trkpt>
      <trkpt lat="44.11294" lon="3.16712">
        <ele>391</ele>
        <time>2019-05-22T23:41:04Z</time>
      </trkpt>
      <trkpt lat="44.11261" lon="3.16699">
        <ele>393</ele>
        <time>2019-05-22T23:41:10Z</time>
      </trkpt>
      <trkpt lat="44.11186" lon="3.16648">
        <ele>388</ele>
        <time>2019-05-22T23:41:25Z</time>
      </trkpt>
      <trkpt lat="44.11161" lon="3.16616">
        <ele>388</ele>
        <time>2019-05-22T23:41:31Z</time>
      </trkpt>
      <trkpt lat="44.11139" lon="3.16579">
        <ele>391</ele>
        <time>2019-05-22T23:41:37Z</time>
      </trkpt>
      <trkpt lat="44.11089" lon="3.16513">
        <ele>387</ele>
        <time>2019-05-22T23:41:50Z</time>
      </trkpt>
      <trkpt lat="44.11058" lon="3.16458">
        <ele>390</ele>
        <time>2019-05-22T23:41:59Z</time>
      </trkpt>
      <trkpt lat="44.11008" lon="3.16338">
        <ele>387</ele>
        <time>2019-05-22T23:42:16Z</time>
      </trkpt>
      <trkpt lat="44.10964" lon="3.16246">
        <ele>391</ele>
        <time>2019-05-22T23:42:30Z</time>
      </trkpt>
      <trkpt lat="44.10898" lon="3.16164">
        <ele>388</ele>
        <time>2019-05-22T23:42:46Z</time>
      </trkpt>
      <trkpt lat="44.10852" lon="3.16081">
        <ele>386</ele>
        <time>2019-05-22T23:42:59Z</time>
      </trkpt>
      <trkpt lat="44.10822" lon="3.16016">
        <ele>388</ele>
        <time>2019-05-22T23:43:09Z</time>
      </trkpt>
      <trkpt lat="44.10807" lon="3.15976">
        <ele>389</ele>
        <time>2019-05-22T23:43:15Z</time>
      </trkpt>
      <trkpt lat="44.108" lon="3.15947">
        <ele>389</ele>
        <time>2019-05-22T23:43:19Z</time>
      </trkpt>
      <trkpt lat="44.10798" lon="3.15924">
        <ele>389</ele>
        <time>2019-05-22T23:43:22Z</time>
      </trkpt>
      <trkpt lat="44.10804" lon="3.15893">
        <ele>389</ele>
        <time>2019-05-22T23:43:26Z</time>
      </trkpt>
      <trkpt lat="44.10816" lon="3.15865">
        <ele>389</ele>
        <time>2019-05-22T23:43:30Z</time>
      </trkpt>
      <trkpt lat="44.10827" lon="3.15832">
        <ele>389</ele>
        <time>2019-05-22T23:43:35Z</time>
      </trkpt>
      <trkpt lat="44.10836" lon="3.15782">
        <ele>390</ele>
        <time>2019-05-22T23:43:41Z</time>
      </trkpt>
      <trkpt lat="44.10837" lon="3.15726">
        <ele>390</ele>
        <time>2019-05-22T23:43:49Z</time>
      </trkpt>
      <trkpt lat="44.10833" lon="3.15665">
        <ele>390</ele>
        <time>2019-05-22T23:43:56Z</time>
      </trkpt>
      <trkpt lat="44.10828" lon="3.15623">
        <ele>393</ele>
        <time>2019-05-22T23:44:02Z</time>
      </trkpt>
      <trkpt lat="44.1082" lon="3.15596">
        <ele>394</ele>
        <time>2019-05-22T23:44:06Z</time>
      </trkpt>
      <trkpt lat="44.10805" lon="3.15563">
        <ele>394</ele>
        <time>2019-05-22T23:44:11Z</time>
      </trkpt>
      <trkpt lat="44.10745" lon="3.15449">
        <ele>389</ele>
        <time>2019-05-22T23:44:29Z</time>
      </trkpt>
      <trkpt lat="44.10728" lon="3.15414">
        <ele>392</ele>
        <time>2019-05-22T23:44:34Z</time>
      </trkpt>
      <trkpt lat="44.10632" lon="3.15166">
        <ele>391</ele>
        <time>2019-05-22T23:45:10Z</time>
      </trkpt>
      <trkpt lat="44.10617" lon="3.15117">
        <ele>391</ele>
        <time>2019-05-22T23:45:17Z</time>
      </trkpt>
      <trkpt lat="44.10605" lon="3.15062">
        <ele>389</ele>
        <time>2019-05-22T23:45:24Z</time>
      </trkpt>
      <trkpt lat="44.10596" lon="3.14997">
        <ele>386</ele>
        <time>2019-05-22T23:45:33Z</time>
      </trkpt>
      <trkpt lat="44.10592" lon="3.14939">
        <ele>385</ele>
        <time>2019-05-22T23:45:40Z</time>
      </trkpt>
      <trkpt lat="44.10596" lon="3.14864">
        <ele>384</ele>
        <time>2019-05-22T23:45:50Z</time>
      </trkpt>
      <trkpt lat="44.10604" lon="3.14817">
        <ele>384</ele>
        <time>2019-05-22T23:45:56Z</time>
      </trkpt>
      <trkpt lat="44.10656" lon="3.14625">
        <ele>385</ele>
        <time>2019-05-22T23:46:22Z</time>
      </trkpt>
      <trkpt lat="44.10666" lon="3.14594">
        <ele>384</ele>
        <time>2019-05-22T23:46:26Z</time>
      </trkpt>
      <trkpt lat="44.10787" lon="3.14339">
        <ele>394</ele>
        <time>2019-05-22T23:47:06Z</time>
      </trkpt>
      <trkpt lat="44.10824" lon="3.14268">
        <ele>388</ele>
        <time>2019-05-22T23:47:17Z</time>
      </trkpt>
      <trkpt lat="44.10925" lon="3.14088">
        <ele>396</ele>
        <time>2019-05-22T23:47:46Z</time>
      </trkpt>
      <trkpt lat="44.10936" lon="3.14057">
        <ele>398</ele>
        <time>2019-05-22T23:47:50Z</time>
      </trkpt>
      <trkpt lat="44.10939" lon="3.14044">
        <ele>398</ele>
        <time>2019-05-22T23:47:52Z</time>
      </trkpt>
      <trkpt lat="44.10939" lon="3.14031">
        <ele>396</ele>
        <time>2019-05-22T23:47:54Z</time>
      </trkpt>
      <trkpt lat="44.10937" lon="3.14019">
        <ele>394</ele>
        <time>2019-05-22T23:47:55Z</time>
      </trkpt>
      <trkpt lat="44.10921" lon="3.13976">
        <ele>386</ele>
        <time>2019-05-22T23:48:02Z</time>
      </trkpt>
      <trkpt lat="44.10918" lon="3.13925">
        <ele>387</ele>
        <time>2019-05-22T23:48:08Z</time>
      </trkpt>
      <trkpt lat="44.10915" lon="3.139">
        <ele>388</ele>
        <time>2019-05-22T23:48:11Z</time>
      </trkpt>
      <trkpt lat="44.1091" lon="3.13878">
        <ele>389</ele>
        <time>2019-05-22T23:48:14Z</time>
      </trkpt>
      <trkpt lat="44.109" lon="3.13852">
        <ele>390</ele>
        <time>2019-05-22T23:48:18Z</time>
      </trkpt>
      <trkpt lat="44.10894" lon="3.13841">
        <ele>390</ele>
        <time>2019-05-22T23:48:20Z</time>
      </trkpt>
      <trkpt lat="44.10881" lon="3.13829">
        <ele>389</ele>
        <time>2019-05-22T23:48:23Z</time>
      </trkpt>
      <trkpt lat="44.10871" lon="3.13825">
        <ele>388</ele>
        <time>2019-05-22T23:48:24Z</time>
      </trkpt>
      <trkpt lat="44.10826" lon="3.13813">
        <ele>382</ele>
        <time>2019-05-22T23:48:33Z</time>
      </trkpt>
      <trkpt lat="44.10817" lon="3.13809">
        <ele>381</ele>
        <time>2019-05-22T23:48:34Z</time>
      </trkpt>
      <trkpt lat="44.10808" lon="3.13802">
        <ele>381</ele>
        <time>2019-05-22T23:48:36Z</time>
      </trkpt>
      <trkpt lat="44.108" lon="3.13788">
        <ele>380</ele>
        <time>2019-05-22T23:48:38Z</time>
      </trkpt>
      <trkpt lat="44.10792" lon="3.13764">
        <ele>380</ele>
        <time>2019-05-22T23:48:42Z</time>
      </trkpt>
      <trkpt lat="44.10792" lon="3.1375">
        <ele>380</ele>
        <time>2019-05-22T23:48:44Z</time>
      </trkpt>
      <trkpt lat="44.10798" lon="3.13724">
        <ele>380</ele>
        <time>2019-05-22T23:48:47Z</time>
      </trkpt>
      <trkpt lat="44.10808" lon="3.13703">
        <ele>380</ele>
        <time>2019-05-22T23:48:50Z</time>
      </trkpt>
      <trkpt lat="44.10857" lon="3.13617">
        <ele>381</ele>
        <time>2019-05-22T23:49:04Z</time>
      </trkpt>
      <trkpt lat="44.10884" lon="3.13562">
        <ele>384</ele>
        <time>2019-05-22T23:49:13Z</time>
      </trkpt>
      <trkpt lat="44.10961" lon="3.13364">
        <ele>393</ele>
        <time>2019-05-22T23:49:42Z</time>
      </trkpt>
      <trkpt lat="44.10967" lon="3.13332">
        <ele>394</ele>
        <time>2019-05-22T23:49:46Z</time>
      </trkpt>
      <trkpt lat="44.10967" lon="3.1329">
        <ele>396</ele>
        <time>2019-05-22T23:49:51Z</time>
      </trkpt>
      <trkpt lat="44.10951" lon="3.13155">
        <ele>394</ele>
        <time>2019-05-22T23:50:09Z</time>
      </trkpt>
      <trkpt lat="44.1094" lon="3.13097">
        <ele>392</ele>
        <time>2019-05-22T23:50:16Z</time>
      </trkpt>
      <trkpt lat="44.10925" lon="3.13048">
        <ele>391</ele>
        <time>2019-05-22T23:50:23Z</time>
      </trkpt>
      <trkpt lat="44.10908" lon="3.13">
        <ele>392</ele>
        <time>2019-05-22T23:50:30Z</time>
      </trkpt>
      <trkpt lat="44.10888" lon="3.12959">
        <ele>397</ele>
        <time>2019-05-22T23:50:36Z</time>
      </trkpt>
      <trkpt lat="44.10844" lon="3.1289">
        <ele>393</ele>
        <time>2019-05-22T23:50:48Z</time>
      </trkpt>
      <trkpt lat="44.10823" lon="3.12871">
        <ele>393</ele>
        <time>2019-05-22T23:50:52Z</time>
      </trkpt>
      <trkpt lat="44.10809" lon="3.12863">
        <ele>393</ele>
        <time>2019-05-22T23:50:55Z</time>
      </trkpt>
      <trkpt lat="44.10793" lon="3.12858">
        <ele>392</ele>
        <time>2019-05-22T23:50:58Z</time>
      </trkpt>
      <trkpt lat="44.10759" lon="3.1285">
        <ele>389</ele>
        <time>2019-05-22T23:51:04Z</time>
      </trkpt>
      <trkpt lat="44.10688" lon="3.12843">
        <ele>386</ele>
        <time>2019-05-22T23:51:17Z</time>
      </trkpt>
      <trkpt lat="44.10631" lon="3.12844">
        <ele>388</ele>
        <time>2019-05-22T23:51:27Z</time>
      </trkpt>
      <trkpt lat="44.10511" lon="3.12882">
        <ele>386</ele>
        <time>2019-05-22T23:51:49Z</time>
      </trkpt>
      <trkpt lat="44.10452" lon="3.12911">
        <ele>379</ele>
        <time>2019-05-22T23:52:00Z</time>
      </trkpt>
      <trkpt lat="44.10356" lon="3.12964">
        <ele>375</ele>
        <time>2019-05-22T23:52:18Z</time>
      </trkpt>
      <trkpt lat="44.10327" lon="3.12969">
        <ele>375</ele>
        <time>2019-05-22T23:52:24Z</time>
      </trkpt>
      <trkpt lat="44.103" lon="3.12963">
        <ele>374</ele>
        <time>2019-05-22T23:52:28Z</time>
      </trkpt>
      <trkpt lat="44.10283" lon="3.12956">
        <ele>374</ele>
        <time>2019-05-22T23:52:32Z</time>
      </trkpt>
      <trkpt lat="44.10267" lon="3.12946">
        <ele>373</ele>
        <time>2019-05-22T23:52:35Z</time>
      </trkpt>
      <trkpt lat="44.10236" lon="3.12919">
        <ele>372</ele>
        <time>2019-05-22T23:52:41Z</time>
      </trkpt>
      <trkpt lat="44.10231" lon="3.12913">
        <ele>372</ele>
        <time>2019-05-22T23:52:42Z</time>
      </trkpt>
      <trkpt lat="44.10217" lon="3.1289">
        <ele>374</ele>
        <time>2019-05-22T23:52:46Z</time>
      </trkpt>
      <trkpt lat="44.10203" lon="3.12851">
        <ele>374</ele>
        <time>2019-05-22T23:52:52Z</time>
      </trkpt>
      <trkpt lat="44.10193" lon="3.12805">
        <ele>372</ele>
        <time>2019-05-22T23:52:58Z</time>
      </trkpt>
      <trkpt lat="44.10179" lon="3.12709">
        <ele>367</ele>
        <time>2019-05-22T23:53:11Z</time>
      </trkpt>
      <trkpt lat="44.10145" lon="3.12511">
        <ele>364</ele>
        <time>2019-05-22T23:53:37Z</time>
      </trkpt>
      <trkpt lat="44.10136" lon="3.12446">
        <ele>364</ele>
        <time>2019-05-22T23:53:45Z</time>
      </trkpt>
      <trkpt lat="44.10116" lon="3.12354">
        <ele>366</ele>
        <time>2019-05-22T23:53:57Z</time>
      </trkpt>
      <trkpt lat="44.10119" lon="3.12274">
        <ele>366</ele>
        <time>2019-05-22T23:54:08Z</time>
      </trkpt>
      <trkpt lat="44.10114" lon="3.12111">
        <ele>366</ele>
        <time>2019-05-22T23:54:28Z</time>
      </trkpt>
      <trkpt lat="44.10115" lon="3.12028">
        <ele>365</ele>
        <time>2019-05-22T23:54:39Z</time>
      </trkpt>
      <trkpt lat="44.10127" lon="3.11799">
        <ele>365</ele>
        <time>2019-05-22T23:55:08Z</time>
      </trkpt>
      <trkpt lat="44.10131" lon="3.11734">
        <ele>367</ele>
        <time>2019-05-22T23:55:17Z</time>
      </trkpt>
      <trkpt lat="44.10135" lon="3.11713">
        <ele>368</ele>
        <time>2019-05-22T23:55:19Z</time>
      </trkpt>
      <trkpt lat="44.10144" lon="3.11682">
        <ele>370</ele>
        <time>2019-05-22T23:55:24Z</time>
      </trkpt>
      <trkpt lat="44.10153" lon="3.11641">
        <ele>372</ele>
        <time>2019-05-22T23:55:29Z</time>
      </trkpt>
      <trkpt lat="44.10156" lon="3.11625">
        <ele>374</ele>
        <time>2019-05-22T23:55:31Z</time>
      </trkpt>
      <trkpt lat="44.10156" lon="3.11611">
        <ele>374</ele>
        <time>2019-05-22T23:55:33Z</time>
      </trkpt>
      <trkpt lat="44.10152" lon="3.11596">
        <ele>375</ele>
        <time>2019-05-22T23:55:35Z</time>
      </trkpt>
      <trkpt lat="44.10144" lon="3.11574">
        <ele>375</ele>
        <time>2019-05-22T23:55:38Z</time>
      </trkpt>
      <trkpt lat="44.10114" lon="3.11514">
        <ele>375</ele>
        <time>2019-05-22T23:55:48Z</time>
      </trkpt>
      <trkpt lat="44.10092" lon="3.11482">
        <ele>373</ele>
        <time>2019-05-22T23:55:53Z</time>
      </trkpt>
      <trkpt lat="44.10043" lon="3.11427">
        <ele>369</ele>
        <time>2019-05-22T23:56:04Z</time>
      </trkpt>
      <trkpt lat="44.10025" lon="3.11393">
        <ele>368</ele>
        <time>2019-05-22T23:56:10Z</time>
      </trkpt>
      <trkpt lat="44.10014" lon="3.11344">
        <ele>368</ele>
        <time>2019-05-22T23:56:16Z</time>
      </trkpt>
      <trkpt lat="44.10001" lon="3.1127">
        <ele>367</ele>
        <time>2019-05-22T23:56:26Z</time>
      </trkpt>
      <trkpt lat="44.1" lon="3.11244">
        <ele>368</ele>
        <time>2019-05-22T23:56:29Z</time>
      </trkpt>
      <trkpt lat="44.10002" lon="3.1121">
        <ele>369</ele>
        <time>2019-05-22T23:56:34Z</time>
      </trkpt>
      <trkpt lat="44.1001" lon="3.11175">
        <ele>371</ele>
        <time>2019-05-22T23:56:39Z</time>
      </trkpt>
      <trkpt lat="44.10021" lon="3.11115">
        <ele>370</ele>
        <time>2019-05-22T23:56:46Z</time>
      </trkpt>
      <trkpt lat="44.10022" lon="3.11096">
        <ele>368</ele>
        <time>2019-05-22T23:56:49Z</time>
      </trkpt>
      <trkpt lat="44.09997" lon="3.11096">
        <ele>365</ele>
        <time>2019-05-22T23:56:53Z</time>
      </trkpt>
      <trkpt lat="44.09985" lon="3.11099">
        <ele>364</ele>
        <time>2019-05-22T23:56:56Z</time>
      </trkpt>
      <trkpt lat="44.09945" lon="3.11096">
        <ele>363</ele>
        <time>2019-05-22T23:57:03Z</time>
      </trkpt>
      <trkpt lat="44.09945" lon="3.11073">
        <ele>362</ele>
        <time>2019-05-22T23:57:06Z</time>
      </trkpt>
      <trkpt lat="44.09945" lon="3.11073">
        <ele>362</ele>
        <time>2019-05-22T23:57:06Z</time>
      </trkpt>
      <trkpt lat="44.09945" lon="3.11096">
        <ele>363</ele>
        <time>2019-05-22T23:57:09Z</time>
      </trkpt>
      <trkpt lat="44.09985" lon="3.11099">
        <ele>364</ele>
        <time>2019-05-22T23:57:16Z</time>
      </trkpt>
      <trkpt lat="44.09997" lon="3.11096">
        <ele>365</ele>
        <time>2019-05-22T23:57:18Z</time>
      </trkpt>
      <trkpt lat="44.10022" lon="3.11096">
        <ele>368</ele>
        <time>2019-05-22T23:57:22Z</time>
      </trkpt>
      <trkpt lat="44.10052" lon="3.10653">
        <ele>367</ele>
        <time>2019-05-22T23:58:19Z</time>
      </trkpt>
      <trkpt lat="44.10063" lon="3.10448">
        <ele>363</ele>
        <time>2019-05-22T23:58:45Z</time>
      </trkpt>
      <trkpt lat="44.10073" lon="3.10364">
        <ele>364</ele>
        <time>2019-05-22T23:58:56Z</time>
      </trkpt>
      <trkpt lat="44.10083" lon="3.10193">
        <ele>362</ele>
        <time>2019-05-22T23:59:18Z</time>
      </trkpt>
      <trkpt lat="44.10092" lon="3.10073">
        <ele>363</ele>
        <time>2019-05-22T23:59:34Z</time>
      </trkpt>
      <trkpt lat="44.10092" lon="3.10043">
        <ele>363</ele>
        <time>2019-05-22T23:59:37Z</time>
      </trkpt>
      <trkpt lat="44.10096" lon="3.10015">
        <ele>364</ele>
        <time>2019-05-22T23:59:41Z</time>
      </trkpt>
      <trkpt lat="44.10107" lon="3.09833">
        <ele>367</ele>
        <time>2019-05-23T00:00:04Z</time>
      </trkpt>
      <trkpt lat="44.10112" lon="3.09781">
        <ele>366</ele>
        <time>2019-05-23T00:00:11Z</time>
      </trkpt>
      <trkpt lat="44.10118" lon="3.09743">
        <ele>366</ele>
        <time>2019-05-23T00:00:16Z</time>
      </trkpt>
      <trkpt lat="44.10143" lon="3.09642">
        <ele>365</ele>
        <time>2019-05-23T00:00:30Z</time>
      </trkpt>
      <trkpt lat="44.10148" lon="3.09628">
        <ele>365</ele>
        <time>2019-05-23T00:00:32Z</time>
      </trkpt>
      <trkpt lat="44.10154" lon="3.09622">
        <ele>365</ele>
        <time>2019-05-23T00:00:33Z</time>
      </trkpt>
      <trkpt lat="44.10155" lon="3.09604">
        <ele>365</ele>
        <time>2019-05-23T00:00:35Z</time>
      </trkpt>
      <trkpt lat="44.10158" lon="3.0959">
        <ele>365</ele>
        <time>2019-05-23T00:00:37Z</time>
      </trkpt>
      <trkpt lat="44.10165" lon="3.09572">
        <ele>365</ele>
        <time>2019-05-23T00:00:40Z</time>
      </trkpt>
      <trkpt lat="44.1018" lon="3.0952">
        <ele>367</ele>
        <time>2019-05-23T00:00:47Z</time>
      </trkpt>
      <trkpt lat="44.10186" lon="3.09486">
        <ele>367</ele>
        <time>2019-05-23T00:00:51Z</time>
      </trkpt>
      <trkpt lat="44.10201" lon="3.09317">
        <ele>363</ele>
        <time>2019-05-23T00:01:13Z</time>
      </trkpt>
      <trkpt lat="44.10205" lon="3.0926">
        <ele>362</ele>
        <time>2019-05-23T00:01:21Z</time>
      </trkpt>
      <trkpt lat="44.10208" lon="3.09243">
        <ele>361</ele>
        <time>2019-05-23T00:01:23Z</time>
      </trkpt>
      <trkpt lat="44.10211" lon="3.09235">
        <ele>361</ele>
        <time>2019-05-23T00:01:24Z</time>
      </trkpt>
      <trkpt lat="44.10226" lon="3.09215">
        <ele>361</ele>
        <time>2019-05-23T00:01:28Z</time>
      </trkpt>
      <trkpt lat="44.10244" lon="3.09194">
        <ele>360</ele>
        <time>2019-05-23T00:01:32Z</time>
      </trkpt>
      <trkpt lat="44.10254" lon="3.09177">
        <ele>361</ele>
        <time>2019-05-23T00:01:35Z</time>
      </trkpt>
      <trkpt lat="44.10267" lon="3.09147">
        <ele>362</ele>
        <time>2019-05-23T00:01:39Z</time>
      </trkpt>
      <trkpt lat="44.10317" lon="3.09039">
        <ele>361</ele>
        <time>2019-05-23T00:01:56Z</time>
      </trkpt>
      <trkpt lat="44.10322" lon="3.09022">
        <ele>361</ele>
        <time>2019-05-23T00:01:58Z</time>
      </trkpt>
      <trkpt lat="44.10325" lon="3.0899">
        <ele>361</ele>
        <time>2019-05-23T00:02:02Z</time>
      </trkpt>
      <trkpt lat="44.10326" lon="3.08971">
        <ele>360</ele>
        <time>2019-05-23T00:02:04Z</time>
      </trkpt>
      <trkpt lat="44.10323" lon="3.08948">
        <ele>360</ele>
        <time>2019-05-23T00:02:07Z</time>
      </trkpt>
      <trkpt lat="44.10324" lon="3.08932">
        <ele>359</ele>
        <time>2019-05-23T00:02:09Z</time>
      </trkpt>
      <trkpt lat="44.10329" lon="3.08923">
        <ele>359</ele>
        <time>2019-05-23T00:02:11Z</time>
      </trkpt>
      <trkpt lat="44.10335" lon="3.08923">
        <ele>359</ele>
        <time>2019-05-23T00:02:12Z</time>
      </trkpt>
      <trkpt lat="44.10341" lon="3.0892">
        <ele>359</ele>
        <time>2019-05-23T00:02:13Z</time>
      </trkpt>
      <trkpt lat="44.10347" lon="3.08914">
        <ele>359</ele>
        <time>2019-05-23T00:02:14Z</time>
      </trkpt>
      <trkpt lat="44.10351" lon="3.08906">
        <ele>359</ele>
        <time>2019-05-23T00:02:16Z</time>
      </trkpt>
      <trkpt lat="44.10354" lon="3.08894">
        <ele>359</ele>
        <time>2019-05-23T00:02:17Z</time>
      </trkpt>
      <trkpt lat="44.10351" lon="3.08877">
        <ele>358</ele>
        <time>2019-05-23T00:02:20Z</time>
      </trkpt>
      <trkpt lat="44.10353" lon="3.08872">
        <ele>358</ele>
        <time>2019-05-23T00:02:20Z</time>
      </trkpt>
      <trkpt lat="44.1036" lon="3.08866">
        <ele>358</ele>
        <time>2019-05-23T00:02:22Z</time>
      </trkpt>
      <trkpt lat="44.10374" lon="3.08862">
        <ele>358</ele>
        <time>2019-05-23T00:02:24Z</time>
      </trkpt>
      <trkpt lat="44.10396" lon="3.08864">
        <ele>358</ele>
        <time>2019-05-23T00:02:28Z</time>
      </trkpt>
      <trkpt lat="44.10471" lon="3.08865">
        <ele>359</ele>
        <time>2019-05-23T00:02:42Z</time>
      </trkpt>
      <trkpt lat="44.10491" lon="3.08861">
        <ele>359</ele>
        <time>2019-05-23T00:02:45Z</time>
      </trkpt>
      <trkpt lat="44.10557" lon="3.08837">
        <ele>360</ele>
        <time>2019-05-23T00:02:57Z</time>
      </trkpt>
      <trkpt lat="44.10592" lon="3.08818">
        <ele>360</ele>
        <time>2019-05-23T00:03:04Z</time>
      </trkpt>
      <trkpt lat="44.10626" lon="3.08805">
        <ele>361</ele>
        <time>2019-05-23T00:03:10Z</time>
      </trkpt>
      <trkpt lat="44.10669" lon="3.08793">
        <ele>363</ele>
        <time>2019-05-23T00:03:18Z</time>
      </trkpt>
      <trkpt lat="44.1071" lon="3.08788">
        <ele>365</ele>
        <time>2019-05-23T00:03:25Z</time>
      </trkpt>
      <trkpt lat="44.10811" lon="3.08783">
        <ele>367</ele>
        <time>2019-05-23T00:03:43Z</time>
      </trkpt>
      <trkpt lat="44.10885" lon="3.0877">
        <ele>365</ele>
        <time>2019-05-23T00:03:57Z</time>
      </trkpt>
      <trkpt lat="44.10946" lon="3.08753">
        <ele>362</ele>
        <time>2019-05-23T00:04:08Z</time>
      </trkpt>
      <trkpt lat="44.1101" lon="3.08729">
        <ele>361</ele>
        <time>2019-05-23T00:04:19Z</time>
      </trkpt>
      <trkpt lat="44.11052" lon="3.08707">
        <ele>361</ele>
        <time>2019-05-23T00:04:27Z</time>
      </trkpt>
      <trkpt lat="44.11132" lon="3.08651">
        <ele>359</ele>
        <time>2019-05-23T00:04:43Z</time>
      </trkpt>
      <trkpt lat="44.11147" lon="3.08641">
        <ele>359</ele>
        <time>2019-05-23T00:04:46Z</time>
      </trkpt>
      <trkpt lat="44.11172" lon="3.08631">
        <ele>359</ele>
        <time>2019-05-23T00:04:51Z</time>
      </trkpt>
      <trkpt lat="44.11248" lon="3.08629">
        <ele>359</ele>
        <time>2019-05-23T00:05:04Z</time>
      </trkpt>
      <trkpt lat="44.11306" lon="3.08631">
        <ele>359</ele>
        <time>2019-05-23T00:05:15Z</time>
      </trkpt>
      <trkpt lat="44.11335" lon="3.08638">
        <ele>359</ele>
        <time>2019-05-23T00:05:20Z</time>
      </trkpt>
      <trkpt lat="44.11382" lon="3.08659">
        <ele>360</ele>
        <time>2019-05-23T00:05:29Z</time>
      </trkpt>
      <trkpt lat="44.11446" lon="3.08676">
        <ele>360</ele>
        <time>2019-05-23T00:05:40Z</time>
      </trkpt>
      <trkpt lat="44.11537" lon="3.08726">
        <ele>361</ele>
        <time>2019-05-23T00:05:58Z</time>
      </trkpt>
      <trkpt lat="44.1169" lon="3.0882">
        <ele>362</ele>
        <time>2019-05-23T00:06:28Z</time>
      </trkpt>
      <trkpt lat="44.1174" lon="3.08859">
        <ele>363</ele>
        <time>2019-05-23T00:06:38Z</time>
      </trkpt>
      <trkpt lat="44.11772" lon="3.08895">
        <ele>363</ele>
        <time>2019-05-23T00:06:45Z</time>
      </trkpt>
      <trkpt lat="44.11897" lon="3.09056">
        <ele>364</ele>
        <time>2019-05-23T00:07:15Z</time>
      </trkpt>
      <trkpt lat="44.11949" lon="3.09128">
        <ele>366</ele>
        <time>2019-05-23T00:07:28Z</time>
      </trkpt>
      <trkpt lat="44.11972" lon="3.09163">
        <ele>367</ele>
        <time>2019-05-23T00:07:35Z</time>
      </trkpt>
      <trkpt lat="44.11998" lon="3.09207">
        <ele>370</ele>
        <time>2019-05-23T00:07:42Z</time>
      </trkpt>
      <trkpt lat="44.12047" lon="3.09299">
        <ele>371</ele>
        <time>2019-05-23T00:07:56Z</time>
      </trkpt>
      <trkpt lat="44.12107" lon="3.09396">
        <ele>368</ele>
        <time>2019-05-23T00:08:13Z</time>
      </trkpt>
      <trkpt lat="44.12165" lon="3.09501">
        <ele>366</ele>
        <time>2019-05-23T00:08:30Z</time>
      </trkpt>
      <trkpt lat="44.12314" lon="3.09689">
        <ele>370</ele>
        <time>2019-05-23T00:09:05Z</time>
      </trkpt>
      <trkpt lat="44.12365" lon="3.09773">
        <ele>370</ele>
        <time>2019-05-23T00:09:20Z</time>
      </trkpt>
      <trkpt lat="44.12395" lon="3.09871">
        <ele>373</ele>
        <time>2019-05-23T00:09:33Z</time>
      </trkpt>
      <trkpt lat="44.12417" lon="3.09935">
        <ele>375</ele>
        <time>2019-05-23T00:09:42Z</time>
      </trkpt>
      <trkpt lat="44.12439" lon="3.09977">
        <ele>377</ele>
        <time>2019-05-23T00:09:49Z</time>
      </trkpt>
      <trkpt lat="44.1247" lon="3.10012">
        <ele>376</ele>
        <time>2019-05-23T00:09:56Z</time>
      </trkpt>
      <trkpt lat="44.1252" lon="3.1004">
        <ele>374</ele>
        <time>2019-05-23T00:10:06Z</time>
      </trkpt>
      <trkpt lat="44.12584" lon="3.10056">
        <ele>371</ele>
        <time>2019-05-23T00:10:17Z</time>
      </trkpt>
      <trkpt lat="44.12651" lon="3.10059">
        <ele>371</ele>
        <time>2019-05-23T00:10:29Z</time>
      </trkpt>
      <trkpt lat="44.12749" lon="3.1005">
        <ele>372</ele>
        <time>2019-05-23T00:10:46Z</time>
      </trkpt>
      <trkpt lat="44.12914" lon="3.10006">
        <ele>373</ele>
        <time>2019-05-23T00:11:16Z</time>
      </trkpt>
      <trkpt lat="44.13003" lon="3.09979">
        <ele>370</ele>
        <time>2019-05-23T00:11:33Z</time>
      </trkpt>
      <trkpt lat="44.13137" lon="3.09995">
        <ele>370</ele>
        <time>2019-05-23T00:11:57Z</time>
      </trkpt>
      <trkpt lat="44.13176" lon="3.10004">
        <ele>370</ele>
        <time>2019-05-23T00:12:04Z</time>
      </trkpt>
      <trkpt lat="44.13254" lon="3.1004">
        <ele>371</ele>
        <time>2019-05-23T00:12:18Z</time>
      </trkpt>
      <trkpt lat="44.13299" lon="3.10073">
        <ele>372</ele>
        <time>2019-05-23T00:12:27Z</time>
      </trkpt>
      <trkpt lat="44.13337" lon="3.10109">
        <ele>375</ele>
        <time>2019-05-23T00:12:35Z</time>
      </trkpt>
      <trkpt lat="44.13418" lon="3.10142">
        <ele>375</ele>
        <time>2019-05-23T00:12:50Z</time>
      </trkpt>
      <trkpt lat="44.13457" lon="3.10145">
        <ele>372</ele>
        <time>2019-05-23T00:12:57Z</time>
      </trkpt>
      <trkpt lat="44.13511" lon="3.10144">
        <ele>368</ele>
        <time>2019-05-23T00:13:07Z</time>
      </trkpt>
      <trkpt lat="44.13586" lon="3.10148">
        <ele>370</ele>
        <time>2019-05-23T00:13:20Z</time>
      </trkpt>
      <trkpt lat="44.1368" lon="3.1016">
        <ele>371</ele>
        <time>2019-05-23T00:13:37Z</time>
      </trkpt>
      <trkpt lat="44.13708" lon="3.10165">
        <ele>371</ele>
        <time>2019-05-23T00:13:42Z</time>
      </trkpt>
      <trkpt lat="44.13736" lon="3.10174">
        <ele>371</ele>
        <time>2019-05-23T00:13:47Z</time>
      </trkpt>
      <trkpt lat="44.13757" lon="3.10184">
        <ele>372</ele>
        <time>2019-05-23T00:13:51Z</time>
      </trkpt>
      <trkpt lat="44.1382" lon="3.10222">
        <ele>373</ele>
        <time>2019-05-23T00:14:03Z</time>
      </trkpt>
      <trkpt lat="44.13843" lon="3.10234">
        <ele>373</ele>
        <time>2019-05-23T00:14:08Z</time>
      </trkpt>
      <trkpt lat="44.13891" lon="3.1025">
        <ele>372</ele>
        <time>2019-05-23T00:14:17Z</time>
      </trkpt>
      <trkpt lat="44.13967" lon="3.10302">
        <ele>377</ele>
        <time>2019-05-23T00:14:32Z</time>
      </trkpt>
      <trkpt lat="44.13998" lon="3.10312">
        <ele>377</ele>
        <time>2019-05-23T00:14:37Z</time>
      </trkpt>
      <trkpt lat="44.14038" lon="3.10322">
        <ele>380</ele>
        <time>2019-05-23T00:14:45Z</time>
      </trkpt>
      <trkpt lat="44.14067" lon="3.10324">
        <ele>381</ele>
        <time>2019-05-23T00:14:50Z</time>
      </trkpt>
      <trkpt lat="44.141" lon="3.1032">
        <ele>381</ele>
        <time>2019-05-23T00:14:56Z</time>
      </trkpt>
      <trkpt lat="44.14188" lon="3.103">
        <ele>380</ele>
        <time>2019-05-23T00:15:11Z</time>
      </trkpt>
      <trkpt lat="44.14197" lon="3.103">
        <ele>380</ele>
        <time>2019-05-23T00:15:13Z</time>
      </trkpt>
      <trkpt lat="44.1425" lon="3.10318">
        <ele>381</ele>
        <time>2019-05-23T00:15:23Z</time>
      </trkpt>
      <trkpt lat="44.14272" lon="3.10333">
        <ele>381</ele>
        <time>2019-05-23T00:15:27Z</time>
      </trkpt>
      <trkpt lat="44.14314" lon="3.10377">
        <ele>386</ele>
        <time>2019-05-23T00:15:36Z</time>
      </trkpt>
      <trkpt lat="44.14326" lon="3.10385">
        <ele>388</ele>
        <time>2019-05-23T00:15:39Z</time>
      </trkpt>
      <trkpt lat="44.14349" lon="3.10391">
        <ele>389</ele>
        <time>2019-05-23T00:15:43Z</time>
      </trkpt>
      <trkpt lat="44.14386" lon="3.10392">
        <ele>389</ele>
        <time>2019-05-23T00:15:50Z</time>
      </trkpt>
      <trkpt lat="44.1443" lon="3.10389">
        <ele>388</ele>
        <time>2019-05-23T00:15:57Z</time>
      </trkpt>
      <trkpt lat="44.14475" lon="3.10378">
        <ele>387</ele>
        <time>2019-05-23T00:16:06Z</time>
      </trkpt>
      <trkpt lat="44.14499" lon="3.10366">
        <ele>385</ele>
        <time>2019-05-23T00:16:10Z</time>
      </trkpt>
      <trkpt lat="44.14517" lon="3.10347">
        <ele>383</ele>
        <time>2019-05-23T00:16:14Z</time>
      </trkpt>
      <trkpt lat="44.14561" lon="3.10294">
        <ele>379</ele>
        <time>2019-05-23T00:16:24Z</time>
      </trkpt>
      <trkpt lat="44.14576" lon="3.10286">
        <ele>379</ele>
        <time>2019-05-23T00:16:27Z</time>
      </trkpt>
      <trkpt lat="44.14595" lon="3.10283">
        <ele>378</ele>
        <time>2019-05-23T00:16:31Z</time>
      </trkpt>
      <trkpt lat="44.14618" lon="3.10287">
        <ele>378</ele>
        <time>2019-05-23T00:16:35Z</time>
      </trkpt>
      <trkpt lat="44.14669" lon="3.10304">
        <ele>380</ele>
        <time>2019-05-23T00:16:44Z</time>
      </trkpt>
      <trkpt lat="44.14697" lon="3.10321">
        <ele>382</ele>
        <time>2019-05-23T00:16:50Z</time>
      </trkpt>
      <trkpt lat="44.14721" lon="3.10331">
        <ele>383</ele>
        <time>2019-05-23T00:16:54Z</time>
      </trkpt>
      <trkpt lat="44.14747" lon="3.10333">
        <ele>382</ele>
        <time>2019-05-23T00:16:59Z</time>
      </trkpt>
      <trkpt lat="44.14817" lon="3.10309">
        <ele>382</ele>
        <time>2019-05-23T00:17:12Z</time>
      </trkpt>
      <trkpt lat="44.14888" lon="3.10295">
        <ele>384</ele>
        <time>2019-05-23T00:17:24Z</time>
      </trkpt>
      <trkpt lat="44.14914" lon="3.10283">
        <ele>384</ele>
        <time>2019-05-23T00:17:29Z</time>
      </trkpt>
      <trkpt lat="44.14965" lon="3.10254">
        <ele>383</ele>
        <time>2019-05-23T00:17:39Z</time>
      </trkpt>
      <trkpt lat="44.15009" lon="3.10242">
        <ele>384</ele>
        <time>2019-05-23T00:17:47Z</time>
      </trkpt>
      <trkpt lat="44.15033" lon="3.10241">
        <ele>383</ele>
        <time>2019-05-23T00:17:51Z</time>
      </trkpt>
      <trkpt lat="44.15043" lon="3.10243">
        <ele>384</ele>
        <time>2019-05-23T00:17:53Z</time>
      </trkpt>
      <trkpt lat="44.15076" lon="3.10264">
        <ele>388</ele>
        <time>2019-05-23T00:17:59Z</time>
      </trkpt>
      <trkpt lat="44.15095" lon="3.10274">
        <ele>390</ele>
        <time>2019-05-23T00:18:03Z</time>
      </trkpt>
      <trkpt lat="44.15114" lon="3.10262">
        <ele>389</ele>
        <time>2019-05-23T00:18:07Z</time>
      </trkpt>
      <trkpt lat="44.15116" lon="3.1025">
        <ele>387</ele>
        <time>2019-05-23T00:18:08Z</time>
      </trkpt>
      <trkpt lat="44.15113" lon="3.10243">
        <ele>385</ele>
        <time>2019-05-23T00:18:09Z</time>
      </trkpt>
      <trkpt lat="44.15079" lon="3.10234">
        <ele>382</ele>
        <time>2019-05-23T00:18:16Z</time>
      </trkpt>
      <trkpt lat="44.14949" lon="3.10187">
        <ele>373</ele>
        <time>2019-05-23T00:18:39Z</time>
      </trkpt>
      <trkpt lat="44.14939" lon="3.10172">
        <ele>370</ele>
        <time>2019-05-23T00:18:42Z</time>
      </trkpt>
      <trkpt lat="44.14932" lon="3.10154">
        <ele>369</ele>
        <time>2019-05-23T00:18:45Z</time>
      </trkpt>
      <trkpt lat="44.14931" lon="3.10071">
        <ele>367</ele>
        <time>2019-05-23T00:18:55Z</time>
      </trkpt>
      <trkpt lat="44.14928" lon="3.10059">
        <ele>367</ele>
        <time>2019-05-23T00:18:57Z</time>
      </trkpt>
      <trkpt lat="44.14922" lon="3.10049">
        <ele>367</ele>
        <time>2019-05-23T00:18:59Z</time>
      </trkpt>
      <trkpt lat="44.14874" lon="3.10054">
        <ele>367</ele>
        <time>2019-05-23T00:19:07Z</time>
      </trkpt>
      <trkpt lat="44.14858" lon="3.10044">
        <ele>366</ele>
        <time>2019-05-23T00:19:10Z</time>
      </trkpt>
      <trkpt lat="44.14851" lon="3.10022">
        <ele>366</ele>
        <time>2019-05-23T00:19:13Z</time>
      </trkpt>
      <trkpt lat="44.14855" lon="3.09982">
        <ele>366</ele>
        <time>2019-05-23T00:19:18Z</time>
      </trkpt>
      <trkpt lat="44.14866" lon="3.09946">
        <ele>368</ele>
        <time>2019-05-23T00:19:23Z</time>
      </trkpt>
      <trkpt lat="44.14876" lon="3.09931">
        <ele>369</ele>
        <time>2019-05-23T00:19:26Z</time>
      </trkpt>
      <trkpt lat="44.14888" lon="3.09924">
        <ele>370</ele>
        <time>2019-05-23T00:19:28Z</time>
      </trkpt>
      <trkpt lat="44.14933" lon="3.09925">
        <ele>370</ele>
        <time>2019-05-23T00:19:36Z</time>
      </trkpt>
      <trkpt lat="44.1497" lon="3.0993">
        <ele>370</ele>
        <time>2019-05-23T00:19:43Z</time>
      </trkpt>
      <trkpt lat="44.14999" lon="3.09926">
        <ele>370</ele>
        <time>2019-05-23T00:19:48Z</time>
      </trkpt>
      <trkpt lat="44.15086" lon="3.09901">
        <ele>371</ele>
        <time>2019-05-23T00:20:04Z</time>
      </trkpt>
      <trkpt lat="44.15119" lon="3.09884">
        <ele>371</ele>
        <time>2019-05-23T00:20:10Z</time>
      </trkpt>
      <trkpt lat="44.15183" lon="3.09846">
        <ele>371</ele>
        <time>2019-05-23T00:20:23Z</time>
      </trkpt>
      <trkpt lat="44.15309" lon="3.09804">
        <ele>373</ele>
        <time>2019-05-23T00:20:46Z</time>
      </trkpt>
      <trkpt lat="44.15325" lon="3.09793">
        <ele>374</ele>
        <time>2019-05-23T00:20:49Z</time>
      </trkpt>
      <trkpt lat="44.15327" lon="3.09788">
        <ele>374</ele>
        <time>2019-05-23T00:20:50Z</time>
      </trkpt>
      <trkpt lat="44.15486" lon="3.09797">
        <ele>377</ele>
        <time>2019-05-23T00:21:18Z</time>
      </trkpt>
      <trkpt lat="44.15505" lon="3.09804">
        <ele>377</ele>
        <time>2019-05-23T00:21:21Z</time>
      </trkpt>
      <trkpt lat="44.15505" lon="3.09807">
        <ele>376</ele>
        <time>2019-05-23T00:21:22Z</time>
      </trkpt>
      <trkpt lat="44.15507" lon="3.09811">
        <ele>376</ele>
        <time>2019-05-23T00:21:22Z</time>
      </trkpt>
      <trkpt lat="44.1551" lon="3.09811">
        <ele>376</ele>
        <time>2019-05-23T00:21:23Z</time>
      </trkpt>
      <trkpt lat="44.15514" lon="3.09819">
        <ele>376</ele>
        <time>2019-05-23T00:21:24Z</time>
      </trkpt>
      <trkpt lat="44.15534" lon="3.09835">
        <ele>376</ele>
        <time>2019-05-23T00:21:28Z</time>
      </trkpt>
      <trkpt lat="44.15551" lon="3.09843">
        <ele>376</ele>
        <time>2019-05-23T00:21:31Z</time>
      </trkpt>
      <trkpt lat="44.15576" lon="3.09849">
        <ele>376</ele>
        <time>2019-05-23T00:21:36Z</time>
      </trkpt>
      <trkpt lat="44.1568" lon="3.09857">
        <ele>377</ele>
        <time>2019-05-23T00:21:55Z</time>
      </trkpt>
      <trkpt lat="44.15686" lon="3.0986">
        <ele>377</ele>
        <time>2019-05-23T00:21:56Z</time>
      </trkpt>
      <trkpt lat="44.15695" lon="3.09866">
        <ele>376</ele>
        <time>2019-05-23T00:21:57Z</time>
      </trkpt>
      <trkpt lat="44.15718" lon="3.09905">
        <ele>374</ele>
        <time>2019-05-23T00:22:04Z</time>
      </trkpt>
      <trkpt lat="44.15757" lon="3.09963">
        <ele>372</ele>
        <time>2019-05-23T00:22:14Z</time>
      </trkpt>
      <trkpt lat="44.15774" lon="3.10004">
        <ele>374</ele>
        <time>2019-05-23T00:22:20Z</time>
      </trkpt>
      <trkpt lat="44.15779" lon="3.10023">
        <ele>374</ele>
        <time>2019-05-23T00:22:23Z</time>
      </trkpt>
      <trkpt lat="44.15785" lon="3.10055">
        <ele>375</ele>
        <time>2019-05-23T00:22:27Z</time>
      </trkpt>
      <trkpt lat="44.1583" lon="3.10379">
        <ele>370</ele>
        <time>2019-05-23T00:23:09Z</time>
      </trkpt>
      <trkpt lat="44.15842" lon="3.10429">
        <ele>372</ele>
        <time>2019-05-23T00:23:16Z</time>
      </trkpt>
      <trkpt lat="44.15867" lon="3.10498">
        <ele>375</ele>
        <time>2019-05-23T00:23:26Z</time>
      </trkpt>
      <trkpt lat="44.15882" lon="3.10562">
        <ele>375</ele>
        <time>2019-05-23T00:23:34Z</time>
      </trkpt>
      <trkpt lat="44.1591" lon="3.10689">
        <ele>374</ele>
        <time>2019-05-23T00:23:51Z</time>
      </trkpt>
      <trkpt lat="44.15933" lon="3.10804">
        <ele>376</ele>
        <time>2019-05-23T00:24:06Z</time>
      </trkpt>
      <trkpt lat="44.15957" lon="3.10929">
        <ele>375</ele>
        <time>2019-05-23T00:24:23Z</time>
      </trkpt>
      <trkpt lat="44.15968" lon="3.10979">
        <ele>375</ele>
        <time>2019-05-23T00:24:30Z</time>
      </trkpt>
      <trkpt lat="44.15996" lon="3.11058">
        <ele>374</ele>
        <time>2019-05-23T00:24:41Z</time>
      </trkpt>
      <trkpt lat="44.16082" lon="3.11236">
        <ele>378</ele>
        <time>2019-05-23T00:25:08Z</time>
      </trkpt>
      <trkpt lat="44.16127" lon="3.11322">
        <ele>380</ele>
        <time>2019-05-23T00:25:22Z</time>
      </trkpt>
      <trkpt lat="44.16148" lon="3.11349">
        <ele>380</ele>
        <time>2019-05-23T00:25:27Z</time>
      </trkpt>
      <trkpt lat="44.16168" lon="3.11366">
        <ele>379</ele>
        <time>2019-05-23T00:25:31Z</time>
      </trkpt>
      <trkpt lat="44.16185" lon="3.11375">
        <ele>379</ele>
        <time>2019-05-23T00:25:34Z</time>
      </trkpt>
      <trkpt lat="44.16213" lon="3.1138">
        <ele>380</ele>
        <time>2019-05-23T00:25:39Z</time>
      </trkpt>
      <trkpt lat="44.16248" lon="3.11375">
        <ele>382</ele>
        <time>2019-05-23T00:25:46Z</time>
      </trkpt>
      <trkpt lat="44.16403" lon="3.11328">
        <ele>381</ele>
        <time>2019-05-23T00:26:14Z</time>
      </trkpt>
      <trkpt lat="44.16454" lon="3.11322">
        <ele>379</ele>
        <time>2019-05-23T00:26:23Z</time>
      </trkpt>
      <trkpt lat="44.16487" lon="3.11314">
        <ele>380</ele>
        <time>2019-05-23T00:26:29Z</time>
      </trkpt>
      <trkpt lat="44.16514" lon="3.11313">
        <ele>381</ele>
        <time>2019-05-23T00:26:34Z</time>
      </trkpt>
      <trkpt lat="44.16533" lon="3.1132">
        <ele>381</ele>
        <time>2019-05-23T00:26:37Z</time>
      </trkpt>
      <trkpt lat="44.16543" lon="3.11327">
        <ele>380</ele>
        <time>2019-05-23T00:26:39Z</time>
      </trkpt>
      <trkpt lat="44.1656" lon="3.11342">
        <ele>380</ele>
        <time>2019-05-23T00:26:43Z</time>
      </trkpt>
      <trkpt lat="44.16598" lon="3.11382">
        <ele>379</ele>
        <time>2019-05-23T00:26:51Z</time>
      </trkpt>
      <trkpt lat="44.16728" lon="3.11477">
        <ele>383</ele>
        <time>2019-05-23T00:27:17Z</time>
      </trkpt>
      <trkpt lat="44.16738" lon="3.11488">
        <ele>382</ele>
        <time>2019-05-23T00:27:20Z</time>
      </trkpt>
      <trkpt lat="44.16755" lon="3.11521">
        <ele>382</ele>
        <time>2019-05-23T00:27:25Z</time>
      </trkpt>
      <trkpt lat="44.16762" lon="3.11543">
        <ele>382</ele>
        <time>2019-05-23T00:27:28Z</time>
      </trkpt>
      <trkpt lat="44.16769" lon="3.11573">
        <ele>382</ele>
        <time>2019-05-23T00:27:32Z</time>
      </trkpt>
      <trkpt lat="44.16773" lon="3.1162">
        <ele>382</ele>
        <time>2019-05-23T00:27:38Z</time>
      </trkpt>
      <trkpt lat="44.16777" lon="3.11642">
        <ele>382</ele>
        <time>2019-05-23T00:27:41Z</time>
      </trkpt>
      <trkpt lat="44.16815" lon="3.11779">
        <ele>385</ele>
        <time>2019-05-23T00:28:00Z</time>
      </trkpt>
      <trkpt lat="44.16823" lon="3.11878">
        <ele>385</ele>
        <time>2019-05-23T00:28:12Z</time>
      </trkpt>
      <trkpt lat="44.16827" lon="3.11899">
        <ele>385</ele>
        <time>2019-05-23T00:28:15Z</time>
      </trkpt>
      <trkpt lat="44.16832" lon="3.11918">
        <ele>385</ele>
        <time>2019-05-23T00:28:18Z</time>
      </trkpt>
      <trkpt lat="44.16969" lon="3.12289">
        <ele>384</ele>
        <time>2019-05-23T00:29:11Z</time>
      </trkpt>
      <trkpt lat="44.16988" lon="3.12316">
        <ele>384</ele>
        <time>2019-05-23T00:29:16Z</time>
      </trkpt>
      <trkpt lat="44.17014" lon="3.12337">
        <ele>385</ele>
        <time>2019-05-23T00:29:21Z</time>
      </trkpt>
      <trkpt lat="44.1711" lon="3.1239">
        <ele>390</ele>
        <time>2019-05-23T00:29:39Z</time>
      </trkpt>
      <trkpt lat="44.17147" lon="3.12418">
        <ele>388</ele>
        <time>2019-05-23T00:29:47Z</time>
      </trkpt>
      <trkpt lat="44.17187" lon="3.12435">
        <ele>388</ele>
        <time>2019-05-23T00:29:54Z</time>
      </trkpt>
      <trkpt lat="44.17272" lon="3.12454">
        <ele>389</ele>
        <time>2019-05-23T00:30:10Z</time>
      </trkpt>
      <trkpt lat="44.17316" lon="3.12457">
        <ele>390</ele>
        <time>2019-05-23T00:30:18Z</time>
      </trkpt>
      <trkpt lat="44.17339" lon="3.1245">
        <ele>391</ele>
        <time>2019-05-23T00:30:22Z</time>
      </trkpt>
      <trkpt lat="44.17392" lon="3.12421">
        <ele>393</ele>
        <time>2019-05-23T00:30:32Z</time>
      </trkpt>
      <trkpt lat="44.17431" lon="3.12408">
        <ele>394</ele>
        <time>2019-05-23T00:30:39Z</time>
      </trkpt>
      <trkpt lat="44.17452" lon="3.12406">
        <ele>394</ele>
        <time>2019-05-23T00:30:43Z</time>
      </trkpt>
      <trkpt lat="44.17479" lon="3.12407">
        <ele>393</ele>
        <time>2019-05-23T00:30:48Z</time>
      </trkpt>
      <trkpt lat="44.17502" lon="3.12414">
        <ele>392</ele>
        <time>2019-05-23T00:30:52Z</time>
      </trkpt>
      <trkpt lat="44.17551" lon="3.12439">
        <ele>390</ele>
        <time>2019-05-23T00:31:01Z</time>
      </trkpt>
      <trkpt lat="44.1757" lon="3.12447">
        <ele>389</ele>
        <time>2019-05-23T00:31:05Z</time>
      </trkpt>
      <trkpt lat="44.17588" lon="3.12448">
        <ele>390</ele>
        <time>2019-05-23T00:31:08Z</time>
      </trkpt>
      <trkpt lat="44.17657" lon="3.12449">
        <ele>393</ele>
        <time>2019-05-23T00:31:20Z</time>
      </trkpt>
      <trkpt lat="44.17783" lon="3.12437">
        <ele>394</ele>
        <time>2019-05-23T00:31:42Z</time>
      </trkpt>
      <trkpt lat="44.17848" lon="3.12426">
        <ele>395</ele>
        <time>2019-05-23T00:31:54Z</time>
      </trkpt>
      <trkpt lat="44.17883" lon="3.12428">
        <ele>396</ele>
        <time>2019-05-23T00:32:00Z</time>
      </trkpt>
      <trkpt lat="44.17911" lon="3.12436">
        <ele>396</ele>
        <time>2019-05-23T00:32:05Z</time>
      </trkpt>
      <trkpt lat="44.17963" lon="3.12457">
        <ele>395</ele>
        <time>2019-05-23T00:32:15Z</time>
      </trkpt>
      <trkpt lat="44.18111" lon="3.12527">
        <ele>394</ele>
        <time>2019-05-23T00:32:43Z</time>
      </trkpt>
      <trkpt lat="44.1819" lon="3.12574">
        <ele>390</ele>
        <time>2019-05-23T00:32:58Z</time>
      </trkpt>
      <trkpt lat="44.18226" lon="3.12603">
        <ele>387</ele>
        <time>2019-05-23T00:33:06Z</time>
      </trkpt>
      <trkpt lat="44.18262" lon="3.12641">
        <ele>384</ele>
        <time>2019-05-23T00:33:14Z</time>
      </trkpt>
      <trkpt lat="44.18298" lon="3.12664">
        <ele>383</ele>
        <time>2019-05-23T00:33:21Z</time>
      </trkpt>
      <trkpt lat="44.18354" lon="3.12685">
        <ele>384</ele>
        <time>2019-05-23T00:33:31Z</time>
      </trkpt>
      <trkpt lat="44.18415" lon="3.12704">
        <ele>382</ele>
        <time>2019-05-23T00:33:42Z</time>
      </trkpt>
      <trkpt lat="44.1844" lon="3.12718">
        <ele>382</ele>
        <time>2019-05-23T00:33:47Z</time>
      </trkpt>
      <trkpt lat="44.18472" lon="3.12743">
        <ele>381</ele>
        <time>2019-05-23T00:33:53Z</time>
      </trkpt>
      <trkpt lat="44.18578" lon="3.12835">
        <ele>381</ele>
        <time>2019-05-23T00:34:16Z</time>
      </trkpt>
      <trkpt lat="44.18581" lon="3.12828">
        <ele>381</ele>
        <time>2019-05-23T00:34:17Z</time>
      </trkpt>
    </trkseg>
  </trk>
</gpx>